<?xml version="1.0" encoding="UTF-8" standalone="no" ?>
<gpx xmlns="http://www.topografix.com/GPX/1/1" xmlns:xsi="http://www.w3.org/2001/XMLSchema-instance" xsi:schemaLocation="http://www.topografix.com/GPX/1/1 http://www.topografix.com/GPX/1/1/gpx.xsd" version="1.1" creator="VisuGPX - https://www.visugpx.com">
  <metadata>
    <name>tour du Contadé</name>
  </metadata>
  <trk>
    <name><![CDATA[tour du Contadé]]></name>
    <trkseg>
      <trkpt lat="42.91018" lon="0.16911">
        <ele>1811</ele>
        <time>2018-04-14T05:14:02Z</time>
      </trkpt>
      <trkpt lat="42.91018" lon="0.1691">
        <ele>1812</ele>
        <time>2018-04-14T05:14:03Z</time>
      </trkpt>
      <trkpt lat="42.90983" lon="0.16872">
        <ele>1810</ele>
        <time>2018-04-14T05:14:18Z</time>
      </trkpt>
      <trkpt lat="42.90965" lon="0.16849">
        <ele>1808</ele>
        <time>2018-04-14T05:14:32Z</time>
      </trkpt>
      <trkpt lat="42.90952" lon="0.16828">
        <ele>1807</ele>
        <time>2018-04-14T05:14:48Z</time>
      </trkpt>
      <trkpt lat="42.9095" lon="0.16825">
        <ele>1806</ele>
        <time>2018-04-14T05:14:50Z</time>
      </trkpt>
      <trkpt lat="42.90949" lon="0.16822">
        <ele>1806</ele>
        <time>2018-04-14T05:14:52Z</time>
      </trkpt>
      <trkpt lat="42.90944" lon="0.16811">
        <ele>1806</ele>
        <time>2018-04-14T05:15:08Z</time>
      </trkpt>
      <trkpt lat="42.90926" lon="0.16809">
        <ele>1804</ele>
        <time>2018-04-14T05:15:22Z</time>
      </trkpt>
      <trkpt lat="42.90908" lon="0.16806">
        <ele>1802</ele>
        <time>2018-04-14T05:15:41Z</time>
      </trkpt>
      <trkpt lat="42.90903" lon="0.16792">
        <ele>1799</ele>
        <time>2018-04-14T05:16:00Z</time>
      </trkpt>
      <trkpt lat="42.90893" lon="0.16787">
        <ele>1797</ele>
        <time>2018-04-14T05:16:16Z</time>
      </trkpt>
      <trkpt lat="42.90881" lon="0.16777">
        <ele>1797</ele>
        <time>2018-04-14T05:16:29Z</time>
      </trkpt>
      <trkpt lat="42.90869" lon="0.1674">
        <ele>1797</ele>
        <time>2018-04-14T05:16:46Z</time>
      </trkpt>
      <trkpt lat="42.90856" lon="0.16703">
        <ele>1795</ele>
        <time>2018-04-14T05:17:03Z</time>
      </trkpt>
      <trkpt lat="42.90841" lon="0.16657">
        <ele>1793</ele>
        <time>2018-04-14T05:17:26Z</time>
      </trkpt>
      <trkpt lat="42.90803" lon="0.16776">
        <ele>1780</ele>
        <time>2018-04-14T05:21:01Z</time>
      </trkpt>
      <trkpt lat="42.90807" lon="0.16763">
        <ele>1781</ele>
        <time>2018-04-14T05:21:13Z</time>
      </trkpt>
      <trkpt lat="42.90806" lon="0.16763">
        <ele>1780</ele>
        <time>2018-04-14T05:21:27Z</time>
      </trkpt>
      <trkpt lat="42.90808" lon="0.16755">
        <ele>1780</ele>
        <time>2018-04-14T05:21:41Z</time>
      </trkpt>
      <trkpt lat="42.90808" lon="0.16755">
        <ele>1779</ele>
        <time>2018-04-14T05:21:51Z</time>
      </trkpt>
      <trkpt lat="42.90811" lon="0.16747">
        <ele>1779</ele>
        <time>2018-04-14T05:22:19Z</time>
      </trkpt>
      <trkpt lat="42.90713" lon="0.16455">
        <ele>1779</ele>
        <time>2018-04-14T05:22:50Z</time>
      </trkpt>
      <trkpt lat="42.90712" lon="0.16448">
        <ele>1779</ele>
        <time>2018-04-14T05:23:11Z</time>
      </trkpt>
      <trkpt lat="42.90712" lon="0.16449">
        <ele>1781</ele>
        <time>2018-04-14T05:23:20Z</time>
      </trkpt>
      <trkpt lat="42.9071" lon="0.16449">
        <ele>1780</ele>
        <time>2018-04-14T05:23:39Z</time>
      </trkpt>
      <trkpt lat="42.9071" lon="0.16451">
        <ele>1779</ele>
        <time>2018-04-14T05:24:09Z</time>
      </trkpt>
      <trkpt lat="42.90707" lon="0.16447">
        <ele>1780</ele>
        <time>2018-04-14T05:24:26Z</time>
      </trkpt>
      <trkpt lat="42.90709" lon="0.16447">
        <ele>1780</ele>
        <time>2018-04-14T05:24:47Z</time>
      </trkpt>
      <trkpt lat="42.90702" lon="0.16452">
        <ele>1781</ele>
        <time>2018-04-14T05:25:25Z</time>
      </trkpt>
      <trkpt lat="42.90704" lon="0.16449">
        <ele>1780</ele>
        <time>2018-04-14T05:25:45Z</time>
      </trkpt>
      <trkpt lat="42.907" lon="0.1645">
        <ele>1780</ele>
        <time>2018-04-14T05:26:05Z</time>
      </trkpt>
      <trkpt lat="42.90704" lon="0.16451">
        <ele>1780</ele>
        <time>2018-04-14T05:26:37Z</time>
      </trkpt>
      <trkpt lat="42.90705" lon="0.16447">
        <ele>1781</ele>
        <time>2018-04-14T05:26:58Z</time>
      </trkpt>
      <trkpt lat="42.90705" lon="0.16448">
        <ele>1780</ele>
        <time>2018-04-14T05:27:26Z</time>
      </trkpt>
      <trkpt lat="42.90707" lon="0.16441">
        <ele>1781</ele>
        <time>2018-04-14T05:27:36Z</time>
      </trkpt>
      <trkpt lat="42.90696" lon="0.16417">
        <ele>1781</ele>
        <time>2018-04-14T05:27:52Z</time>
      </trkpt>
      <trkpt lat="42.90693" lon="0.16411">
        <ele>1781</ele>
        <time>2018-04-14T05:27:56Z</time>
      </trkpt>
      <trkpt lat="42.90692" lon="0.16403">
        <ele>1780</ele>
        <time>2018-04-14T05:28:01Z</time>
      </trkpt>
      <trkpt lat="42.9069" lon="0.16385">
        <ele>1781</ele>
        <time>2018-04-14T05:28:13Z</time>
      </trkpt>
      <trkpt lat="42.90686" lon="0.16372">
        <ele>1782</ele>
        <time>2018-04-14T05:28:21Z</time>
      </trkpt>
      <trkpt lat="42.90683" lon="0.16367">
        <ele>1782</ele>
        <time>2018-04-14T05:28:25Z</time>
      </trkpt>
      <trkpt lat="42.90673" lon="0.16343">
        <ele>1783</ele>
        <time>2018-04-14T05:28:40Z</time>
      </trkpt>
      <trkpt lat="42.9066" lon="0.16317">
        <ele>1783</ele>
        <time>2018-04-14T05:28:56Z</time>
      </trkpt>
      <trkpt lat="42.90656" lon="0.16311">
        <ele>1783</ele>
        <time>2018-04-14T05:29:01Z</time>
      </trkpt>
      <trkpt lat="42.90652" lon="0.1628">
        <ele>1784</ele>
        <time>2018-04-14T05:29:19Z</time>
      </trkpt>
      <trkpt lat="42.90642" lon="0.16259">
        <ele>1785</ele>
        <time>2018-04-14T05:29:35Z</time>
      </trkpt>
      <trkpt lat="42.90635" lon="0.1624">
        <ele>1786</ele>
        <time>2018-04-14T05:29:49Z</time>
      </trkpt>
      <trkpt lat="42.90634" lon="0.16236">
        <ele>1787</ele>
        <time>2018-04-14T05:29:52Z</time>
      </trkpt>
      <trkpt lat="42.90633" lon="0.16233">
        <ele>1787</ele>
        <time>2018-04-14T05:29:54Z</time>
      </trkpt>
      <trkpt lat="42.90628" lon="0.1622">
        <ele>1788</ele>
        <time>2018-04-14T05:30:04Z</time>
      </trkpt>
      <trkpt lat="42.90621" lon="0.16204">
        <ele>1789</ele>
        <time>2018-04-14T05:30:17Z</time>
      </trkpt>
      <trkpt lat="42.9061" lon="0.16183">
        <ele>1791</ele>
        <time>2018-04-14T05:30:33Z</time>
      </trkpt>
      <trkpt lat="42.90605" lon="0.16175">
        <ele>1791</ele>
        <time>2018-04-14T05:30:39Z</time>
      </trkpt>
      <trkpt lat="42.90598" lon="0.16156">
        <ele>1793</ele>
        <time>2018-04-14T05:30:56Z</time>
      </trkpt>
      <trkpt lat="42.90588" lon="0.16136">
        <ele>1795</ele>
        <time>2018-04-14T05:31:11Z</time>
      </trkpt>
      <trkpt lat="42.90581" lon="0.1612">
        <ele>1797</ele>
        <time>2018-04-14T05:31:26Z</time>
      </trkpt>
      <trkpt lat="42.90572" lon="0.16098">
        <ele>1799</ele>
        <time>2018-04-14T05:31:43Z</time>
      </trkpt>
      <trkpt lat="42.90564" lon="0.16081">
        <ele>1800</ele>
        <time>2018-04-14T05:31:58Z</time>
      </trkpt>
      <trkpt lat="42.90556" lon="0.16061">
        <ele>1803</ele>
        <time>2018-04-14T05:32:12Z</time>
      </trkpt>
      <trkpt lat="42.90549" lon="0.16039">
        <ele>1805</ele>
        <time>2018-04-14T05:32:28Z</time>
      </trkpt>
      <trkpt lat="42.90545" lon="0.16019">
        <ele>1807</ele>
        <time>2018-04-14T05:32:44Z</time>
      </trkpt>
      <trkpt lat="42.90544" lon="0.16014">
        <ele>1807</ele>
        <time>2018-04-14T05:32:48Z</time>
      </trkpt>
      <trkpt lat="42.90539" lon="0.15994">
        <ele>1810</ele>
        <time>2018-04-14T05:33:04Z</time>
      </trkpt>
      <trkpt lat="42.90537" lon="0.15979">
        <ele>1812</ele>
        <time>2018-04-14T05:33:17Z</time>
      </trkpt>
      <trkpt lat="42.90533" lon="0.15964">
        <ele>1815</ele>
        <time>2018-04-14T05:33:31Z</time>
      </trkpt>
      <trkpt lat="42.90529" lon="0.1595">
        <ele>1817</ele>
        <time>2018-04-14T05:33:46Z</time>
      </trkpt>
      <trkpt lat="42.90524" lon="0.15936">
        <ele>1819</ele>
        <time>2018-04-14T05:34:01Z</time>
      </trkpt>
      <trkpt lat="42.90516" lon="0.15923">
        <ele>1822</ele>
        <time>2018-04-14T05:34:16Z</time>
      </trkpt>
      <trkpt lat="42.90523" lon="0.15908">
        <ele>1825</ele>
        <time>2018-04-14T05:34:32Z</time>
      </trkpt>
      <trkpt lat="42.90531" lon="0.15898">
        <ele>1828</ele>
        <time>2018-04-14T05:34:49Z</time>
      </trkpt>
      <trkpt lat="42.90534" lon="0.15892">
        <ele>1830</ele>
        <time>2018-04-14T05:34:55Z</time>
      </trkpt>
      <trkpt lat="42.90533" lon="0.15892">
        <ele>1830</ele>
        <time>2018-04-14T05:34:59Z</time>
      </trkpt>
      <trkpt lat="42.90521" lon="0.15882">
        <ele>1833</ele>
        <time>2018-04-14T05:35:14Z</time>
      </trkpt>
      <trkpt lat="42.90514" lon="0.15874">
        <ele>1836</ele>
        <time>2018-04-14T05:35:27Z</time>
      </trkpt>
      <trkpt lat="42.90508" lon="0.15865">
        <ele>1838</ele>
        <time>2018-04-14T05:35:41Z</time>
      </trkpt>
      <trkpt lat="42.90518" lon="0.1585">
        <ele>1840</ele>
        <time>2018-04-14T05:35:56Z</time>
      </trkpt>
      <trkpt lat="42.90523" lon="0.15839">
        <ele>1844</ele>
        <time>2018-04-14T05:36:10Z</time>
      </trkpt>
      <trkpt lat="42.90524" lon="0.15838">
        <ele>1843</ele>
        <time>2018-04-14T05:36:11Z</time>
      </trkpt>
      <trkpt lat="42.9051" lon="0.15833">
        <ele>1847</ele>
        <time>2018-04-14T05:36:27Z</time>
      </trkpt>
      <trkpt lat="42.905" lon="0.15816">
        <ele>1850</ele>
        <time>2018-04-14T05:36:45Z</time>
      </trkpt>
      <trkpt lat="42.90501" lon="0.15806">
        <ele>1852</ele>
        <time>2018-04-14T05:37:00Z</time>
      </trkpt>
      <trkpt lat="42.90508" lon="0.15796">
        <ele>1855</ele>
        <time>2018-04-14T05:37:16Z</time>
      </trkpt>
      <trkpt lat="42.90511" lon="0.15785">
        <ele>1858</ele>
        <time>2018-04-14T05:37:33Z</time>
      </trkpt>
      <trkpt lat="42.90515" lon="0.1578">
        <ele>1861</ele>
        <time>2018-04-14T05:37:41Z</time>
      </trkpt>
      <trkpt lat="42.90514" lon="0.1578">
        <ele>1862</ele>
        <time>2018-04-14T05:37:43Z</time>
      </trkpt>
      <trkpt lat="42.90508" lon="0.15771">
        <ele>1863</ele>
        <time>2018-04-14T05:37:57Z</time>
      </trkpt>
      <trkpt lat="42.90503" lon="0.1576">
        <ele>1866</ele>
        <time>2018-04-14T05:38:14Z</time>
      </trkpt>
      <trkpt lat="42.90492" lon="0.1575">
        <ele>1868</ele>
        <time>2018-04-14T05:38:29Z</time>
      </trkpt>
      <trkpt lat="42.90486" lon="0.15743">
        <ele>1870</ele>
        <time>2018-04-14T05:38:45Z</time>
      </trkpt>
      <trkpt lat="42.9049" lon="0.15729">
        <ele>1872</ele>
        <time>2018-04-14T05:39:00Z</time>
      </trkpt>
      <trkpt lat="42.90491" lon="0.15721">
        <ele>1874</ele>
        <time>2018-04-14T05:39:13Z</time>
      </trkpt>
      <trkpt lat="42.90488" lon="0.1572">
        <ele>1874</ele>
        <time>2018-04-14T05:39:16Z</time>
      </trkpt>
      <trkpt lat="42.9048" lon="0.15717">
        <ele>1876</ele>
        <time>2018-04-14T05:39:30Z</time>
      </trkpt>
      <trkpt lat="42.90474" lon="0.15711">
        <ele>1878</ele>
        <time>2018-04-14T05:39:45Z</time>
      </trkpt>
      <trkpt lat="42.9047" lon="0.15697">
        <ele>1881</ele>
        <time>2018-04-14T05:40:03Z</time>
      </trkpt>
      <trkpt lat="42.90464" lon="0.15683">
        <ele>1883</ele>
        <time>2018-04-14T05:40:20Z</time>
      </trkpt>
      <trkpt lat="42.90457" lon="0.15671">
        <ele>1886</ele>
        <time>2018-04-14T05:40:32Z</time>
      </trkpt>
      <trkpt lat="42.90449" lon="0.15661">
        <ele>1888</ele>
        <time>2018-04-14T05:40:46Z</time>
      </trkpt>
      <trkpt lat="42.9044" lon="0.15653">
        <ele>1892</ele>
        <time>2018-04-14T05:41:02Z</time>
      </trkpt>
      <trkpt lat="42.90434" lon="0.1565">
        <ele>1894</ele>
        <time>2018-04-14T05:41:18Z</time>
      </trkpt>
      <trkpt lat="42.90427" lon="0.15653">
        <ele>1896</ele>
        <time>2018-04-14T05:41:30Z</time>
      </trkpt>
      <trkpt lat="42.90416" lon="0.15651">
        <ele>1899</ele>
        <time>2018-04-14T05:41:45Z</time>
      </trkpt>
      <trkpt lat="42.90408" lon="0.15645">
        <ele>1902</ele>
        <time>2018-04-14T05:42:02Z</time>
      </trkpt>
      <trkpt lat="42.90402" lon="0.15642">
        <ele>1903</ele>
        <time>2018-04-14T05:42:10Z</time>
      </trkpt>
      <trkpt lat="42.90396" lon="0.15636">
        <ele>1904</ele>
        <time>2018-04-14T05:42:20Z</time>
      </trkpt>
      <trkpt lat="42.90384" lon="0.15636">
        <ele>1905</ele>
        <time>2018-04-14T05:42:32Z</time>
      </trkpt>
      <trkpt lat="42.90372" lon="0.15637">
        <ele>1907</ele>
        <time>2018-04-14T05:42:47Z</time>
      </trkpt>
      <trkpt lat="42.90362" lon="0.15637">
        <ele>1908</ele>
        <time>2018-04-14T05:43:01Z</time>
      </trkpt>
      <trkpt lat="42.90352" lon="0.15636">
        <ele>1910</ele>
        <time>2018-04-14T05:43:13Z</time>
      </trkpt>
      <trkpt lat="42.90344" lon="0.15638">
        <ele>1912</ele>
        <time>2018-04-14T05:43:26Z</time>
      </trkpt>
      <trkpt lat="42.90332" lon="0.15646">
        <ele>1915</ele>
        <time>2018-04-14T05:43:42Z</time>
      </trkpt>
      <trkpt lat="42.90322" lon="0.15649">
        <ele>1917</ele>
        <time>2018-04-14T05:43:56Z</time>
      </trkpt>
      <trkpt lat="42.90319" lon="0.15649">
        <ele>1917</ele>
        <time>2018-04-14T05:44:00Z</time>
      </trkpt>
      <trkpt lat="42.90315" lon="0.15648">
        <ele>1919</ele>
        <time>2018-04-14T05:44:04Z</time>
      </trkpt>
      <trkpt lat="42.90307" lon="0.15643">
        <ele>1920</ele>
        <time>2018-04-14T05:44:18Z</time>
      </trkpt>
      <trkpt lat="42.90298" lon="0.15643">
        <ele>1923</ele>
        <time>2018-04-14T05:44:31Z</time>
      </trkpt>
      <trkpt lat="42.90292" lon="0.15653">
        <ele>1925</ele>
        <time>2018-04-14T05:44:46Z</time>
      </trkpt>
      <trkpt lat="42.90288" lon="0.15658">
        <ele>1927</ele>
        <time>2018-04-14T05:45:00Z</time>
      </trkpt>
      <trkpt lat="42.90281" lon="0.15661">
        <ele>1929</ele>
        <time>2018-04-14T05:45:15Z</time>
      </trkpt>
      <trkpt lat="42.90272" lon="0.15665">
        <ele>1931</ele>
        <time>2018-04-14T05:45:30Z</time>
      </trkpt>
      <trkpt lat="42.90264" lon="0.15664">
        <ele>1933</ele>
        <time>2018-04-14T05:45:46Z</time>
      </trkpt>
      <trkpt lat="42.90258" lon="0.1566">
        <ele>1937</ele>
        <time>2018-04-14T05:46:01Z</time>
      </trkpt>
      <trkpt lat="42.90251" lon="0.1566">
        <ele>1940</ele>
        <time>2018-04-14T05:46:14Z</time>
      </trkpt>
      <trkpt lat="42.90246" lon="0.15655">
        <ele>1942</ele>
        <time>2018-04-14T05:46:28Z</time>
      </trkpt>
      <trkpt lat="42.90245" lon="0.15664">
        <ele>1945</ele>
        <time>2018-04-14T05:46:45Z</time>
      </trkpt>
      <trkpt lat="42.9024" lon="0.15673">
        <ele>1946</ele>
        <time>2018-04-14T05:46:58Z</time>
      </trkpt>
      <trkpt lat="42.90235" lon="0.15685">
        <ele>1949</ele>
        <time>2018-04-14T05:47:13Z</time>
      </trkpt>
      <trkpt lat="42.90228" lon="0.15694">
        <ele>1951</ele>
        <time>2018-04-14T05:47:28Z</time>
      </trkpt>
      <trkpt lat="42.90223" lon="0.15705">
        <ele>1953</ele>
        <time>2018-04-14T05:47:43Z</time>
      </trkpt>
      <trkpt lat="42.90215" lon="0.15718">
        <ele>1955</ele>
        <time>2018-04-14T05:47:58Z</time>
      </trkpt>
      <trkpt lat="42.9021" lon="0.15716">
        <ele>1956</ele>
        <time>2018-04-14T05:48:10Z</time>
      </trkpt>
      <trkpt lat="42.90206" lon="0.15716">
        <ele>1960</ele>
        <time>2018-04-14T05:48:28Z</time>
      </trkpt>
      <trkpt lat="42.90201" lon="0.15728">
        <ele>1962</ele>
        <time>2018-04-14T05:48:44Z</time>
      </trkpt>
      <trkpt lat="42.90198" lon="0.15737">
        <ele>1965</ele>
        <time>2018-04-14T05:49:00Z</time>
      </trkpt>
      <trkpt lat="42.90191" lon="0.15752">
        <ele>1967</ele>
        <time>2018-04-14T05:49:17Z</time>
      </trkpt>
      <trkpt lat="42.90184" lon="0.15759">
        <ele>1969</ele>
        <time>2018-04-14T05:49:30Z</time>
      </trkpt>
      <trkpt lat="42.90176" lon="0.15768">
        <ele>1971</ele>
        <time>2018-04-14T05:49:46Z</time>
      </trkpt>
      <trkpt lat="42.9017" lon="0.15758">
        <ele>1974</ele>
        <time>2018-04-14T05:50:04Z</time>
      </trkpt>
      <trkpt lat="42.90168" lon="0.15748">
        <ele>1977</ele>
        <time>2018-04-14T05:50:19Z</time>
      </trkpt>
      <trkpt lat="42.90167" lon="0.15732">
        <ele>1980</ele>
        <time>2018-04-14T05:50:37Z</time>
      </trkpt>
      <trkpt lat="42.90162" lon="0.15727">
        <ele>1983</ele>
        <time>2018-04-14T05:50:57Z</time>
      </trkpt>
      <trkpt lat="42.90159" lon="0.15727">
        <ele>1986</ele>
        <time>2018-04-14T05:51:12Z</time>
      </trkpt>
      <trkpt lat="42.9015" lon="0.15734">
        <ele>1988</ele>
        <time>2018-04-14T05:51:27Z</time>
      </trkpt>
      <trkpt lat="42.9014" lon="0.15743">
        <ele>1991</ele>
        <time>2018-04-14T05:51:42Z</time>
      </trkpt>
      <trkpt lat="42.90131" lon="0.15756">
        <ele>1993</ele>
        <time>2018-04-14T05:52:01Z</time>
      </trkpt>
      <trkpt lat="42.90125" lon="0.15766">
        <ele>1996</ele>
        <time>2018-04-14T05:52:16Z</time>
      </trkpt>
      <trkpt lat="42.9012" lon="0.15779">
        <ele>1998</ele>
        <time>2018-04-14T05:52:32Z</time>
      </trkpt>
      <trkpt lat="42.90113" lon="0.15787">
        <ele>2001</ele>
        <time>2018-04-14T05:52:46Z</time>
      </trkpt>
      <trkpt lat="42.90106" lon="0.15792">
        <ele>2003</ele>
        <time>2018-04-14T05:53:00Z</time>
      </trkpt>
      <trkpt lat="42.90097" lon="0.15787">
        <ele>2005</ele>
        <time>2018-04-14T05:53:16Z</time>
      </trkpt>
      <trkpt lat="42.90098" lon="0.15772">
        <ele>2008</ele>
        <time>2018-04-14T05:53:31Z</time>
      </trkpt>
      <trkpt lat="42.90093" lon="0.15769">
        <ele>2010</ele>
        <time>2018-04-14T05:53:45Z</time>
      </trkpt>
      <trkpt lat="42.90094" lon="0.15771">
        <ele>2010</ele>
        <time>2018-04-14T05:54:01Z</time>
      </trkpt>
      <trkpt lat="42.90092" lon="0.15772">
        <ele>2010</ele>
        <time>2018-04-14T05:54:19Z</time>
      </trkpt>
      <trkpt lat="42.90091" lon="0.15772">
        <ele>2010</ele>
        <time>2018-04-14T05:54:42Z</time>
      </trkpt>
      <trkpt lat="42.90096" lon="0.15774">
        <ele>2010</ele>
        <time>2018-04-14T05:55:01Z</time>
      </trkpt>
      <trkpt lat="42.9009" lon="0.1577">
        <ele>2010</ele>
        <time>2018-04-14T05:55:24Z</time>
      </trkpt>
      <trkpt lat="42.90092" lon="0.15768">
        <ele>2010</ele>
        <time>2018-04-14T05:55:50Z</time>
      </trkpt>
      <trkpt lat="42.90092" lon="0.15776">
        <ele>2010</ele>
        <time>2018-04-14T05:56:19Z</time>
      </trkpt>
      <trkpt lat="42.90087" lon="0.15771">
        <ele>2009</ele>
        <time>2018-04-14T05:56:49Z</time>
      </trkpt>
      <trkpt lat="42.9009" lon="0.15769">
        <ele>2009</ele>
        <time>2018-04-14T05:57:14Z</time>
      </trkpt>
      <trkpt lat="42.90093" lon="0.15771">
        <ele>2009</ele>
        <time>2018-04-14T05:57:46Z</time>
      </trkpt>
      <trkpt lat="42.90089" lon="0.15774">
        <ele>2009</ele>
        <time>2018-04-14T05:58:06Z</time>
      </trkpt>
      <trkpt lat="42.90076" lon="0.15782">
        <ele>2012</ele>
        <time>2018-04-14T05:58:22Z</time>
      </trkpt>
      <trkpt lat="42.90066" lon="0.15791">
        <ele>2013</ele>
        <time>2018-04-14T05:58:36Z</time>
      </trkpt>
      <trkpt lat="42.90055" lon="0.158">
        <ele>2016</ele>
        <time>2018-04-14T05:58:50Z</time>
      </trkpt>
      <trkpt lat="42.90043" lon="0.15813">
        <ele>2018</ele>
        <time>2018-04-14T05:59:06Z</time>
      </trkpt>
      <trkpt lat="42.90031" lon="0.15822">
        <ele>2020</ele>
        <time>2018-04-14T05:59:21Z</time>
      </trkpt>
      <trkpt lat="42.90019" lon="0.15828">
        <ele>2021</ele>
        <time>2018-04-14T05:59:35Z</time>
      </trkpt>
      <trkpt lat="42.90007" lon="0.15832">
        <ele>2023</ele>
        <time>2018-04-14T05:59:49Z</time>
      </trkpt>
      <trkpt lat="42.8999" lon="0.15841">
        <ele>2025</ele>
        <time>2018-04-14T06:00:08Z</time>
      </trkpt>
      <trkpt lat="42.89977" lon="0.15845">
        <ele>2025</ele>
        <time>2018-04-14T06:00:21Z</time>
      </trkpt>
      <trkpt lat="42.89961" lon="0.15852">
        <ele>2025</ele>
        <time>2018-04-14T06:00:38Z</time>
      </trkpt>
      <trkpt lat="42.89947" lon="0.15858">
        <ele>2026</ele>
        <time>2018-04-14T06:00:53Z</time>
      </trkpt>
      <trkpt lat="42.89935" lon="0.15865">
        <ele>2028</ele>
        <time>2018-04-14T06:01:07Z</time>
      </trkpt>
      <trkpt lat="42.89921" lon="0.1587">
        <ele>2029</ele>
        <time>2018-04-14T06:01:24Z</time>
      </trkpt>
      <trkpt lat="42.89916" lon="0.15871">
        <ele>2031</ele>
        <time>2018-04-14T06:01:33Z</time>
      </trkpt>
      <trkpt lat="42.89907" lon="0.15871">
        <ele>2034</ele>
        <time>2018-04-14T06:01:50Z</time>
      </trkpt>
      <trkpt lat="42.89903" lon="0.15875">
        <ele>2036</ele>
        <time>2018-04-14T06:02:00Z</time>
      </trkpt>
      <trkpt lat="42.89893" lon="0.15879">
        <ele>2039</ele>
        <time>2018-04-14T06:02:18Z</time>
      </trkpt>
      <trkpt lat="42.89887" lon="0.15876">
        <ele>2042</ele>
        <time>2018-04-14T06:02:31Z</time>
      </trkpt>
      <trkpt lat="42.89882" lon="0.15889">
        <ele>2044</ele>
        <time>2018-04-14T06:02:46Z</time>
      </trkpt>
      <trkpt lat="42.89878" lon="0.15898">
        <ele>2047</ele>
        <time>2018-04-14T06:03:04Z</time>
      </trkpt>
      <trkpt lat="42.89872" lon="0.1589">
        <ele>2050</ele>
        <time>2018-04-14T06:03:20Z</time>
      </trkpt>
      <trkpt lat="42.89863" lon="0.15895">
        <ele>2053</ele>
        <time>2018-04-14T06:03:31Z</time>
      </trkpt>
      <trkpt lat="42.89855" lon="0.15907">
        <ele>2055</ele>
        <time>2018-04-14T06:03:48Z</time>
      </trkpt>
      <trkpt lat="42.89847" lon="0.15906">
        <ele>2058</ele>
        <time>2018-04-14T06:04:03Z</time>
      </trkpt>
      <trkpt lat="42.89838" lon="0.15896">
        <ele>2061</ele>
        <time>2018-04-14T06:04:21Z</time>
      </trkpt>
      <trkpt lat="42.89836" lon="0.15891">
        <ele>2064</ele>
        <time>2018-04-14T06:04:33Z</time>
      </trkpt>
      <trkpt lat="42.89831" lon="0.15888">
        <ele>2067</ele>
        <time>2018-04-14T06:04:48Z</time>
      </trkpt>
      <trkpt lat="42.89825" lon="0.1588">
        <ele>2070</ele>
        <time>2018-04-14T06:05:03Z</time>
      </trkpt>
      <trkpt lat="42.8982" lon="0.15882">
        <ele>2072</ele>
        <time>2018-04-14T06:05:11Z</time>
      </trkpt>
      <trkpt lat="42.8981" lon="0.15889">
        <ele>2073</ele>
        <time>2018-04-14T06:05:27Z</time>
      </trkpt>
      <trkpt lat="42.89808" lon="0.15893">
        <ele>2074</ele>
        <time>2018-04-14T06:05:32Z</time>
      </trkpt>
      <trkpt lat="42.898" lon="0.15899">
        <ele>2077</ele>
        <time>2018-04-14T06:05:49Z</time>
      </trkpt>
      <trkpt lat="42.89793" lon="0.15907">
        <ele>2079</ele>
        <time>2018-04-14T06:06:03Z</time>
      </trkpt>
      <trkpt lat="42.89789" lon="0.15913">
        <ele>2083</ele>
        <time>2018-04-14T06:06:19Z</time>
      </trkpt>
      <trkpt lat="42.89782" lon="0.1592">
        <ele>2085</ele>
        <time>2018-04-14T06:06:33Z</time>
      </trkpt>
      <trkpt lat="42.89775" lon="0.15928">
        <ele>2089</ele>
        <time>2018-04-14T06:06:50Z</time>
      </trkpt>
      <trkpt lat="42.89766" lon="0.15933">
        <ele>2092</ele>
        <time>2018-04-14T06:07:06Z</time>
      </trkpt>
      <trkpt lat="42.89759" lon="0.15941">
        <ele>2094</ele>
        <time>2018-04-14T06:07:23Z</time>
      </trkpt>
      <trkpt lat="42.89753" lon="0.15949">
        <ele>2096</ele>
        <time>2018-04-14T06:07:35Z</time>
      </trkpt>
      <trkpt lat="42.89751" lon="0.1595">
        <ele>2097</ele>
        <time>2018-04-14T06:07:37Z</time>
      </trkpt>
      <trkpt lat="42.89742" lon="0.15964">
        <ele>2099</ele>
        <time>2018-04-14T06:07:56Z</time>
      </trkpt>
      <trkpt lat="42.89731" lon="0.15971">
        <ele>2101</ele>
        <time>2018-04-14T06:08:13Z</time>
      </trkpt>
      <trkpt lat="42.89721" lon="0.15979">
        <ele>2104</ele>
        <time>2018-04-14T06:08:27Z</time>
      </trkpt>
      <trkpt lat="42.89711" lon="0.15986">
        <ele>2108</ele>
        <time>2018-04-14T06:08:44Z</time>
      </trkpt>
      <trkpt lat="42.89707" lon="0.1599">
        <ele>2109</ele>
        <time>2018-04-14T06:08:51Z</time>
      </trkpt>
      <trkpt lat="42.89697" lon="0.15998">
        <ele>2112</ele>
        <time>2018-04-14T06:09:08Z</time>
      </trkpt>
      <trkpt lat="42.89687" lon="0.16007">
        <ele>2116</ele>
        <time>2018-04-14T06:09:26Z</time>
      </trkpt>
      <trkpt lat="42.89677" lon="0.16016">
        <ele>2118</ele>
        <time>2018-04-14T06:09:40Z</time>
      </trkpt>
      <trkpt lat="42.89664" lon="0.16027">
        <ele>2119</ele>
        <time>2018-04-14T06:09:55Z</time>
      </trkpt>
      <trkpt lat="42.89663" lon="0.16028">
        <ele>2119</ele>
        <time>2018-04-14T06:09:56Z</time>
      </trkpt>
      <trkpt lat="42.89648" lon="0.16037">
        <ele>2120</ele>
        <time>2018-04-14T06:10:11Z</time>
      </trkpt>
      <trkpt lat="42.8963" lon="0.16046">
        <ele>2120</ele>
        <time>2018-04-14T06:10:28Z</time>
      </trkpt>
      <trkpt lat="42.89613" lon="0.16053">
        <ele>2120</ele>
        <time>2018-04-14T06:10:43Z</time>
      </trkpt>
      <trkpt lat="42.896" lon="0.16064">
        <ele>2119</ele>
        <time>2018-04-14T06:10:58Z</time>
      </trkpt>
      <trkpt lat="42.89589" lon="0.16075">
        <ele>2119</ele>
        <time>2018-04-14T06:11:12Z</time>
      </trkpt>
      <trkpt lat="42.89577" lon="0.16087">
        <ele>2120</ele>
        <time>2018-04-14T06:11:27Z</time>
      </trkpt>
      <trkpt lat="42.89566" lon="0.16097">
        <ele>2121</ele>
        <time>2018-04-14T06:11:41Z</time>
      </trkpt>
      <trkpt lat="42.89553" lon="0.1611">
        <ele>2123</ele>
        <time>2018-04-14T06:11:58Z</time>
      </trkpt>
      <trkpt lat="42.89541" lon="0.1612">
        <ele>2124</ele>
        <time>2018-04-14T06:12:14Z</time>
      </trkpt>
      <trkpt lat="42.8953" lon="0.16131">
        <ele>2126</ele>
        <time>2018-04-14T06:12:32Z</time>
      </trkpt>
      <trkpt lat="42.89522" lon="0.16145">
        <ele>2129</ele>
        <time>2018-04-14T06:12:48Z</time>
      </trkpt>
      <trkpt lat="42.89513" lon="0.16153">
        <ele>2132</ele>
        <time>2018-04-14T06:13:03Z</time>
      </trkpt>
      <trkpt lat="42.89503" lon="0.16161">
        <ele>2135</ele>
        <time>2018-04-14T06:13:20Z</time>
      </trkpt>
      <trkpt lat="42.895" lon="0.16165">
        <ele>2137</ele>
        <time>2018-04-14T06:13:28Z</time>
      </trkpt>
      <trkpt lat="42.89489" lon="0.16171">
        <ele>2140</ele>
        <time>2018-04-14T06:13:44Z</time>
      </trkpt>
      <trkpt lat="42.89482" lon="0.16175">
        <ele>2142</ele>
        <time>2018-04-14T06:14:00Z</time>
      </trkpt>
      <trkpt lat="42.89474" lon="0.16176">
        <ele>2145</ele>
        <time>2018-04-14T06:14:11Z</time>
      </trkpt>
      <trkpt lat="42.89463" lon="0.16178">
        <ele>2147</ele>
        <time>2018-04-14T06:14:29Z</time>
      </trkpt>
      <trkpt lat="42.89452" lon="0.16183">
        <ele>2150</ele>
        <time>2018-04-14T06:14:44Z</time>
      </trkpt>
      <trkpt lat="42.89446" lon="0.16188">
        <ele>2153</ele>
        <time>2018-04-14T06:15:05Z</time>
      </trkpt>
      <trkpt lat="42.89439" lon="0.16194">
        <ele>2155</ele>
        <time>2018-04-14T06:15:20Z</time>
      </trkpt>
      <trkpt lat="42.89428" lon="0.16201">
        <ele>2158</ele>
        <time>2018-04-14T06:15:36Z</time>
      </trkpt>
      <trkpt lat="42.89418" lon="0.16205">
        <ele>2160</ele>
        <time>2018-04-14T06:15:50Z</time>
      </trkpt>
      <trkpt lat="42.89409" lon="0.16212">
        <ele>2161</ele>
        <time>2018-04-14T06:16:08Z</time>
      </trkpt>
      <trkpt lat="42.89401" lon="0.16219">
        <ele>2163</ele>
        <time>2018-04-14T06:16:22Z</time>
      </trkpt>
      <trkpt lat="42.89392" lon="0.16228">
        <ele>2165</ele>
        <time>2018-04-14T06:16:36Z</time>
      </trkpt>
      <trkpt lat="42.89382" lon="0.16234">
        <ele>2167</ele>
        <time>2018-04-14T06:16:52Z</time>
      </trkpt>
      <trkpt lat="42.89374" lon="0.16243">
        <ele>2169</ele>
        <time>2018-04-14T06:17:07Z</time>
      </trkpt>
      <trkpt lat="42.89364" lon="0.16245">
        <ele>2171</ele>
        <time>2018-04-14T06:17:25Z</time>
      </trkpt>
      <trkpt lat="42.89356" lon="0.16252">
        <ele>2174</ele>
        <time>2018-04-14T06:17:41Z</time>
      </trkpt>
      <trkpt lat="42.89349" lon="0.16259">
        <ele>2176</ele>
        <time>2018-04-14T06:17:53Z</time>
      </trkpt>
      <trkpt lat="42.89346" lon="0.16271">
        <ele>2178</ele>
        <time>2018-04-14T06:18:08Z</time>
      </trkpt>
      <trkpt lat="42.89345" lon="0.16282">
        <ele>2179</ele>
        <time>2018-04-14T06:18:21Z</time>
      </trkpt>
      <trkpt lat="42.89341" lon="0.16294">
        <ele>2181</ele>
        <time>2018-04-14T06:18:36Z</time>
      </trkpt>
      <trkpt lat="42.89338" lon="0.16307">
        <ele>2183</ele>
        <time>2018-04-14T06:18:53Z</time>
      </trkpt>
      <trkpt lat="42.89331" lon="0.16316">
        <ele>2186</ele>
        <time>2018-04-14T06:19:10Z</time>
      </trkpt>
      <trkpt lat="42.89318" lon="0.16323">
        <ele>2189</ele>
        <time>2018-04-14T06:19:29Z</time>
      </trkpt>
      <trkpt lat="42.89307" lon="0.16325">
        <ele>2192</ele>
        <time>2018-04-14T06:19:46Z</time>
      </trkpt>
      <trkpt lat="42.89295" lon="0.1633">
        <ele>2194</ele>
        <time>2018-04-14T06:20:05Z</time>
      </trkpt>
      <trkpt lat="42.89285" lon="0.16335">
        <ele>2197</ele>
        <time>2018-04-14T06:20:23Z</time>
      </trkpt>
      <trkpt lat="42.89277" lon="0.1634">
        <ele>2199</ele>
        <time>2018-04-14T06:20:38Z</time>
      </trkpt>
      <trkpt lat="42.89267" lon="0.16341">
        <ele>2202</ele>
        <time>2018-04-14T06:20:55Z</time>
      </trkpt>
      <trkpt lat="42.89257" lon="0.16341">
        <ele>2204</ele>
        <time>2018-04-14T06:21:09Z</time>
      </trkpt>
      <trkpt lat="42.89256" lon="0.16346">
        <ele>2207</ele>
        <time>2018-04-14T06:21:26Z</time>
      </trkpt>
      <trkpt lat="42.89247" lon="0.16366">
        <ele>2209</ele>
        <time>2018-04-14T06:21:44Z</time>
      </trkpt>
      <trkpt lat="42.89249" lon="0.1638">
        <ele>2212</ele>
        <time>2018-04-14T06:22:05Z</time>
      </trkpt>
      <trkpt lat="42.89238" lon="0.16392">
        <ele>2214</ele>
        <time>2018-04-14T06:22:18Z</time>
      </trkpt>
      <trkpt lat="42.89225" lon="0.16403">
        <ele>2216</ele>
        <time>2018-04-14T06:22:36Z</time>
      </trkpt>
      <trkpt lat="42.89217" lon="0.16409">
        <ele>2218</ele>
        <time>2018-04-14T06:22:56Z</time>
      </trkpt>
      <trkpt lat="42.89204" lon="0.1641">
        <ele>2220</ele>
        <time>2018-04-14T06:23:15Z</time>
      </trkpt>
      <trkpt lat="42.89197" lon="0.1641">
        <ele>2223</ele>
        <time>2018-04-14T06:23:29Z</time>
      </trkpt>
      <trkpt lat="42.89201" lon="0.16411">
        <ele>2224</ele>
        <time>2018-04-14T06:23:47Z</time>
      </trkpt>
      <trkpt lat="42.892" lon="0.16428">
        <ele>2227</ele>
        <time>2018-04-14T06:24:06Z</time>
      </trkpt>
      <trkpt lat="42.89197" lon="0.1644">
        <ele>2229</ele>
        <time>2018-04-14T06:24:22Z</time>
      </trkpt>
      <trkpt lat="42.8919" lon="0.16449">
        <ele>2231</ele>
        <time>2018-04-14T06:24:42Z</time>
      </trkpt>
      <trkpt lat="42.89177" lon="0.16449">
        <ele>2235</ele>
        <time>2018-04-14T06:25:03Z</time>
      </trkpt>
      <trkpt lat="42.89173" lon="0.1645">
        <ele>2236</ele>
        <time>2018-04-14T06:25:10Z</time>
      </trkpt>
      <trkpt lat="42.89165" lon="0.16459">
        <ele>2239</ele>
        <time>2018-04-14T06:25:32Z</time>
      </trkpt>
      <trkpt lat="42.89165" lon="0.16465">
        <ele>2240</ele>
        <time>2018-04-14T06:25:38Z</time>
      </trkpt>
      <trkpt lat="42.89162" lon="0.16478">
        <ele>2242</ele>
        <time>2018-04-14T06:25:52Z</time>
      </trkpt>
      <trkpt lat="42.89153" lon="0.16491">
        <ele>2245</ele>
        <time>2018-04-14T06:26:15Z</time>
      </trkpt>
      <trkpt lat="42.89151" lon="0.16483">
        <ele>2245</ele>
        <time>2018-04-14T06:26:30Z</time>
      </trkpt>
      <trkpt lat="42.89149" lon="0.16493">
        <ele>2246</ele>
        <time>2018-04-14T06:26:55Z</time>
      </trkpt>
      <trkpt lat="42.89145" lon="0.16499">
        <ele>2246</ele>
        <time>2018-04-14T06:27:03Z</time>
      </trkpt>
      <trkpt lat="42.89137" lon="0.16514">
        <ele>2248</ele>
        <time>2018-04-14T06:27:20Z</time>
      </trkpt>
      <trkpt lat="42.89136" lon="0.16529">
        <ele>2249</ele>
        <time>2018-04-14T06:27:34Z</time>
      </trkpt>
      <trkpt lat="42.89134" lon="0.16545">
        <ele>2251</ele>
        <time>2018-04-14T06:27:48Z</time>
      </trkpt>
      <trkpt lat="42.89134" lon="0.16562">
        <ele>2252</ele>
        <time>2018-04-14T06:28:05Z</time>
      </trkpt>
      <trkpt lat="42.89123" lon="0.16576">
        <ele>2254</ele>
        <time>2018-04-14T06:28:24Z</time>
      </trkpt>
      <trkpt lat="42.89113" lon="0.1658">
        <ele>2256</ele>
        <time>2018-04-14T06:28:36Z</time>
      </trkpt>
      <trkpt lat="42.89103" lon="0.16587">
        <ele>2258</ele>
        <time>2018-04-14T06:28:54Z</time>
      </trkpt>
      <trkpt lat="42.89106" lon="0.16597">
        <ele>2261</ele>
        <time>2018-04-14T06:29:08Z</time>
      </trkpt>
      <trkpt lat="42.89109" lon="0.1661">
        <ele>2264</ele>
        <time>2018-04-14T06:29:23Z</time>
      </trkpt>
      <trkpt lat="42.89111" lon="0.16622">
        <ele>2265</ele>
        <time>2018-04-14T06:29:36Z</time>
      </trkpt>
      <trkpt lat="42.89111" lon="0.16625">
        <ele>2265</ele>
        <time>2018-04-14T06:29:39Z</time>
      </trkpt>
      <trkpt lat="42.8911" lon="0.16637">
        <ele>2267</ele>
        <time>2018-04-14T06:29:54Z</time>
      </trkpt>
      <trkpt lat="42.89104" lon="0.16655">
        <ele>2270</ele>
        <time>2018-04-14T06:30:15Z</time>
      </trkpt>
      <trkpt lat="42.89099" lon="0.16654">
        <ele>2272</ele>
        <time>2018-04-14T06:30:30Z</time>
      </trkpt>
      <trkpt lat="42.89098" lon="0.16654">
        <ele>2272</ele>
        <time>2018-04-14T06:30:31Z</time>
      </trkpt>
      <trkpt lat="42.89083" lon="0.16657">
        <ele>2274</ele>
        <time>2018-04-14T06:30:47Z</time>
      </trkpt>
      <trkpt lat="42.89075" lon="0.16663">
        <ele>2277</ele>
        <time>2018-04-14T06:31:04Z</time>
      </trkpt>
      <trkpt lat="42.89067" lon="0.16666">
        <ele>2279</ele>
        <time>2018-04-14T06:31:23Z</time>
      </trkpt>
      <trkpt lat="42.89056" lon="0.16665">
        <ele>2283</ele>
        <time>2018-04-14T06:31:43Z</time>
      </trkpt>
      <trkpt lat="42.89044" lon="0.1666">
        <ele>2285</ele>
        <time>2018-04-14T06:32:01Z</time>
      </trkpt>
      <trkpt lat="42.89034" lon="0.16659">
        <ele>2288</ele>
        <time>2018-04-14T06:32:18Z</time>
      </trkpt>
      <trkpt lat="42.89027" lon="0.16655">
        <ele>2291</ele>
        <time>2018-04-14T06:32:34Z</time>
      </trkpt>
      <trkpt lat="42.89018" lon="0.16654">
        <ele>2292</ele>
        <time>2018-04-14T06:32:51Z</time>
      </trkpt>
      <trkpt lat="42.89011" lon="0.16654">
        <ele>2295</ele>
        <time>2018-04-14T06:33:06Z</time>
      </trkpt>
      <trkpt lat="42.88997" lon="0.16651">
        <ele>2298</ele>
        <time>2018-04-14T06:33:27Z</time>
      </trkpt>
      <trkpt lat="42.88983" lon="0.16647">
        <ele>2301</ele>
        <time>2018-04-14T06:33:48Z</time>
      </trkpt>
      <trkpt lat="42.88968" lon="0.16648">
        <ele>2303</ele>
        <time>2018-04-14T06:34:10Z</time>
      </trkpt>
      <trkpt lat="42.88955" lon="0.16648">
        <ele>2306</ele>
        <time>2018-04-14T06:34:29Z</time>
      </trkpt>
      <trkpt lat="42.88942" lon="0.16647">
        <ele>2308</ele>
        <time>2018-04-14T06:34:47Z</time>
      </trkpt>
      <trkpt lat="42.88933" lon="0.16648">
        <ele>2308</ele>
        <time>2018-04-14T06:34:56Z</time>
      </trkpt>
      <trkpt lat="42.88915" lon="0.16653">
        <ele>2309</ele>
        <time>2018-04-14T06:35:15Z</time>
      </trkpt>
      <trkpt lat="42.88912" lon="0.16654">
        <ele>2310</ele>
        <time>2018-04-14T06:35:30Z</time>
      </trkpt>
      <trkpt lat="42.88909" lon="0.16657">
        <ele>2310</ele>
        <time>2018-04-14T06:35:55Z</time>
      </trkpt>
      <trkpt lat="42.88911" lon="0.16655">
        <ele>2310</ele>
        <time>2018-04-14T06:36:17Z</time>
      </trkpt>
      <trkpt lat="42.88909" lon="0.16655">
        <ele>2310</ele>
        <time>2018-04-14T06:36:35Z</time>
      </trkpt>
      <trkpt lat="42.8891" lon="0.16656">
        <ele>2310</ele>
        <time>2018-04-14T06:37:02Z</time>
      </trkpt>
      <trkpt lat="42.88908" lon="0.16655">
        <ele>2310</ele>
        <time>2018-04-14T06:37:22Z</time>
      </trkpt>
      <trkpt lat="42.88909" lon="0.16655">
        <ele>2310</ele>
        <time>2018-04-14T06:37:44Z</time>
      </trkpt>
      <trkpt lat="42.88907" lon="0.16653">
        <ele>2309</ele>
        <time>2018-04-14T06:37:59Z</time>
      </trkpt>
      <trkpt lat="42.88909" lon="0.16653">
        <ele>2309</ele>
        <time>2018-04-14T06:38:21Z</time>
      </trkpt>
      <trkpt lat="42.88911" lon="0.16653">
        <ele>2310</ele>
        <time>2018-04-14T06:38:38Z</time>
      </trkpt>
      <trkpt lat="42.88914" lon="0.16656">
        <ele>2310</ele>
        <time>2018-04-14T06:38:52Z</time>
      </trkpt>
      <trkpt lat="42.88914" lon="0.16654">
        <ele>2310</ele>
        <time>2018-04-14T06:39:11Z</time>
      </trkpt>
      <trkpt lat="42.88913" lon="0.16655">
        <ele>2310</ele>
        <time>2018-04-14T06:39:34Z</time>
      </trkpt>
      <trkpt lat="42.88918" lon="0.16658">
        <ele>2310</ele>
        <time>2018-04-14T06:39:57Z</time>
      </trkpt>
      <trkpt lat="42.88913" lon="0.16656">
        <ele>2310</ele>
        <time>2018-04-14T06:40:18Z</time>
      </trkpt>
      <trkpt lat="42.88912" lon="0.16654">
        <ele>2310</ele>
        <time>2018-04-14T06:40:34Z</time>
      </trkpt>
      <trkpt lat="42.88911" lon="0.16653">
        <ele>2310</ele>
        <time>2018-04-14T06:40:56Z</time>
      </trkpt>
      <trkpt lat="42.88911" lon="0.16654">
        <ele>2310</ele>
        <time>2018-04-14T06:41:27Z</time>
      </trkpt>
      <trkpt lat="42.88908" lon="0.16655">
        <ele>2310</ele>
        <time>2018-04-14T06:41:46Z</time>
      </trkpt>
      <trkpt lat="42.8891" lon="0.16655">
        <ele>2310</ele>
        <time>2018-04-14T06:42:00Z</time>
      </trkpt>
      <trkpt lat="42.88909" lon="0.16659">
        <ele>2311</ele>
        <time>2018-04-14T06:42:25Z</time>
      </trkpt>
      <trkpt lat="42.88908" lon="0.16657">
        <ele>2310</ele>
        <time>2018-04-14T06:42:48Z</time>
      </trkpt>
      <trkpt lat="42.88909" lon="0.16659">
        <ele>2310</ele>
        <time>2018-04-14T06:43:18Z</time>
      </trkpt>
      <trkpt lat="42.88905" lon="0.1666">
        <ele>2312</ele>
        <time>2018-04-14T06:43:36Z</time>
      </trkpt>
      <trkpt lat="42.88896" lon="0.16665">
        <ele>2314</ele>
        <time>2018-04-14T06:43:51Z</time>
      </trkpt>
      <trkpt lat="42.88889" lon="0.16669">
        <ele>2316</ele>
        <time>2018-04-14T06:44:05Z</time>
      </trkpt>
      <trkpt lat="42.88885" lon="0.16673">
        <ele>2317</ele>
        <time>2018-04-14T06:44:13Z</time>
      </trkpt>
      <trkpt lat="42.88875" lon="0.16681">
        <ele>2319</ele>
        <time>2018-04-14T06:44:30Z</time>
      </trkpt>
      <trkpt lat="42.88867" lon="0.16688">
        <ele>2321</ele>
        <time>2018-04-14T06:44:48Z</time>
      </trkpt>
      <trkpt lat="42.88864" lon="0.16693">
        <ele>2322</ele>
        <time>2018-04-14T06:45:03Z</time>
      </trkpt>
      <trkpt lat="42.88855" lon="0.16701">
        <ele>2324</ele>
        <time>2018-04-14T06:45:18Z</time>
      </trkpt>
      <trkpt lat="42.88847" lon="0.16706">
        <ele>2326</ele>
        <time>2018-04-14T06:45:33Z</time>
      </trkpt>
      <trkpt lat="42.88844" lon="0.16712">
        <ele>2327</ele>
        <time>2018-04-14T06:45:48Z</time>
      </trkpt>
      <trkpt lat="42.88834" lon="0.1672">
        <ele>2329</ele>
        <time>2018-04-14T06:46:04Z</time>
      </trkpt>
      <trkpt lat="42.88827" lon="0.16724">
        <ele>2331</ele>
        <time>2018-04-14T06:46:20Z</time>
      </trkpt>
      <trkpt lat="42.8882" lon="0.1673">
        <ele>2333</ele>
        <time>2018-04-14T06:46:36Z</time>
      </trkpt>
      <trkpt lat="42.88817" lon="0.16734">
        <ele>2336</ele>
        <time>2018-04-14T06:46:51Z</time>
      </trkpt>
      <trkpt lat="42.8881" lon="0.16739">
        <ele>2338</ele>
        <time>2018-04-14T06:47:06Z</time>
      </trkpt>
      <trkpt lat="42.88804" lon="0.16743">
        <ele>2339</ele>
        <time>2018-04-14T06:47:19Z</time>
      </trkpt>
      <trkpt lat="42.88799" lon="0.16747">
        <ele>2341</ele>
        <time>2018-04-14T06:47:36Z</time>
      </trkpt>
      <trkpt lat="42.88792" lon="0.16755">
        <ele>2343</ele>
        <time>2018-04-14T06:47:52Z</time>
      </trkpt>
      <trkpt lat="42.88784" lon="0.16764">
        <ele>2346</ele>
        <time>2018-04-14T06:48:09Z</time>
      </trkpt>
      <trkpt lat="42.88781" lon="0.16769">
        <ele>2347</ele>
        <time>2018-04-14T06:48:26Z</time>
      </trkpt>
      <trkpt lat="42.88774" lon="0.16774">
        <ele>2349</ele>
        <time>2018-04-14T06:48:41Z</time>
      </trkpt>
      <trkpt lat="42.88769" lon="0.16783">
        <ele>2351</ele>
        <time>2018-04-14T06:48:57Z</time>
      </trkpt>
      <trkpt lat="42.88767" lon="0.16786">
        <ele>2352</ele>
        <time>2018-04-14T06:49:11Z</time>
      </trkpt>
      <trkpt lat="42.8876" lon="0.16794">
        <ele>2354</ele>
        <time>2018-04-14T06:49:29Z</time>
      </trkpt>
      <trkpt lat="42.88753" lon="0.16802">
        <ele>2357</ele>
        <time>2018-04-14T06:49:44Z</time>
      </trkpt>
      <trkpt lat="42.88751" lon="0.16807">
        <ele>2359</ele>
        <time>2018-04-14T06:50:01Z</time>
      </trkpt>
      <trkpt lat="42.88748" lon="0.16817">
        <ele>2361</ele>
        <time>2018-04-14T06:50:19Z</time>
      </trkpt>
      <trkpt lat="42.8875" lon="0.16818">
        <ele>2361</ele>
        <time>2018-04-14T06:50:40Z</time>
      </trkpt>
      <trkpt lat="42.88747" lon="0.16827">
        <ele>2363</ele>
        <time>2018-04-14T06:51:01Z</time>
      </trkpt>
      <trkpt lat="42.88744" lon="0.16836">
        <ele>2363</ele>
        <time>2018-04-14T06:51:16Z</time>
      </trkpt>
      <trkpt lat="42.88742" lon="0.16845">
        <ele>2365</ele>
        <time>2018-04-14T06:51:34Z</time>
      </trkpt>
      <trkpt lat="42.88739" lon="0.16856">
        <ele>2366</ele>
        <time>2018-04-14T06:51:48Z</time>
      </trkpt>
      <trkpt lat="42.88738" lon="0.16866">
        <ele>2368</ele>
        <time>2018-04-14T06:52:00Z</time>
      </trkpt>
      <trkpt lat="42.88737" lon="0.16875">
        <ele>2369</ele>
        <time>2018-04-14T06:52:13Z</time>
      </trkpt>
      <trkpt lat="42.88735" lon="0.16886">
        <ele>2371</ele>
        <time>2018-04-14T06:52:27Z</time>
      </trkpt>
      <trkpt lat="42.88736" lon="0.16901">
        <ele>2373</ele>
        <time>2018-04-14T06:52:42Z</time>
      </trkpt>
      <trkpt lat="42.88739" lon="0.1691">
        <ele>2375</ele>
        <time>2018-04-14T06:52:56Z</time>
      </trkpt>
      <trkpt lat="42.88741" lon="0.16915">
        <ele>2376</ele>
        <time>2018-04-14T06:53:10Z</time>
      </trkpt>
      <trkpt lat="42.88744" lon="0.16925">
        <ele>2378</ele>
        <time>2018-04-14T06:53:25Z</time>
      </trkpt>
      <trkpt lat="42.88748" lon="0.16934">
        <ele>2379</ele>
        <time>2018-04-14T06:53:39Z</time>
      </trkpt>
      <trkpt lat="42.88752" lon="0.16935">
        <ele>2380</ele>
        <time>2018-04-14T06:53:56Z</time>
      </trkpt>
      <trkpt lat="42.88749" lon="0.16943">
        <ele>2382</ele>
        <time>2018-04-14T06:54:09Z</time>
      </trkpt>
      <trkpt lat="42.8874" lon="0.16947">
        <ele>2384</ele>
        <time>2018-04-14T06:54:27Z</time>
      </trkpt>
      <trkpt lat="42.8873" lon="0.16952">
        <ele>2386</ele>
        <time>2018-04-14T06:54:46Z</time>
      </trkpt>
      <trkpt lat="42.88724" lon="0.16953">
        <ele>2388</ele>
        <time>2018-04-14T06:55:02Z</time>
      </trkpt>
      <trkpt lat="42.88721" lon="0.16957">
        <ele>2390</ele>
        <time>2018-04-14T06:55:20Z</time>
      </trkpt>
      <trkpt lat="42.88724" lon="0.16964">
        <ele>2392</ele>
        <time>2018-04-14T06:55:34Z</time>
      </trkpt>
      <trkpt lat="42.8873" lon="0.1697">
        <ele>2393</ele>
        <time>2018-04-14T06:55:49Z</time>
      </trkpt>
      <trkpt lat="42.88735" lon="0.16976">
        <ele>2396</ele>
        <time>2018-04-14T06:56:05Z</time>
      </trkpt>
      <trkpt lat="42.88741" lon="0.16982">
        <ele>2397</ele>
        <time>2018-04-14T06:56:20Z</time>
      </trkpt>
      <trkpt lat="42.8874" lon="0.1699">
        <ele>2400</ele>
        <time>2018-04-14T06:56:33Z</time>
      </trkpt>
      <trkpt lat="42.88733" lon="0.16998">
        <ele>2401</ele>
        <time>2018-04-14T06:56:50Z</time>
      </trkpt>
      <trkpt lat="42.8873" lon="0.17">
        <ele>2402</ele>
        <time>2018-04-14T06:56:55Z</time>
      </trkpt>
      <trkpt lat="42.88723" lon="0.17003">
        <ele>2404</ele>
        <time>2018-04-14T06:57:13Z</time>
      </trkpt>
      <trkpt lat="42.88725" lon="0.17006">
        <ele>2406</ele>
        <time>2018-04-14T06:57:30Z</time>
      </trkpt>
      <trkpt lat="42.88729" lon="0.17014">
        <ele>2408</ele>
        <time>2018-04-14T06:57:46Z</time>
      </trkpt>
      <trkpt lat="42.88735" lon="0.17024">
        <ele>2410</ele>
        <time>2018-04-14T06:58:04Z</time>
      </trkpt>
      <trkpt lat="42.88736" lon="0.17033">
        <ele>2413</ele>
        <time>2018-04-14T06:58:19Z</time>
      </trkpt>
      <trkpt lat="42.88733" lon="0.17045">
        <ele>2414</ele>
        <time>2018-04-14T06:58:35Z</time>
      </trkpt>
      <trkpt lat="42.88738" lon="0.17051">
        <ele>2416</ele>
        <time>2018-04-14T06:58:51Z</time>
      </trkpt>
      <trkpt lat="42.88743" lon="0.17054">
        <ele>2417</ele>
        <time>2018-04-14T06:59:05Z</time>
      </trkpt>
      <trkpt lat="42.8875" lon="0.17054">
        <ele>2420</ele>
        <time>2018-04-14T06:59:23Z</time>
      </trkpt>
      <trkpt lat="42.8876" lon="0.17055">
        <ele>2423</ele>
        <time>2018-04-14T06:59:43Z</time>
      </trkpt>
      <trkpt lat="42.88767" lon="0.17062">
        <ele>2424</ele>
        <time>2018-04-14T06:59:59Z</time>
      </trkpt>
      <trkpt lat="42.88769" lon="0.17073">
        <ele>2426</ele>
        <time>2018-04-14T07:00:15Z</time>
      </trkpt>
      <trkpt lat="42.88774" lon="0.17088">
        <ele>2427</ele>
        <time>2018-04-14T07:00:32Z</time>
      </trkpt>
      <trkpt lat="42.88769" lon="0.17095">
        <ele>2430</ele>
        <time>2018-04-14T07:00:50Z</time>
      </trkpt>
      <trkpt lat="42.88768" lon="0.17107">
        <ele>2432</ele>
        <time>2018-04-14T07:01:09Z</time>
      </trkpt>
      <trkpt lat="42.88771" lon="0.17117">
        <ele>2435</ele>
        <time>2018-04-14T07:01:25Z</time>
      </trkpt>
      <trkpt lat="42.8877" lon="0.17119">
        <ele>2436</ele>
        <time>2018-04-14T07:01:34Z</time>
      </trkpt>
      <trkpt lat="42.8877" lon="0.17125">
        <ele>2438</ele>
        <time>2018-04-14T07:01:53Z</time>
      </trkpt>
      <trkpt lat="42.88774" lon="0.17137">
        <ele>2440</ele>
        <time>2018-04-14T07:02:10Z</time>
      </trkpt>
      <trkpt lat="42.88774" lon="0.17147">
        <ele>2441</ele>
        <time>2018-04-14T07:02:26Z</time>
      </trkpt>
      <trkpt lat="42.8876" lon="0.17149">
        <ele>2443</ele>
        <time>2018-04-14T07:02:41Z</time>
      </trkpt>
      <trkpt lat="42.88756" lon="0.17148">
        <ele>2444</ele>
        <time>2018-04-14T07:03:01Z</time>
      </trkpt>
      <trkpt lat="42.88748" lon="0.17151">
        <ele>2446</ele>
        <time>2018-04-14T07:03:18Z</time>
      </trkpt>
      <trkpt lat="42.88752" lon="0.17164">
        <ele>2449</ele>
        <time>2018-04-14T07:03:36Z</time>
      </trkpt>
      <trkpt lat="42.88757" lon="0.17172">
        <ele>2451</ele>
        <time>2018-04-14T07:03:54Z</time>
      </trkpt>
      <trkpt lat="42.88757" lon="0.1718">
        <ele>2452</ele>
        <time>2018-04-14T07:04:09Z</time>
      </trkpt>
      <trkpt lat="42.88744" lon="0.17183">
        <ele>2454</ele>
        <time>2018-04-14T07:04:28Z</time>
      </trkpt>
      <trkpt lat="42.88734" lon="0.17183">
        <ele>2456</ele>
        <time>2018-04-14T07:04:45Z</time>
      </trkpt>
      <trkpt lat="42.88729" lon="0.17185">
        <ele>2459</ele>
        <time>2018-04-14T07:05:03Z</time>
      </trkpt>
      <trkpt lat="42.88735" lon="0.17194">
        <ele>2460</ele>
        <time>2018-04-14T07:05:20Z</time>
      </trkpt>
      <trkpt lat="42.88737" lon="0.17203">
        <ele>2462</ele>
        <time>2018-04-14T07:05:36Z</time>
      </trkpt>
      <trkpt lat="42.88726" lon="0.17208">
        <ele>2463</ele>
        <time>2018-04-14T07:05:54Z</time>
      </trkpt>
      <trkpt lat="42.88716" lon="0.17213">
        <ele>2465</ele>
        <time>2018-04-14T07:06:13Z</time>
      </trkpt>
      <trkpt lat="42.88707" lon="0.17214">
        <ele>2467</ele>
        <time>2018-04-14T07:06:31Z</time>
      </trkpt>
      <trkpt lat="42.88699" lon="0.17217">
        <ele>2470</ele>
        <time>2018-04-14T07:06:49Z</time>
      </trkpt>
      <trkpt lat="42.88691" lon="0.1722">
        <ele>2472</ele>
        <time>2018-04-14T07:07:05Z</time>
      </trkpt>
      <trkpt lat="42.88686" lon="0.17222">
        <ele>2474</ele>
        <time>2018-04-14T07:07:23Z</time>
      </trkpt>
      <trkpt lat="42.88677" lon="0.17226">
        <ele>2476</ele>
        <time>2018-04-14T07:07:40Z</time>
      </trkpt>
      <trkpt lat="42.88684" lon="0.17228">
        <ele>2477</ele>
        <time>2018-04-14T07:07:55Z</time>
      </trkpt>
      <trkpt lat="42.8869" lon="0.17236">
        <ele>2480</ele>
        <time>2018-04-14T07:08:14Z</time>
      </trkpt>
      <trkpt lat="42.88696" lon="0.17243">
        <ele>2482</ele>
        <time>2018-04-14T07:08:31Z</time>
      </trkpt>
      <trkpt lat="42.88703" lon="0.17255">
        <ele>2483</ele>
        <time>2018-04-14T07:08:49Z</time>
      </trkpt>
      <trkpt lat="42.88707" lon="0.17265">
        <ele>2486</ele>
        <time>2018-04-14T07:09:09Z</time>
      </trkpt>
      <trkpt lat="42.88709" lon="0.17271">
        <ele>2487</ele>
        <time>2018-04-14T07:09:26Z</time>
      </trkpt>
      <trkpt lat="42.88702" lon="0.17271">
        <ele>2488</ele>
        <time>2018-04-14T07:09:38Z</time>
      </trkpt>
      <trkpt lat="42.8869" lon="0.17267">
        <ele>2489</ele>
        <time>2018-04-14T07:09:55Z</time>
      </trkpt>
      <trkpt lat="42.88684" lon="0.17266">
        <ele>2491</ele>
        <time>2018-04-14T07:10:10Z</time>
      </trkpt>
      <trkpt lat="42.88678" lon="0.17267">
        <ele>2492</ele>
        <time>2018-04-14T07:10:27Z</time>
      </trkpt>
      <trkpt lat="42.88669" lon="0.17268">
        <ele>2494</ele>
        <time>2018-04-14T07:10:44Z</time>
      </trkpt>
      <trkpt lat="42.88666" lon="0.17268">
        <ele>2495</ele>
        <time>2018-04-14T07:11:03Z</time>
      </trkpt>
      <trkpt lat="42.88675" lon="0.17274">
        <ele>2497</ele>
        <time>2018-04-14T07:11:20Z</time>
      </trkpt>
      <trkpt lat="42.88682" lon="0.17282">
        <ele>2499</ele>
        <time>2018-04-14T07:11:38Z</time>
      </trkpt>
      <trkpt lat="42.88688" lon="0.17288">
        <ele>2501</ele>
        <time>2018-04-14T07:11:54Z</time>
      </trkpt>
      <trkpt lat="42.88688" lon="0.17292">
        <ele>2501</ele>
        <time>2018-04-14T07:12:19Z</time>
      </trkpt>
      <trkpt lat="42.88678" lon="0.17292">
        <ele>2502</ele>
        <time>2018-04-14T07:12:33Z</time>
      </trkpt>
      <trkpt lat="42.88668" lon="0.17292">
        <ele>2504</ele>
        <time>2018-04-14T07:12:50Z</time>
      </trkpt>
      <trkpt lat="42.88661" lon="0.17293">
        <ele>2505</ele>
        <time>2018-04-14T07:13:05Z</time>
      </trkpt>
      <trkpt lat="42.88652" lon="0.1729">
        <ele>2507</ele>
        <time>2018-04-14T07:13:21Z</time>
      </trkpt>
      <trkpt lat="42.88653" lon="0.17288">
        <ele>2507</ele>
        <time>2018-04-14T07:13:38Z</time>
      </trkpt>
      <trkpt lat="42.8866" lon="0.17293">
        <ele>2510</ele>
        <time>2018-04-14T07:13:52Z</time>
      </trkpt>
      <trkpt lat="42.88672" lon="0.17304">
        <ele>2511</ele>
        <time>2018-04-14T07:14:10Z</time>
      </trkpt>
      <trkpt lat="42.88678" lon="0.17312">
        <ele>2514</ele>
        <time>2018-04-14T07:14:27Z</time>
      </trkpt>
      <trkpt lat="42.88684" lon="0.17317">
        <ele>2513</ele>
        <time>2018-04-14T07:14:48Z</time>
      </trkpt>
      <trkpt lat="42.88685" lon="0.17323">
        <ele>2515</ele>
        <time>2018-04-14T07:15:05Z</time>
      </trkpt>
      <trkpt lat="42.88667" lon="0.17325">
        <ele>2517</ele>
        <time>2018-04-14T07:15:24Z</time>
      </trkpt>
      <trkpt lat="42.88655" lon="0.17325">
        <ele>2519</ele>
        <time>2018-04-14T07:15:41Z</time>
      </trkpt>
      <trkpt lat="42.88648" lon="0.17321">
        <ele>2520</ele>
        <time>2018-04-14T07:15:57Z</time>
      </trkpt>
      <trkpt lat="42.88649" lon="0.1732">
        <ele>2521</ele>
        <time>2018-04-14T07:16:14Z</time>
      </trkpt>
      <trkpt lat="42.88659" lon="0.17328">
        <ele>2524</ele>
        <time>2018-04-14T07:16:30Z</time>
      </trkpt>
      <trkpt lat="42.88665" lon="0.17338">
        <ele>2526</ele>
        <time>2018-04-14T07:16:47Z</time>
      </trkpt>
      <trkpt lat="42.88672" lon="0.17345">
        <ele>2527</ele>
        <time>2018-04-14T07:17:05Z</time>
      </trkpt>
      <trkpt lat="42.88677" lon="0.17351">
        <ele>2529</ele>
        <time>2018-04-14T07:17:20Z</time>
      </trkpt>
      <trkpt lat="42.88679" lon="0.17353">
        <ele>2530</ele>
        <time>2018-04-14T07:17:26Z</time>
      </trkpt>
      <trkpt lat="42.88679" lon="0.17358">
        <ele>2530</ele>
        <time>2018-04-14T07:17:45Z</time>
      </trkpt>
      <trkpt lat="42.88664" lon="0.17363">
        <ele>2532</ele>
        <time>2018-04-14T07:18:04Z</time>
      </trkpt>
      <trkpt lat="42.88655" lon="0.17364">
        <ele>2534</ele>
        <time>2018-04-14T07:18:24Z</time>
      </trkpt>
      <trkpt lat="42.88647" lon="0.17365">
        <ele>2535</ele>
        <time>2018-04-14T07:18:41Z</time>
      </trkpt>
      <trkpt lat="42.88639" lon="0.1736">
        <ele>2537</ele>
        <time>2018-04-14T07:18:57Z</time>
      </trkpt>
      <trkpt lat="42.88632" lon="0.17355">
        <ele>2538</ele>
        <time>2018-04-14T07:19:15Z</time>
      </trkpt>
      <trkpt lat="42.88631" lon="0.17351">
        <ele>2539</ele>
        <time>2018-04-14T07:19:31Z</time>
      </trkpt>
      <trkpt lat="42.88637" lon="0.17353">
        <ele>2540</ele>
        <time>2018-04-14T07:19:44Z</time>
      </trkpt>
      <trkpt lat="42.88645" lon="0.17367">
        <ele>2542</ele>
        <time>2018-04-14T07:20:01Z</time>
      </trkpt>
      <trkpt lat="42.8865" lon="0.17376">
        <ele>2543</ele>
        <time>2018-04-14T07:20:16Z</time>
      </trkpt>
      <trkpt lat="42.88643" lon="0.17377">
        <ele>2544</ele>
        <time>2018-04-14T07:20:33Z</time>
      </trkpt>
      <trkpt lat="42.8863" lon="0.17375">
        <ele>2547</ele>
        <time>2018-04-14T07:20:52Z</time>
      </trkpt>
      <trkpt lat="42.88624" lon="0.17368">
        <ele>2549</ele>
        <time>2018-04-14T07:21:08Z</time>
      </trkpt>
      <trkpt lat="42.88618" lon="0.17363">
        <ele>2551</ele>
        <time>2018-04-14T07:21:25Z</time>
      </trkpt>
      <trkpt lat="42.88615" lon="0.17357">
        <ele>2552</ele>
        <time>2018-04-14T07:21:41Z</time>
      </trkpt>
      <trkpt lat="42.88609" lon="0.17355">
        <ele>2554</ele>
        <time>2018-04-14T07:22:02Z</time>
      </trkpt>
      <trkpt lat="42.886" lon="0.17359">
        <ele>2556</ele>
        <time>2018-04-14T07:22:22Z</time>
      </trkpt>
      <trkpt lat="42.88596" lon="0.17365">
        <ele>2557</ele>
        <time>2018-04-14T07:22:38Z</time>
      </trkpt>
      <trkpt lat="42.88597" lon="0.17373">
        <ele>2559</ele>
        <time>2018-04-14T07:22:51Z</time>
      </trkpt>
      <trkpt lat="42.88584" lon="0.17382">
        <ele>2560</ele>
        <time>2018-04-14T07:23:08Z</time>
      </trkpt>
      <trkpt lat="42.88575" lon="0.17383">
        <ele>2563</ele>
        <time>2018-04-14T07:23:25Z</time>
      </trkpt>
      <trkpt lat="42.88569" lon="0.17382">
        <ele>2563</ele>
        <time>2018-04-14T07:23:40Z</time>
      </trkpt>
      <trkpt lat="42.88562" lon="0.17383">
        <ele>2565</ele>
        <time>2018-04-14T07:23:56Z</time>
      </trkpt>
      <trkpt lat="42.88556" lon="0.17382">
        <ele>2567</ele>
        <time>2018-04-14T07:24:10Z</time>
      </trkpt>
      <trkpt lat="42.88554" lon="0.17379">
        <ele>2569</ele>
        <time>2018-04-14T07:24:27Z</time>
      </trkpt>
      <trkpt lat="42.8856" lon="0.17387">
        <ele>2569</ele>
        <time>2018-04-14T07:24:40Z</time>
      </trkpt>
      <trkpt lat="42.88566" lon="0.17398">
        <ele>2572</ele>
        <time>2018-04-14T07:24:58Z</time>
      </trkpt>
      <trkpt lat="42.88569" lon="0.17408">
        <ele>2573</ele>
        <time>2018-04-14T07:25:16Z</time>
      </trkpt>
      <trkpt lat="42.88578" lon="0.17418">
        <ele>2575</ele>
        <time>2018-04-14T07:25:35Z</time>
      </trkpt>
      <trkpt lat="42.8858" lon="0.17421">
        <ele>2576</ele>
        <time>2018-04-14T07:25:52Z</time>
      </trkpt>
      <trkpt lat="42.88571" lon="0.17423">
        <ele>2577</ele>
        <time>2018-04-14T07:26:04Z</time>
      </trkpt>
      <trkpt lat="42.88563" lon="0.17424">
        <ele>2579</ele>
        <time>2018-04-14T07:26:18Z</time>
      </trkpt>
      <trkpt lat="42.88555" lon="0.1742">
        <ele>2581</ele>
        <time>2018-04-14T07:26:34Z</time>
      </trkpt>
      <trkpt lat="42.88551" lon="0.17417">
        <ele>2582</ele>
        <time>2018-04-14T07:26:50Z</time>
      </trkpt>
      <trkpt lat="42.88553" lon="0.17417">
        <ele>2583</ele>
        <time>2018-04-14T07:27:05Z</time>
      </trkpt>
      <trkpt lat="42.88561" lon="0.17429">
        <ele>2585</ele>
        <time>2018-04-14T07:27:25Z</time>
      </trkpt>
      <trkpt lat="42.8857" lon="0.17437">
        <ele>2587</ele>
        <time>2018-04-14T07:27:44Z</time>
      </trkpt>
      <trkpt lat="42.88571" lon="0.17441">
        <ele>2588</ele>
        <time>2018-04-14T07:27:58Z</time>
      </trkpt>
      <trkpt lat="42.88575" lon="0.17445">
        <ele>2588</ele>
        <time>2018-04-14T07:28:16Z</time>
      </trkpt>
      <trkpt lat="42.88574" lon="0.17446">
        <ele>2589</ele>
        <time>2018-04-14T07:28:19Z</time>
      </trkpt>
      <trkpt lat="42.88565" lon="0.17447">
        <ele>2590</ele>
        <time>2018-04-14T07:28:33Z</time>
      </trkpt>
      <trkpt lat="42.8855" lon="0.17449">
        <ele>2592</ele>
        <time>2018-04-14T07:28:54Z</time>
      </trkpt>
      <trkpt lat="42.88546" lon="0.17446">
        <ele>2593</ele>
        <time>2018-04-14T07:29:11Z</time>
      </trkpt>
      <trkpt lat="42.88546" lon="0.17446">
        <ele>2595</ele>
        <time>2018-04-14T07:29:33Z</time>
      </trkpt>
      <trkpt lat="42.88555" lon="0.17451">
        <ele>2596</ele>
        <time>2018-04-14T07:29:47Z</time>
      </trkpt>
      <trkpt lat="42.88565" lon="0.17459">
        <ele>2598</ele>
        <time>2018-04-14T07:30:09Z</time>
      </trkpt>
      <trkpt lat="42.88557" lon="0.17465">
        <ele>2600</ele>
        <time>2018-04-14T07:30:29Z</time>
      </trkpt>
      <trkpt lat="42.88549" lon="0.17463">
        <ele>2600</ele>
        <time>2018-04-14T07:30:45Z</time>
      </trkpt>
      <trkpt lat="42.88554" lon="0.17465">
        <ele>2602</ele>
        <time>2018-04-14T07:31:03Z</time>
      </trkpt>
      <trkpt lat="42.88554" lon="0.17462">
        <ele>2602</ele>
        <time>2018-04-14T07:31:23Z</time>
      </trkpt>
      <trkpt lat="42.88563" lon="0.17466">
        <ele>2603</ele>
        <time>2018-04-14T07:31:37Z</time>
      </trkpt>
      <trkpt lat="42.88566" lon="0.17471">
        <ele>2604</ele>
        <time>2018-04-14T07:31:53Z</time>
      </trkpt>
      <trkpt lat="42.88555" lon="0.17473">
        <ele>2605</ele>
        <time>2018-04-14T07:32:08Z</time>
      </trkpt>
      <trkpt lat="42.88544" lon="0.17473">
        <ele>2607</ele>
        <time>2018-04-14T07:32:23Z</time>
      </trkpt>
      <trkpt lat="42.8855" lon="0.17471">
        <ele>2608</ele>
        <time>2018-04-14T07:32:36Z</time>
      </trkpt>
      <trkpt lat="42.88558" lon="0.17477">
        <ele>2609</ele>
        <time>2018-04-14T07:32:52Z</time>
      </trkpt>
      <trkpt lat="42.88562" lon="0.17481">
        <ele>2610</ele>
        <time>2018-04-14T07:33:07Z</time>
      </trkpt>
      <trkpt lat="42.88554" lon="0.17488">
        <ele>2612</ele>
        <time>2018-04-14T07:33:23Z</time>
      </trkpt>
      <trkpt lat="42.88554" lon="0.17486">
        <ele>2612</ele>
        <time>2018-04-14T07:33:38Z</time>
      </trkpt>
      <trkpt lat="42.88557" lon="0.17484">
        <ele>2613</ele>
        <time>2018-04-14T07:33:55Z</time>
      </trkpt>
      <trkpt lat="42.88561" lon="0.17489">
        <ele>2614</ele>
        <time>2018-04-14T07:34:13Z</time>
      </trkpt>
      <trkpt lat="42.88554" lon="0.17495">
        <ele>2615</ele>
        <time>2018-04-14T07:34:29Z</time>
      </trkpt>
      <trkpt lat="42.88547" lon="0.17493">
        <ele>2616</ele>
        <time>2018-04-14T07:34:45Z</time>
      </trkpt>
      <trkpt lat="42.88546" lon="0.17491">
        <ele>2617</ele>
        <time>2018-04-14T07:35:04Z</time>
      </trkpt>
      <trkpt lat="42.88553" lon="0.17494">
        <ele>2619</ele>
        <time>2018-04-14T07:35:20Z</time>
      </trkpt>
      <trkpt lat="42.88559" lon="0.17496">
        <ele>2620</ele>
        <time>2018-04-14T07:35:40Z</time>
      </trkpt>
      <trkpt lat="42.88562" lon="0.17501">
        <ele>2620</ele>
        <time>2018-04-14T07:35:55Z</time>
      </trkpt>
      <trkpt lat="42.88553" lon="0.17505">
        <ele>2624</ele>
        <time>2018-04-14T07:36:06Z</time>
      </trkpt>
      <trkpt lat="42.88554" lon="0.17501">
        <ele>2624</ele>
        <time>2018-04-14T07:36:25Z</time>
      </trkpt>
      <trkpt lat="42.88552" lon="0.17503">
        <ele>2624</ele>
        <time>2018-04-14T07:36:42Z</time>
      </trkpt>
      <trkpt lat="42.88555" lon="0.17507">
        <ele>2626</ele>
        <time>2018-04-14T07:36:55Z</time>
      </trkpt>
      <trkpt lat="42.88559" lon="0.1751">
        <ele>2627</ele>
        <time>2018-04-14T07:37:15Z</time>
      </trkpt>
      <trkpt lat="42.8856" lon="0.17513">
        <ele>2628</ele>
        <time>2018-04-14T07:37:32Z</time>
      </trkpt>
      <trkpt lat="42.88551" lon="0.17517">
        <ele>2630</ele>
        <time>2018-04-14T07:37:49Z</time>
      </trkpt>
      <trkpt lat="42.88549" lon="0.17517">
        <ele>2632</ele>
        <time>2018-04-14T07:38:07Z</time>
      </trkpt>
      <trkpt lat="42.8855" lon="0.17518">
        <ele>2634</ele>
        <time>2018-04-14T07:38:25Z</time>
      </trkpt>
      <trkpt lat="42.88552" lon="0.1752">
        <ele>2635</ele>
        <time>2018-04-14T07:38:42Z</time>
      </trkpt>
      <trkpt lat="42.88543" lon="0.17525">
        <ele>2637</ele>
        <time>2018-04-14T07:38:59Z</time>
      </trkpt>
      <trkpt lat="42.88543" lon="0.17524">
        <ele>2638</ele>
        <time>2018-04-14T07:39:19Z</time>
      </trkpt>
      <trkpt lat="42.88548" lon="0.17526">
        <ele>2639</ele>
        <time>2018-04-14T07:39:33Z</time>
      </trkpt>
      <trkpt lat="42.8855" lon="0.17524">
        <ele>2641</ele>
        <time>2018-04-14T07:39:50Z</time>
      </trkpt>
      <trkpt lat="42.88551" lon="0.17531">
        <ele>2641</ele>
        <time>2018-04-14T07:40:12Z</time>
      </trkpt>
      <trkpt lat="42.88539" lon="0.17533">
        <ele>2643</ele>
        <time>2018-04-14T07:40:29Z</time>
      </trkpt>
      <trkpt lat="42.8854" lon="0.17533">
        <ele>2644</ele>
        <time>2018-04-14T07:40:50Z</time>
      </trkpt>
      <trkpt lat="42.88547" lon="0.17535">
        <ele>2646</ele>
        <time>2018-04-14T07:41:03Z</time>
      </trkpt>
      <trkpt lat="42.88548" lon="0.17536">
        <ele>2647</ele>
        <time>2018-04-14T07:41:18Z</time>
      </trkpt>
      <trkpt lat="42.88549" lon="0.17535">
        <ele>2647</ele>
        <time>2018-04-14T07:41:40Z</time>
      </trkpt>
      <trkpt lat="42.88551" lon="0.17537">
        <ele>2648</ele>
        <time>2018-04-14T07:41:53Z</time>
      </trkpt>
      <trkpt lat="42.88542" lon="0.17543">
        <ele>2650</ele>
        <time>2018-04-14T07:42:09Z</time>
      </trkpt>
      <trkpt lat="42.88532" lon="0.17545">
        <ele>2650</ele>
        <time>2018-04-14T07:42:32Z</time>
      </trkpt>
      <trkpt lat="42.88536" lon="0.17544">
        <ele>2650</ele>
        <time>2018-04-14T07:42:48Z</time>
      </trkpt>
      <trkpt lat="42.8854" lon="0.17544">
        <ele>2651</ele>
        <time>2018-04-14T07:43:09Z</time>
      </trkpt>
      <trkpt lat="42.88536" lon="0.17546">
        <ele>2653</ele>
        <time>2018-04-14T07:43:26Z</time>
      </trkpt>
      <trkpt lat="42.88536" lon="0.17544">
        <ele>2653</ele>
        <time>2018-04-14T07:43:42Z</time>
      </trkpt>
      <trkpt lat="42.88539" lon="0.17545">
        <ele>2654</ele>
        <time>2018-04-14T07:44:03Z</time>
      </trkpt>
      <trkpt lat="42.88542" lon="0.17548">
        <ele>2654</ele>
        <time>2018-04-14T07:44:20Z</time>
      </trkpt>
      <trkpt lat="42.88542" lon="0.1755">
        <ele>2656</ele>
        <time>2018-04-14T07:44:40Z</time>
      </trkpt>
      <trkpt lat="42.88541" lon="0.17551">
        <ele>2656</ele>
        <time>2018-04-14T07:45:03Z</time>
      </trkpt>
      <trkpt lat="42.88531" lon="0.17555">
        <ele>2657</ele>
        <time>2018-04-14T07:45:19Z</time>
      </trkpt>
      <trkpt lat="42.88536" lon="0.17553">
        <ele>2658</ele>
        <time>2018-04-14T07:45:42Z</time>
      </trkpt>
      <trkpt lat="42.8854" lon="0.17552">
        <ele>2658</ele>
        <time>2018-04-14T07:46:06Z</time>
      </trkpt>
      <trkpt lat="42.88536" lon="0.17555">
        <ele>2660</ele>
        <time>2018-04-14T07:46:24Z</time>
      </trkpt>
      <trkpt lat="42.88535" lon="0.17556">
        <ele>2661</ele>
        <time>2018-04-14T07:46:48Z</time>
      </trkpt>
      <trkpt lat="42.88534" lon="0.17557">
        <ele>2661</ele>
        <time>2018-04-14T07:47:08Z</time>
      </trkpt>
      <trkpt lat="42.88533" lon="0.17556">
        <ele>2662</ele>
        <time>2018-04-14T07:47:37Z</time>
      </trkpt>
      <trkpt lat="42.88533" lon="0.17558">
        <ele>2662</ele>
        <time>2018-04-14T07:47:59Z</time>
      </trkpt>
      <trkpt lat="42.88537" lon="0.17559">
        <ele>2663</ele>
        <time>2018-04-14T07:48:15Z</time>
      </trkpt>
      <trkpt lat="42.88536" lon="0.17559">
        <ele>2664</ele>
        <time>2018-04-14T07:48:38Z</time>
      </trkpt>
      <trkpt lat="42.88532" lon="0.17559">
        <ele>2664</ele>
        <time>2018-04-14T07:48:54Z</time>
      </trkpt>
      <trkpt lat="42.88536" lon="0.17559">
        <ele>2665</ele>
        <time>2018-04-14T07:49:10Z</time>
      </trkpt>
      <trkpt lat="42.88538" lon="0.17563">
        <ele>2667</ele>
        <time>2018-04-14T07:49:34Z</time>
      </trkpt>
      <trkpt lat="42.88537" lon="0.17567">
        <ele>2667</ele>
        <time>2018-04-14T07:49:56Z</time>
      </trkpt>
      <trkpt lat="42.88537" lon="0.17568">
        <ele>2668</ele>
        <time>2018-04-14T07:50:21Z</time>
      </trkpt>
      <trkpt lat="42.88537" lon="0.17567">
        <ele>2669</ele>
        <time>2018-04-14T07:50:41Z</time>
      </trkpt>
      <trkpt lat="42.88536" lon="0.17567">
        <ele>2669</ele>
        <time>2018-04-14T07:51:02Z</time>
      </trkpt>
      <trkpt lat="42.88531" lon="0.17574">
        <ele>2672</ele>
        <time>2018-04-14T07:51:20Z</time>
      </trkpt>
      <trkpt lat="42.88527" lon="0.17576">
        <ele>2673</ele>
        <time>2018-04-14T07:51:30Z</time>
      </trkpt>
      <trkpt lat="42.88521" lon="0.17577">
        <ele>2674</ele>
        <time>2018-04-14T07:51:46Z</time>
      </trkpt>
      <trkpt lat="42.88513" lon="0.17579">
        <ele>2675</ele>
        <time>2018-04-14T07:52:03Z</time>
      </trkpt>
      <trkpt lat="42.88508" lon="0.1758">
        <ele>2678</ele>
        <time>2018-04-14T07:52:14Z</time>
      </trkpt>
      <trkpt lat="42.88503" lon="0.17581">
        <ele>2678</ele>
        <time>2018-04-14T07:52:28Z</time>
      </trkpt>
      <trkpt lat="42.885" lon="0.17582">
        <ele>2680</ele>
        <time>2018-04-14T07:52:42Z</time>
      </trkpt>
      <trkpt lat="42.88495" lon="0.17582">
        <ele>2682</ele>
        <time>2018-04-14T07:52:56Z</time>
      </trkpt>
      <trkpt lat="42.88493" lon="0.17582">
        <ele>2683</ele>
        <time>2018-04-14T07:53:10Z</time>
      </trkpt>
      <trkpt lat="42.88488" lon="0.17582">
        <ele>2685</ele>
        <time>2018-04-14T07:53:23Z</time>
      </trkpt>
      <trkpt lat="42.88485" lon="0.17582">
        <ele>2687</ele>
        <time>2018-04-14T07:53:38Z</time>
      </trkpt>
      <trkpt lat="42.8848" lon="0.17581">
        <ele>2688</ele>
        <time>2018-04-14T07:53:51Z</time>
      </trkpt>
      <trkpt lat="42.8848" lon="0.17579">
        <ele>2691</ele>
        <time>2018-04-14T07:54:01Z</time>
      </trkpt>
      <trkpt lat="42.88479" lon="0.17578">
        <ele>2689</ele>
        <time>2018-04-14T07:54:03Z</time>
      </trkpt>
      <trkpt lat="42.88479" lon="0.17574">
        <ele>2689</ele>
        <time>2018-04-14T07:54:28Z</time>
      </trkpt>
      <trkpt lat="42.88481" lon="0.17566">
        <ele>2693</ele>
        <time>2018-04-14T07:54:43Z</time>
      </trkpt>
      <trkpt lat="42.88484" lon="0.17563">
        <ele>2694</ele>
        <time>2018-04-14T07:54:58Z</time>
      </trkpt>
      <trkpt lat="42.88484" lon="0.17559">
        <ele>2696</ele>
        <time>2018-04-14T07:55:14Z</time>
      </trkpt>
      <trkpt lat="42.88483" lon="0.17562">
        <ele>2697</ele>
        <time>2018-04-14T07:55:28Z</time>
      </trkpt>
      <trkpt lat="42.88479" lon="0.1756">
        <ele>2699</ele>
        <time>2018-04-14T07:55:44Z</time>
      </trkpt>
      <trkpt lat="42.8848" lon="0.17556">
        <ele>2700</ele>
        <time>2018-04-14T07:56:00Z</time>
      </trkpt>
      <trkpt lat="42.88483" lon="0.17547">
        <ele>2702</ele>
        <time>2018-04-14T07:56:14Z</time>
      </trkpt>
      <trkpt lat="42.88485" lon="0.17543">
        <ele>2703</ele>
        <time>2018-04-14T07:56:27Z</time>
      </trkpt>
      <trkpt lat="42.88486" lon="0.17541">
        <ele>2704</ele>
        <time>2018-04-14T07:56:42Z</time>
      </trkpt>
      <trkpt lat="42.88489" lon="0.17536">
        <ele>2706</ele>
        <time>2018-04-14T07:56:58Z</time>
      </trkpt>
      <trkpt lat="42.88493" lon="0.17532">
        <ele>2707</ele>
        <time>2018-04-14T07:57:12Z</time>
      </trkpt>
      <trkpt lat="42.88493" lon="0.17535">
        <ele>2706</ele>
        <time>2018-04-14T07:57:28Z</time>
      </trkpt>
      <trkpt lat="42.88493" lon="0.17535">
        <ele>2707</ele>
        <time>2018-04-14T07:57:47Z</time>
      </trkpt>
      <trkpt lat="42.88494" lon="0.17534">
        <ele>2707</ele>
        <time>2018-04-14T07:58:05Z</time>
      </trkpt>
      <trkpt lat="42.88495" lon="0.17533">
        <ele>2706</ele>
        <time>2018-04-14T07:58:22Z</time>
      </trkpt>
      <trkpt lat="42.88493" lon="0.17532">
        <ele>2706</ele>
        <time>2018-04-14T07:58:55Z</time>
      </trkpt>
      <trkpt lat="42.88491" lon="0.17535">
        <ele>2706</ele>
        <time>2018-04-14T07:59:30Z</time>
      </trkpt>
      <trkpt lat="42.88494" lon="0.1753">
        <ele>2706</ele>
        <time>2018-04-14T07:59:58Z</time>
      </trkpt>
      <trkpt lat="42.88495" lon="0.1753">
        <ele>2707</ele>
        <time>2018-04-14T08:00:27Z</time>
      </trkpt>
      <trkpt lat="42.88492" lon="0.17533">
        <ele>2707</ele>
        <time>2018-04-14T08:00:59Z</time>
      </trkpt>
      <trkpt lat="42.8849" lon="0.17537">
        <ele>2707</ele>
        <time>2018-04-14T08:01:36Z</time>
      </trkpt>
      <trkpt lat="42.8849" lon="0.17537">
        <ele>2707</ele>
        <time>2018-04-14T08:02:10Z</time>
      </trkpt>
      <trkpt lat="42.88493" lon="0.17535">
        <ele>2708</ele>
        <time>2018-04-14T08:02:48Z</time>
      </trkpt>
      <trkpt lat="42.88493" lon="0.17536">
        <ele>2708</ele>
        <time>2018-04-14T08:03:22Z</time>
      </trkpt>
      <trkpt lat="42.88493" lon="0.17536">
        <ele>2708</ele>
        <time>2018-04-14T08:04:06Z</time>
      </trkpt>
      <trkpt lat="42.88494" lon="0.17535">
        <ele>2707</ele>
        <time>2018-04-14T08:04:45Z</time>
      </trkpt>
      <trkpt lat="42.88491" lon="0.17534">
        <ele>2707</ele>
        <time>2018-04-14T08:05:23Z</time>
      </trkpt>
      <trkpt lat="42.8849" lon="0.17536">
        <ele>2708</ele>
        <time>2018-04-14T08:05:57Z</time>
      </trkpt>
      <trkpt lat="42.8849" lon="0.17534">
        <ele>2708</ele>
        <time>2018-04-14T08:06:28Z</time>
      </trkpt>
      <trkpt lat="42.88491" lon="0.17535">
        <ele>2708</ele>
        <time>2018-04-14T08:06:33Z</time>
      </trkpt>
      <trkpt lat="42.88493" lon="0.17536">
        <ele>2709</ele>
        <time>2018-04-14T08:06:36Z</time>
      </trkpt>
      <trkpt lat="42.8849" lon="0.17539">
        <ele>2709</ele>
        <time>2018-04-14T08:06:49Z</time>
      </trkpt>
      <trkpt lat="42.88492" lon="0.17539">
        <ele>2709</ele>
        <time>2018-04-14T08:07:10Z</time>
      </trkpt>
      <trkpt lat="42.88493" lon="0.17538">
        <ele>2709</ele>
        <time>2018-04-14T08:07:37Z</time>
      </trkpt>
      <trkpt lat="42.88491" lon="0.17539">
        <ele>2708</ele>
        <time>2018-04-14T08:08:02Z</time>
      </trkpt>
      <trkpt lat="42.88492" lon="0.17538">
        <ele>2709</ele>
        <time>2018-04-14T08:08:27Z</time>
      </trkpt>
      <trkpt lat="42.88492" lon="0.17538">
        <ele>2710</ele>
        <time>2018-04-14T08:08:44Z</time>
      </trkpt>
      <trkpt lat="42.88491" lon="0.17539">
        <ele>2709</ele>
        <time>2018-04-14T08:09:11Z</time>
      </trkpt>
      <trkpt lat="42.88491" lon="0.1754">
        <ele>2709</ele>
        <time>2018-04-14T08:09:31Z</time>
      </trkpt>
      <trkpt lat="42.88487" lon="0.17549">
        <ele>2706</ele>
        <time>2018-04-14T08:09:37Z</time>
      </trkpt>
      <trkpt lat="42.88484" lon="0.17552">
        <ele>2705</ele>
        <time>2018-04-14T08:09:39Z</time>
      </trkpt>
      <trkpt lat="42.88486" lon="0.17557">
        <ele>2701</ele>
        <time>2018-04-14T08:09:43Z</time>
      </trkpt>
      <trkpt lat="42.88487" lon="0.1756">
        <ele>2700</ele>
        <time>2018-04-14T08:09:44Z</time>
      </trkpt>
      <trkpt lat="42.88485" lon="0.17566">
        <ele>2697</ele>
        <time>2018-04-14T08:09:47Z</time>
      </trkpt>
      <trkpt lat="42.88494" lon="0.17563">
        <ele>2693</ele>
        <time>2018-04-14T08:09:52Z</time>
      </trkpt>
      <trkpt lat="42.88499" lon="0.17563">
        <ele>2692</ele>
        <time>2018-04-14T08:09:55Z</time>
      </trkpt>
      <trkpt lat="42.885" lon="0.17566">
        <ele>2689</ele>
        <time>2018-04-14T08:09:58Z</time>
      </trkpt>
      <trkpt lat="42.88497" lon="0.17572">
        <ele>2686</ele>
        <time>2018-04-14T08:10:05Z</time>
      </trkpt>
      <trkpt lat="42.88492" lon="0.17582">
        <ele>2683</ele>
        <time>2018-04-14T08:10:10Z</time>
      </trkpt>
      <trkpt lat="42.88491" lon="0.17584">
        <ele>2682</ele>
        <time>2018-04-14T08:10:11Z</time>
      </trkpt>
      <trkpt lat="42.88495" lon="0.17595">
        <ele>2677</ele>
        <time>2018-04-14T08:10:15Z</time>
      </trkpt>
      <trkpt lat="42.88496" lon="0.17602">
        <ele>2674</ele>
        <time>2018-04-14T08:10:17Z</time>
      </trkpt>
      <trkpt lat="42.88494" lon="0.17614">
        <ele>2667</ele>
        <time>2018-04-14T08:10:20Z</time>
      </trkpt>
      <trkpt lat="42.88494" lon="0.17618">
        <ele>2666</ele>
        <time>2018-04-14T08:10:21Z</time>
      </trkpt>
      <trkpt lat="42.88495" lon="0.17628">
        <ele>2659</ele>
        <time>2018-04-14T08:10:24Z</time>
      </trkpt>
      <trkpt lat="42.88496" lon="0.17632">
        <ele>2656</ele>
        <time>2018-04-14T08:10:25Z</time>
      </trkpt>
      <trkpt lat="42.88495" lon="0.17642">
        <ele>2651</ele>
        <time>2018-04-14T08:10:28Z</time>
      </trkpt>
      <trkpt lat="42.88498" lon="0.17651">
        <ele>2645</ele>
        <time>2018-04-14T08:10:31Z</time>
      </trkpt>
      <trkpt lat="42.885" lon="0.17658">
        <ele>2641</ele>
        <time>2018-04-14T08:10:33Z</time>
      </trkpt>
      <trkpt lat="42.88503" lon="0.17665">
        <ele>2636</ele>
        <time>2018-04-14T08:10:35Z</time>
      </trkpt>
      <trkpt lat="42.88508" lon="0.17667">
        <ele>2632</ele>
        <time>2018-04-14T08:10:37Z</time>
      </trkpt>
      <trkpt lat="42.88513" lon="0.17664">
        <ele>2631</ele>
        <time>2018-04-14T08:10:39Z</time>
      </trkpt>
      <trkpt lat="42.88529" lon="0.17659">
        <ele>2632</ele>
        <time>2018-04-14T08:10:51Z</time>
      </trkpt>
      <trkpt lat="42.88526" lon="0.17663">
        <ele>2628</ele>
        <time>2018-04-14T08:10:54Z</time>
      </trkpt>
      <trkpt lat="42.88527" lon="0.17668">
        <ele>2625</ele>
        <time>2018-04-14T08:10:56Z</time>
      </trkpt>
      <trkpt lat="42.88528" lon="0.17675">
        <ele>2621</ele>
        <time>2018-04-14T08:10:58Z</time>
      </trkpt>
      <trkpt lat="42.8853" lon="0.17679">
        <ele>2617</ele>
        <time>2018-04-14T08:11:00Z</time>
      </trkpt>
      <trkpt lat="42.88531" lon="0.17682">
        <ele>2615</ele>
        <time>2018-04-14T08:11:01Z</time>
      </trkpt>
      <trkpt lat="42.88531" lon="0.17695">
        <ele>2610</ele>
        <time>2018-04-14T08:11:04Z</time>
      </trkpt>
      <trkpt lat="42.88537" lon="0.1771">
        <ele>2601</ele>
        <time>2018-04-14T08:11:07Z</time>
      </trkpt>
      <trkpt lat="42.88542" lon="0.17722">
        <ele>2597</ele>
        <time>2018-04-14T08:11:09Z</time>
      </trkpt>
      <trkpt lat="42.88545" lon="0.17734">
        <ele>2596</ele>
        <time>2018-04-14T08:11:11Z</time>
      </trkpt>
      <trkpt lat="42.88551" lon="0.17738">
        <ele>2593</ele>
        <time>2018-04-14T08:11:15Z</time>
      </trkpt>
      <trkpt lat="42.88559" lon="0.17729">
        <ele>2593</ele>
        <time>2018-04-14T08:11:35Z</time>
      </trkpt>
      <trkpt lat="42.88559" lon="0.17726">
        <ele>2593</ele>
        <time>2018-04-14T08:11:56Z</time>
      </trkpt>
      <trkpt lat="42.8856" lon="0.17724">
        <ele>2591</ele>
        <time>2018-04-14T08:12:06Z</time>
      </trkpt>
      <trkpt lat="42.8857" lon="0.17725">
        <ele>2589</ele>
        <time>2018-04-14T08:12:11Z</time>
      </trkpt>
      <trkpt lat="42.88571" lon="0.17723">
        <ele>2589</ele>
        <time>2018-04-14T08:12:27Z</time>
      </trkpt>
      <trkpt lat="42.88574" lon="0.17719">
        <ele>2589</ele>
        <time>2018-04-14T08:12:51Z</time>
      </trkpt>
      <trkpt lat="42.88574" lon="0.17721">
        <ele>2589</ele>
        <time>2018-04-14T08:13:14Z</time>
      </trkpt>
      <trkpt lat="42.88576" lon="0.17719">
        <ele>2589</ele>
        <time>2018-04-14T08:13:47Z</time>
      </trkpt>
      <trkpt lat="42.88574" lon="0.17721">
        <ele>2588</ele>
        <time>2018-04-14T08:14:16Z</time>
      </trkpt>
      <trkpt lat="42.88573" lon="0.1772">
        <ele>2588</ele>
        <time>2018-04-14T08:14:43Z</time>
      </trkpt>
      <trkpt lat="42.88573" lon="0.17719">
        <ele>2588</ele>
        <time>2018-04-14T08:15:16Z</time>
      </trkpt>
      <trkpt lat="42.88579" lon="0.17725">
        <ele>2587</ele>
        <time>2018-04-14T08:15:42Z</time>
      </trkpt>
      <trkpt lat="42.8858" lon="0.17727">
        <ele>2588</ele>
        <time>2018-04-14T08:16:02Z</time>
      </trkpt>
      <trkpt lat="42.88576" lon="0.17723">
        <ele>2588</ele>
        <time>2018-04-14T08:16:32Z</time>
      </trkpt>
      <trkpt lat="42.88577" lon="0.17722">
        <ele>2587</ele>
        <time>2018-04-14T08:16:38Z</time>
      </trkpt>
      <trkpt lat="42.88585" lon="0.17733">
        <ele>2583</ele>
        <time>2018-04-14T08:16:41Z</time>
      </trkpt>
      <trkpt lat="42.88591" lon="0.17743">
        <ele>2577</ele>
        <time>2018-04-14T08:16:43Z</time>
      </trkpt>
      <trkpt lat="42.88594" lon="0.17777">
        <ele>2571</ele>
        <time>2018-04-14T08:16:49Z</time>
      </trkpt>
      <trkpt lat="42.88594" lon="0.178">
        <ele>2568</ele>
        <time>2018-04-14T08:16:55Z</time>
      </trkpt>
      <trkpt lat="42.88597" lon="0.17807">
        <ele>2564</ele>
        <time>2018-04-14T08:16:57Z</time>
      </trkpt>
      <trkpt lat="42.88601" lon="0.17815">
        <ele>2561</ele>
        <time>2018-04-14T08:16:59Z</time>
      </trkpt>
      <trkpt lat="42.88603" lon="0.17819">
        <ele>2558</ele>
        <time>2018-04-14T08:17:00Z</time>
      </trkpt>
      <trkpt lat="42.88607" lon="0.17832">
        <ele>2552</ele>
        <time>2018-04-14T08:17:03Z</time>
      </trkpt>
      <trkpt lat="42.88608" lon="0.17833">
        <ele>2552</ele>
        <time>2018-04-14T08:17:04Z</time>
      </trkpt>
      <trkpt lat="42.8861" lon="0.17831">
        <ele>2551</ele>
        <time>2018-04-14T08:17:22Z</time>
      </trkpt>
      <trkpt lat="42.8861" lon="0.17833">
        <ele>2551</ele>
        <time>2018-04-14T08:17:32Z</time>
      </trkpt>
      <trkpt lat="42.88605" lon="0.1785">
        <ele>2548</ele>
        <time>2018-04-14T08:17:39Z</time>
      </trkpt>
      <trkpt lat="42.88605" lon="0.17849">
        <ele>2548</ele>
        <time>2018-04-14T08:17:43Z</time>
      </trkpt>
      <trkpt lat="42.88596" lon="0.17867">
        <ele>2545</ele>
        <time>2018-04-14T08:17:51Z</time>
      </trkpt>
      <trkpt lat="42.8859" lon="0.17875">
        <ele>2543</ele>
        <time>2018-04-14T08:17:54Z</time>
      </trkpt>
      <trkpt lat="42.88575" lon="0.17899">
        <ele>2540</ele>
        <time>2018-04-14T08:17:59Z</time>
      </trkpt>
      <trkpt lat="42.88561" lon="0.1792">
        <ele>2537</ele>
        <time>2018-04-14T08:18:06Z</time>
      </trkpt>
      <trkpt lat="42.88549" lon="0.17932">
        <ele>2533</ele>
        <time>2018-04-14T08:18:10Z</time>
      </trkpt>
      <trkpt lat="42.88539" lon="0.17942">
        <ele>2531</ele>
        <time>2018-04-14T08:18:13Z</time>
      </trkpt>
      <trkpt lat="42.88523" lon="0.17966">
        <ele>2526</ele>
        <time>2018-04-14T08:18:20Z</time>
      </trkpt>
      <trkpt lat="42.88518" lon="0.17973">
        <ele>2526</ele>
        <time>2018-04-14T08:18:22Z</time>
      </trkpt>
      <trkpt lat="42.88509" lon="0.17987">
        <ele>2523</ele>
        <time>2018-04-14T08:18:25Z</time>
      </trkpt>
      <trkpt lat="42.88502" lon="0.18003">
        <ele>2520</ele>
        <time>2018-04-14T08:18:28Z</time>
      </trkpt>
      <trkpt lat="42.88501" lon="0.18008">
        <ele>2519</ele>
        <time>2018-04-14T08:18:29Z</time>
      </trkpt>
      <trkpt lat="42.88495" lon="0.18032">
        <ele>2516</ele>
        <time>2018-04-14T08:18:35Z</time>
      </trkpt>
      <trkpt lat="42.88481" lon="0.18056">
        <ele>2513</ele>
        <time>2018-04-14T08:18:43Z</time>
      </trkpt>
      <trkpt lat="42.88473" lon="0.18069">
        <ele>2512</ele>
        <time>2018-04-14T08:18:46Z</time>
      </trkpt>
      <trkpt lat="42.88458" lon="0.18099">
        <ele>2508</ele>
        <time>2018-04-14T08:18:51Z</time>
      </trkpt>
      <trkpt lat="42.88453" lon="0.18112">
        <ele>2507</ele>
        <time>2018-04-14T08:18:53Z</time>
      </trkpt>
      <trkpt lat="42.88445" lon="0.18145">
        <ele>2504</ele>
        <time>2018-04-14T08:18:58Z</time>
      </trkpt>
      <trkpt lat="42.88444" lon="0.18151">
        <ele>2504</ele>
        <time>2018-04-14T08:18:59Z</time>
      </trkpt>
      <trkpt lat="42.88441" lon="0.18167">
        <ele>2502</ele>
        <time>2018-04-14T08:19:02Z</time>
      </trkpt>
      <trkpt lat="42.88432" lon="0.18207">
        <ele>2501</ele>
        <time>2018-04-14T08:19:14Z</time>
      </trkpt>
      <trkpt lat="42.88415" lon="0.18231">
        <ele>2499</ele>
        <time>2018-04-14T08:19:22Z</time>
      </trkpt>
      <trkpt lat="42.88418" lon="0.1824">
        <ele>2498</ele>
        <time>2018-04-14T08:19:31Z</time>
      </trkpt>
      <trkpt lat="42.88418" lon="0.18241">
        <ele>2497</ele>
        <time>2018-04-14T08:19:52Z</time>
      </trkpt>
      <trkpt lat="42.88417" lon="0.18242">
        <ele>2497</ele>
        <time>2018-04-14T08:20:20Z</time>
      </trkpt>
      <trkpt lat="42.88416" lon="0.18241">
        <ele>2498</ele>
        <time>2018-04-14T08:20:45Z</time>
      </trkpt>
      <trkpt lat="42.88415" lon="0.18243">
        <ele>2497</ele>
        <time>2018-04-14T08:21:09Z</time>
      </trkpt>
      <trkpt lat="42.88416" lon="0.18244">
        <ele>2497</ele>
        <time>2018-04-14T08:21:39Z</time>
      </trkpt>
      <trkpt lat="42.88415" lon="0.18243">
        <ele>2497</ele>
        <time>2018-04-14T08:22:09Z</time>
      </trkpt>
      <trkpt lat="42.88417" lon="0.18244">
        <ele>2497</ele>
        <time>2018-04-14T08:22:38Z</time>
      </trkpt>
      <trkpt lat="42.88417" lon="0.18244">
        <ele>2497</ele>
        <time>2018-04-14T08:22:59Z</time>
      </trkpt>
      <trkpt lat="42.88405" lon="0.18268">
        <ele>2493</ele>
        <time>2018-04-14T08:23:08Z</time>
      </trkpt>
      <trkpt lat="42.88401" lon="0.18265">
        <ele>2492</ele>
        <time>2018-04-14T08:23:09Z</time>
      </trkpt>
      <trkpt lat="42.88397" lon="0.18262">
        <ele>2491</ele>
        <time>2018-04-14T08:23:11Z</time>
      </trkpt>
      <trkpt lat="42.88396" lon="0.18262">
        <ele>2490</ele>
        <time>2018-04-14T08:23:12Z</time>
      </trkpt>
      <trkpt lat="42.88389" lon="0.18263">
        <ele>2489</ele>
        <time>2018-04-14T08:23:17Z</time>
      </trkpt>
      <trkpt lat="42.88387" lon="0.18275">
        <ele>2484</ele>
        <time>2018-04-14T08:23:21Z</time>
      </trkpt>
      <trkpt lat="42.88385" lon="0.18279">
        <ele>2483</ele>
        <time>2018-04-14T08:23:22Z</time>
      </trkpt>
      <trkpt lat="42.88375" lon="0.18286">
        <ele>2480</ele>
        <time>2018-04-14T08:23:24Z</time>
      </trkpt>
      <trkpt lat="42.8836" lon="0.1831">
        <ele>2477</ele>
        <time>2018-04-14T08:23:28Z</time>
      </trkpt>
      <trkpt lat="42.88355" lon="0.18318">
        <ele>2476</ele>
        <time>2018-04-14T08:23:30Z</time>
      </trkpt>
      <trkpt lat="42.88339" lon="0.18335">
        <ele>2473</ele>
        <time>2018-04-14T08:23:33Z</time>
      </trkpt>
      <trkpt lat="42.88328" lon="0.18371">
        <ele>2468</ele>
        <time>2018-04-14T08:23:37Z</time>
      </trkpt>
      <trkpt lat="42.88316" lon="0.18392">
        <ele>2464</ele>
        <time>2018-04-14T08:23:41Z</time>
      </trkpt>
      <trkpt lat="42.88307" lon="0.18412">
        <ele>2460</ele>
        <time>2018-04-14T08:23:44Z</time>
      </trkpt>
      <trkpt lat="42.88293" lon="0.18447">
        <ele>2457</ele>
        <time>2018-04-14T08:23:49Z</time>
      </trkpt>
      <trkpt lat="42.88282" lon="0.18454">
        <ele>2456</ele>
        <time>2018-04-14T08:23:57Z</time>
      </trkpt>
      <trkpt lat="42.88282" lon="0.18454">
        <ele>2456</ele>
        <time>2018-04-14T08:24:02Z</time>
      </trkpt>
      <trkpt lat="42.88271" lon="0.18467">
        <ele>2453</ele>
        <time>2018-04-14T08:24:08Z</time>
      </trkpt>
      <trkpt lat="42.8827" lon="0.1848">
        <ele>2448</ele>
        <time>2018-04-14T08:24:10Z</time>
      </trkpt>
      <trkpt lat="42.88266" lon="0.18485">
        <ele>2447</ele>
        <time>2018-04-14T08:24:11Z</time>
      </trkpt>
      <trkpt lat="42.88252" lon="0.18498">
        <ele>2445</ele>
        <time>2018-04-14T08:24:14Z</time>
      </trkpt>
      <trkpt lat="42.88245" lon="0.18508">
        <ele>2442</ele>
        <time>2018-04-14T08:24:16Z</time>
      </trkpt>
      <trkpt lat="42.88244" lon="0.18533">
        <ele>2437</ele>
        <time>2018-04-14T08:24:19Z</time>
      </trkpt>
      <trkpt lat="42.8824" lon="0.18543">
        <ele>2435</ele>
        <time>2018-04-14T08:24:20Z</time>
      </trkpt>
      <trkpt lat="42.88221" lon="0.18595">
        <ele>2430</ele>
        <time>2018-04-14T08:24:25Z</time>
      </trkpt>
      <trkpt lat="42.88206" lon="0.18633">
        <ele>2429</ele>
        <time>2018-04-14T08:24:32Z</time>
      </trkpt>
      <trkpt lat="42.88206" lon="0.18676">
        <ele>2426</ele>
        <time>2018-04-14T08:24:41Z</time>
      </trkpt>
      <trkpt lat="42.88196" lon="0.18716">
        <ele>2422</ele>
        <time>2018-04-14T08:24:45Z</time>
      </trkpt>
      <trkpt lat="42.88187" lon="0.18728">
        <ele>2421</ele>
        <time>2018-04-14T08:24:47Z</time>
      </trkpt>
      <trkpt lat="42.8818" lon="0.18733">
        <ele>2422</ele>
        <time>2018-04-14T08:24:53Z</time>
      </trkpt>
      <trkpt lat="42.88175" lon="0.1874">
        <ele>2422</ele>
        <time>2018-04-14T08:25:04Z</time>
      </trkpt>
      <trkpt lat="42.8817" lon="0.18748">
        <ele>2423</ele>
        <time>2018-04-14T08:25:16Z</time>
      </trkpt>
      <trkpt lat="42.88167" lon="0.18754">
        <ele>2423</ele>
        <time>2018-04-14T08:25:25Z</time>
      </trkpt>
      <trkpt lat="42.88166" lon="0.18759">
        <ele>2424</ele>
        <time>2018-04-14T08:25:37Z</time>
      </trkpt>
      <trkpt lat="42.88165" lon="0.18763">
        <ele>2423</ele>
        <time>2018-04-14T08:25:49Z</time>
      </trkpt>
      <trkpt lat="42.88164" lon="0.18769">
        <ele>2423</ele>
        <time>2018-04-14T08:25:52Z</time>
      </trkpt>
      <trkpt lat="42.88157" lon="0.18775">
        <ele>2422</ele>
        <time>2018-04-14T08:26:03Z</time>
      </trkpt>
      <trkpt lat="42.88157" lon="0.18775">
        <ele>2422</ele>
        <time>2018-04-14T08:26:11Z</time>
      </trkpt>
      <trkpt lat="42.88151" lon="0.18782">
        <ele>2421</ele>
        <time>2018-04-14T08:26:15Z</time>
      </trkpt>
      <trkpt lat="42.88127" lon="0.18786">
        <ele>2418</ele>
        <time>2018-04-14T08:26:26Z</time>
      </trkpt>
      <trkpt lat="42.88123" lon="0.18785">
        <ele>2418</ele>
        <time>2018-04-14T08:26:27Z</time>
      </trkpt>
      <trkpt lat="42.88093" lon="0.18796">
        <ele>2415</ele>
        <time>2018-04-14T08:26:33Z</time>
      </trkpt>
      <trkpt lat="42.88084" lon="0.18816">
        <ele>2413</ele>
        <time>2018-04-14T08:26:36Z</time>
      </trkpt>
      <trkpt lat="42.88069" lon="0.18873">
        <ele>2409</ele>
        <time>2018-04-14T08:26:47Z</time>
      </trkpt>
      <trkpt lat="42.88064" lon="0.18881">
        <ele>2408</ele>
        <time>2018-04-14T08:26:49Z</time>
      </trkpt>
      <trkpt lat="42.88048" lon="0.18903">
        <ele>2404</ele>
        <time>2018-04-14T08:26:55Z</time>
      </trkpt>
      <trkpt lat="42.8803" lon="0.18918">
        <ele>2401</ele>
        <time>2018-04-14T08:27:03Z</time>
      </trkpt>
      <trkpt lat="42.88007" lon="0.18932">
        <ele>2400</ele>
        <time>2018-04-14T08:27:11Z</time>
      </trkpt>
      <trkpt lat="42.8799" lon="0.18952">
        <ele>2396</ele>
        <time>2018-04-14T08:27:15Z</time>
      </trkpt>
      <trkpt lat="42.87976" lon="0.18986">
        <ele>2393</ele>
        <time>2018-04-14T08:27:19Z</time>
      </trkpt>
      <trkpt lat="42.87976" lon="0.18994">
        <ele>2391</ele>
        <time>2018-04-14T08:27:20Z</time>
      </trkpt>
      <trkpt lat="42.87979" lon="0.19018">
        <ele>2387</ele>
        <time>2018-04-14T08:27:23Z</time>
      </trkpt>
      <trkpt lat="42.87972" lon="0.19048">
        <ele>2384</ele>
        <time>2018-04-14T08:27:27Z</time>
      </trkpt>
      <trkpt lat="42.8797" lon="0.19056">
        <ele>2383</ele>
        <time>2018-04-14T08:27:28Z</time>
      </trkpt>
      <trkpt lat="42.87971" lon="0.19087">
        <ele>2379</ele>
        <time>2018-04-14T08:27:31Z</time>
      </trkpt>
      <trkpt lat="42.87973" lon="0.191">
        <ele>2378</ele>
        <time>2018-04-14T08:27:33Z</time>
      </trkpt>
      <trkpt lat="42.87975" lon="0.19102">
        <ele>2379</ele>
        <time>2018-04-14T08:27:35Z</time>
      </trkpt>
      <trkpt lat="42.87977" lon="0.19096">
        <ele>2379</ele>
        <time>2018-04-14T08:27:48Z</time>
      </trkpt>
      <trkpt lat="42.87974" lon="0.19099">
        <ele>2378</ele>
        <time>2018-04-14T08:27:59Z</time>
      </trkpt>
      <trkpt lat="42.87973" lon="0.19099">
        <ele>2378</ele>
        <time>2018-04-14T08:28:00Z</time>
      </trkpt>
      <trkpt lat="42.87975" lon="0.191">
        <ele>2378</ele>
        <time>2018-04-14T08:28:35Z</time>
      </trkpt>
      <trkpt lat="42.87977" lon="0.19099">
        <ele>2379</ele>
        <time>2018-04-14T08:29:09Z</time>
      </trkpt>
      <trkpt lat="42.87977" lon="0.191">
        <ele>2379</ele>
        <time>2018-04-14T08:29:17Z</time>
      </trkpt>
      <trkpt lat="42.87974" lon="0.19099">
        <ele>2380</ele>
        <time>2018-04-14T08:29:28Z</time>
      </trkpt>
      <trkpt lat="42.87973" lon="0.19101">
        <ele>2380</ele>
        <time>2018-04-14T08:29:42Z</time>
      </trkpt>
      <trkpt lat="42.87977" lon="0.19111">
        <ele>2379</ele>
        <time>2018-04-14T08:29:46Z</time>
      </trkpt>
      <trkpt lat="42.87981" lon="0.19124">
        <ele>2379</ele>
        <time>2018-04-14T08:29:48Z</time>
      </trkpt>
      <trkpt lat="42.87994" lon="0.19147">
        <ele>2375</ele>
        <time>2018-04-14T08:29:51Z</time>
      </trkpt>
      <trkpt lat="42.88003" lon="0.19164">
        <ele>2370</ele>
        <time>2018-04-14T08:29:53Z</time>
      </trkpt>
      <trkpt lat="42.8801" lon="0.19184">
        <ele>2368</ele>
        <time>2018-04-14T08:29:55Z</time>
      </trkpt>
      <trkpt lat="42.88035" lon="0.19219">
        <ele>2368</ele>
        <time>2018-04-14T08:30:02Z</time>
      </trkpt>
      <trkpt lat="42.88028" lon="0.19221">
        <ele>2369</ele>
        <time>2018-04-14T08:30:11Z</time>
      </trkpt>
      <trkpt lat="42.8802" lon="0.19229">
        <ele>2371</ele>
        <time>2018-04-14T08:30:26Z</time>
      </trkpt>
      <trkpt lat="42.88022" lon="0.19237">
        <ele>2372</ele>
        <time>2018-04-14T08:30:36Z</time>
      </trkpt>
      <trkpt lat="42.88024" lon="0.19245">
        <ele>2372</ele>
        <time>2018-04-14T08:30:43Z</time>
      </trkpt>
      <trkpt lat="42.88032" lon="0.1925">
        <ele>2372</ele>
        <time>2018-04-14T08:30:58Z</time>
      </trkpt>
      <trkpt lat="42.88033" lon="0.19257">
        <ele>2374</ele>
        <time>2018-04-14T08:31:13Z</time>
      </trkpt>
      <trkpt lat="42.88034" lon="0.19272">
        <ele>2375</ele>
        <time>2018-04-14T08:31:28Z</time>
      </trkpt>
      <trkpt lat="42.88034" lon="0.19274">
        <ele>2375</ele>
        <time>2018-04-14T08:31:30Z</time>
      </trkpt>
      <trkpt lat="42.88044" lon="0.19291">
        <ele>2375</ele>
        <time>2018-04-14T08:31:47Z</time>
      </trkpt>
      <trkpt lat="42.8805" lon="0.19301">
        <ele>2376</ele>
        <time>2018-04-14T08:31:59Z</time>
      </trkpt>
      <trkpt lat="42.88058" lon="0.19308">
        <ele>2377</ele>
        <time>2018-04-14T08:32:15Z</time>
      </trkpt>
      <trkpt lat="42.88064" lon="0.19318">
        <ele>2378</ele>
        <time>2018-04-14T08:32:33Z</time>
      </trkpt>
      <trkpt lat="42.88064" lon="0.19326">
        <ele>2378</ele>
        <time>2018-04-14T08:32:47Z</time>
      </trkpt>
      <trkpt lat="42.88065" lon="0.19332">
        <ele>2380</ele>
        <time>2018-04-14T08:33:00Z</time>
      </trkpt>
      <trkpt lat="42.88065" lon="0.19337">
        <ele>2379</ele>
        <time>2018-04-14T08:33:14Z</time>
      </trkpt>
      <trkpt lat="42.88066" lon="0.19343">
        <ele>2381</ele>
        <time>2018-04-14T08:33:28Z</time>
      </trkpt>
      <trkpt lat="42.88065" lon="0.19347">
        <ele>2381</ele>
        <time>2018-04-14T08:33:40Z</time>
      </trkpt>
      <trkpt lat="42.88067" lon="0.19357">
        <ele>2381</ele>
        <time>2018-04-14T08:33:52Z</time>
      </trkpt>
      <trkpt lat="42.88069" lon="0.19365">
        <ele>2382</ele>
        <time>2018-04-14T08:34:07Z</time>
      </trkpt>
      <trkpt lat="42.8807" lon="0.19376">
        <ele>2383</ele>
        <time>2018-04-14T08:34:21Z</time>
      </trkpt>
      <trkpt lat="42.88071" lon="0.19382">
        <ele>2383</ele>
        <time>2018-04-14T08:34:36Z</time>
      </trkpt>
      <trkpt lat="42.88074" lon="0.19388">
        <ele>2383</ele>
        <time>2018-04-14T08:34:47Z</time>
      </trkpt>
      <trkpt lat="42.88081" lon="0.19394">
        <ele>2385</ele>
        <time>2018-04-14T08:35:05Z</time>
      </trkpt>
      <trkpt lat="42.88084" lon="0.19401">
        <ele>2385</ele>
        <time>2018-04-14T08:35:20Z</time>
      </trkpt>
      <trkpt lat="42.88086" lon="0.19408">
        <ele>2385</ele>
        <time>2018-04-14T08:35:34Z</time>
      </trkpt>
      <trkpt lat="42.88091" lon="0.19418">
        <ele>2387</ele>
        <time>2018-04-14T08:35:49Z</time>
      </trkpt>
      <trkpt lat="42.88095" lon="0.19429">
        <ele>2387</ele>
        <time>2018-04-14T08:36:07Z</time>
      </trkpt>
      <trkpt lat="42.88095" lon="0.19444">
        <ele>2387</ele>
        <time>2018-04-14T08:36:23Z</time>
      </trkpt>
      <trkpt lat="42.88092" lon="0.19459">
        <ele>2387</ele>
        <time>2018-04-14T08:36:39Z</time>
      </trkpt>
      <trkpt lat="42.88091" lon="0.19466">
        <ele>2386</ele>
        <time>2018-04-14T08:36:44Z</time>
      </trkpt>
      <trkpt lat="42.88083" lon="0.19508">
        <ele>2384</ele>
        <time>2018-04-14T08:37:00Z</time>
      </trkpt>
      <trkpt lat="42.88079" lon="0.19511">
        <ele>2384</ele>
        <time>2018-04-14T08:37:09Z</time>
      </trkpt>
      <trkpt lat="42.88078" lon="0.1951">
        <ele>2384</ele>
        <time>2018-04-14T08:37:32Z</time>
      </trkpt>
      <trkpt lat="42.8808" lon="0.19512">
        <ele>2384</ele>
        <time>2018-04-14T08:37:50Z</time>
      </trkpt>
      <trkpt lat="42.88082" lon="0.19511">
        <ele>2384</ele>
        <time>2018-04-14T08:38:15Z</time>
      </trkpt>
      <trkpt lat="42.88081" lon="0.19513">
        <ele>2384</ele>
        <time>2018-04-14T08:38:29Z</time>
      </trkpt>
      <trkpt lat="42.88081" lon="0.19511">
        <ele>2383</ele>
        <time>2018-04-14T08:39:04Z</time>
      </trkpt>
      <trkpt lat="42.88078" lon="0.19508">
        <ele>2384</ele>
        <time>2018-04-14T08:39:20Z</time>
      </trkpt>
      <trkpt lat="42.88081" lon="0.19501">
        <ele>2385</ele>
        <time>2018-04-14T08:39:31Z</time>
      </trkpt>
      <trkpt lat="42.88084" lon="0.19492">
        <ele>2386</ele>
        <time>2018-04-14T08:39:47Z</time>
      </trkpt>
      <trkpt lat="42.88085" lon="0.1948">
        <ele>2385</ele>
        <time>2018-04-14T08:40:02Z</time>
      </trkpt>
      <trkpt lat="42.88087" lon="0.19473">
        <ele>2386</ele>
        <time>2018-04-14T08:40:18Z</time>
      </trkpt>
      <trkpt lat="42.88087" lon="0.19495">
        <ele>2384</ele>
        <time>2018-04-14T08:40:25Z</time>
      </trkpt>
      <trkpt lat="42.88079" lon="0.1951">
        <ele>2383</ele>
        <time>2018-04-14T08:40:37Z</time>
      </trkpt>
      <trkpt lat="42.88079" lon="0.19508">
        <ele>2383</ele>
        <time>2018-04-14T08:41:03Z</time>
      </trkpt>
      <trkpt lat="42.88077" lon="0.19508">
        <ele>2383</ele>
        <time>2018-04-14T08:41:25Z</time>
      </trkpt>
      <trkpt lat="42.88072" lon="0.19518">
        <ele>2383</ele>
        <time>2018-04-14T08:41:37Z</time>
      </trkpt>
      <trkpt lat="42.88065" lon="0.19524">
        <ele>2381</ele>
        <time>2018-04-14T08:41:39Z</time>
      </trkpt>
      <trkpt lat="42.88048" lon="0.19537">
        <ele>2378</ele>
        <time>2018-04-14T08:41:44Z</time>
      </trkpt>
      <trkpt lat="42.88047" lon="0.19554">
        <ele>2374</ele>
        <time>2018-04-14T08:41:48Z</time>
      </trkpt>
      <trkpt lat="42.88044" lon="0.19559">
        <ele>2372</ele>
        <time>2018-04-14T08:41:49Z</time>
      </trkpt>
      <trkpt lat="42.88036" lon="0.19571">
        <ele>2367</ele>
        <time>2018-04-14T08:41:52Z</time>
      </trkpt>
      <trkpt lat="42.88039" lon="0.19581">
        <ele>2361</ele>
        <time>2018-04-14T08:41:54Z</time>
      </trkpt>
      <trkpt lat="42.88035" lon="0.19594">
        <ele>2359</ele>
        <time>2018-04-14T08:41:56Z</time>
      </trkpt>
      <trkpt lat="42.88028" lon="0.19611">
        <ele>2357</ele>
        <time>2018-04-14T08:41:59Z</time>
      </trkpt>
      <trkpt lat="42.88025" lon="0.19615">
        <ele>2356</ele>
        <time>2018-04-14T08:42:00Z</time>
      </trkpt>
      <trkpt lat="42.88029" lon="0.19627">
        <ele>2351</ele>
        <time>2018-04-14T08:42:03Z</time>
      </trkpt>
      <trkpt lat="42.8803" lon="0.19633">
        <ele>2347</ele>
        <time>2018-04-14T08:42:04Z</time>
      </trkpt>
      <trkpt lat="42.88027" lon="0.19647">
        <ele>2344</ele>
        <time>2018-04-14T08:42:06Z</time>
      </trkpt>
      <trkpt lat="42.88014" lon="0.19672">
        <ele>2337</ele>
        <time>2018-04-14T08:42:11Z</time>
      </trkpt>
      <trkpt lat="42.88014" lon="0.19682">
        <ele>2333</ele>
        <time>2018-04-14T08:42:13Z</time>
      </trkpt>
      <trkpt lat="42.88012" lon="0.19713">
        <ele>2326</ele>
        <time>2018-04-14T08:42:18Z</time>
      </trkpt>
      <trkpt lat="42.88008" lon="0.19726">
        <ele>2321</ele>
        <time>2018-04-14T08:42:20Z</time>
      </trkpt>
      <trkpt lat="42.88009" lon="0.19754">
        <ele>2314</ele>
        <time>2018-04-14T08:42:24Z</time>
      </trkpt>
      <trkpt lat="42.88004" lon="0.19765">
        <ele>2310</ele>
        <time>2018-04-14T08:42:26Z</time>
      </trkpt>
      <trkpt lat="42.88003" lon="0.19769">
        <ele>2309</ele>
        <time>2018-04-14T08:42:27Z</time>
      </trkpt>
      <trkpt lat="42.88003" lon="0.19788">
        <ele>2304</ele>
        <time>2018-04-14T08:42:30Z</time>
      </trkpt>
      <trkpt lat="42.88003" lon="0.19807">
        <ele>2301</ele>
        <time>2018-04-14T08:42:32Z</time>
      </trkpt>
      <trkpt lat="42.88008" lon="0.19841">
        <ele>2294</ele>
        <time>2018-04-14T08:42:36Z</time>
      </trkpt>
      <trkpt lat="42.88006" lon="0.19853">
        <ele>2292</ele>
        <time>2018-04-14T08:42:38Z</time>
      </trkpt>
      <trkpt lat="42.88001" lon="0.19882">
        <ele>2290</ele>
        <time>2018-04-14T08:42:43Z</time>
      </trkpt>
      <trkpt lat="42.88009" lon="0.19904">
        <ele>2281</ele>
        <time>2018-04-14T08:42:47Z</time>
      </trkpt>
      <trkpt lat="42.88008" lon="0.19905">
        <ele>2280</ele>
        <time>2018-04-14T08:42:48Z</time>
      </trkpt>
      <trkpt lat="42.88011" lon="0.19903">
        <ele>2280</ele>
        <time>2018-04-14T08:42:58Z</time>
      </trkpt>
      <trkpt lat="42.88012" lon="0.19918">
        <ele>2276</ele>
        <time>2018-04-14T08:43:04Z</time>
      </trkpt>
      <trkpt lat="42.88018" lon="0.19925">
        <ele>2273</ele>
        <time>2018-04-14T08:43:06Z</time>
      </trkpt>
      <trkpt lat="42.88017" lon="0.1993">
        <ele>2269</ele>
        <time>2018-04-14T08:43:07Z</time>
      </trkpt>
      <trkpt lat="42.88009" lon="0.19943">
        <ele>2266</ele>
        <time>2018-04-14T08:43:10Z</time>
      </trkpt>
      <trkpt lat="42.8801" lon="0.19951">
        <ele>2263</ele>
        <time>2018-04-14T08:43:12Z</time>
      </trkpt>
      <trkpt lat="42.88014" lon="0.19962">
        <ele>2256</ele>
        <time>2018-04-14T08:43:14Z</time>
      </trkpt>
      <trkpt lat="42.88011" lon="0.19973">
        <ele>2253</ele>
        <time>2018-04-14T08:43:16Z</time>
      </trkpt>
      <trkpt lat="42.88011" lon="0.19982">
        <ele>2249</ele>
        <time>2018-04-14T08:43:18Z</time>
      </trkpt>
      <trkpt lat="42.88013" lon="0.19988">
        <ele>2246</ele>
        <time>2018-04-14T08:43:19Z</time>
      </trkpt>
      <trkpt lat="42.88015" lon="0.19996">
        <ele>2243</ele>
        <time>2018-04-14T08:43:21Z</time>
      </trkpt>
      <trkpt lat="42.88028" lon="0.20002">
        <ele>2239</ele>
        <time>2018-04-14T08:43:25Z</time>
      </trkpt>
      <trkpt lat="42.88026" lon="0.20012">
        <ele>2235</ele>
        <time>2018-04-14T08:43:27Z</time>
      </trkpt>
      <trkpt lat="42.88021" lon="0.20022">
        <ele>2233</ele>
        <time>2018-04-14T08:43:29Z</time>
      </trkpt>
      <trkpt lat="42.88019" lon="0.2003">
        <ele>2230</ele>
        <time>2018-04-14T08:43:31Z</time>
      </trkpt>
      <trkpt lat="42.88022" lon="0.20043">
        <ele>2225</ele>
        <time>2018-04-14T08:43:33Z</time>
      </trkpt>
      <trkpt lat="42.88018" lon="0.20059">
        <ele>2221</ele>
        <time>2018-04-14T08:43:35Z</time>
      </trkpt>
      <trkpt lat="42.88015" lon="0.20073">
        <ele>2219</ele>
        <time>2018-04-14T08:43:37Z</time>
      </trkpt>
      <trkpt lat="42.88019" lon="0.20087">
        <ele>2215</ele>
        <time>2018-04-14T08:43:39Z</time>
      </trkpt>
      <trkpt lat="42.88018" lon="0.20097">
        <ele>2214</ele>
        <time>2018-04-14T08:43:41Z</time>
      </trkpt>
      <trkpt lat="42.87993" lon="0.2014">
        <ele>2210</ele>
        <time>2018-04-14T08:43:52Z</time>
      </trkpt>
      <trkpt lat="42.87984" lon="0.20162">
        <ele>2208</ele>
        <time>2018-04-14T08:43:58Z</time>
      </trkpt>
      <trkpt lat="42.87979" lon="0.20171">
        <ele>2207</ele>
        <time>2018-04-14T08:44:00Z</time>
      </trkpt>
      <trkpt lat="42.87976" lon="0.20181">
        <ele>2203</ele>
        <time>2018-04-14T08:44:03Z</time>
      </trkpt>
      <trkpt lat="42.87982" lon="0.20181">
        <ele>2200</ele>
        <time>2018-04-14T08:44:05Z</time>
      </trkpt>
      <trkpt lat="42.87992" lon="0.20188">
        <ele>2195</ele>
        <time>2018-04-14T08:44:08Z</time>
      </trkpt>
      <trkpt lat="42.87995" lon="0.20207">
        <ele>2189</ele>
        <time>2018-04-14T08:44:12Z</time>
      </trkpt>
      <trkpt lat="42.87997" lon="0.20209">
        <ele>2187</ele>
        <time>2018-04-14T08:44:13Z</time>
      </trkpt>
      <trkpt lat="42.87999" lon="0.2022">
        <ele>2183</ele>
        <time>2018-04-14T08:44:17Z</time>
      </trkpt>
      <trkpt lat="42.87999" lon="0.20222">
        <ele>2184</ele>
        <time>2018-04-14T08:44:28Z</time>
      </trkpt>
      <trkpt lat="42.87999" lon="0.20222">
        <ele>2185</ele>
        <time>2018-04-14T08:44:43Z</time>
      </trkpt>
      <trkpt lat="42.88001" lon="0.20221">
        <ele>2185</ele>
        <time>2018-04-14T08:45:02Z</time>
      </trkpt>
      <trkpt lat="42.88" lon="0.20219">
        <ele>2185</ele>
        <time>2018-04-14T08:45:22Z</time>
      </trkpt>
      <trkpt lat="42.88" lon="0.20216">
        <ele>2185</ele>
        <time>2018-04-14T08:45:37Z</time>
      </trkpt>
      <trkpt lat="42.87998" lon="0.20212">
        <ele>2185</ele>
        <time>2018-04-14T08:45:52Z</time>
      </trkpt>
      <trkpt lat="42.87996" lon="0.20212">
        <ele>2184</ele>
        <time>2018-04-14T08:46:24Z</time>
      </trkpt>
      <trkpt lat="42.87996" lon="0.20213">
        <ele>2185</ele>
        <time>2018-04-14T08:46:58Z</time>
      </trkpt>
      <trkpt lat="42.87993" lon="0.20212">
        <ele>2185</ele>
        <time>2018-04-14T08:47:31Z</time>
      </trkpt>
      <trkpt lat="42.87999" lon="0.20213">
        <ele>2184</ele>
        <time>2018-04-14T08:48:10Z</time>
      </trkpt>
      <trkpt lat="42.87998" lon="0.20214">
        <ele>2184</ele>
        <time>2018-04-14T08:48:40Z</time>
      </trkpt>
      <trkpt lat="42.87996" lon="0.20213">
        <ele>2185</ele>
        <time>2018-04-14T08:49:24Z</time>
      </trkpt>
      <trkpt lat="42.87998" lon="0.20212">
        <ele>2185</ele>
        <time>2018-04-14T08:50:04Z</time>
      </trkpt>
      <trkpt lat="42.87998" lon="0.20214">
        <ele>2185</ele>
        <time>2018-04-14T08:50:31Z</time>
      </trkpt>
      <trkpt lat="42.87999" lon="0.20217">
        <ele>2185</ele>
        <time>2018-04-14T08:50:59Z</time>
      </trkpt>
      <trkpt lat="42.88" lon="0.20213">
        <ele>2185</ele>
        <time>2018-04-14T08:51:28Z</time>
      </trkpt>
      <trkpt lat="42.87999" lon="0.20219">
        <ele>2186</ele>
        <time>2018-04-14T08:51:55Z</time>
      </trkpt>
      <trkpt lat="42.88" lon="0.20217">
        <ele>2185</ele>
        <time>2018-04-14T08:52:27Z</time>
      </trkpt>
      <trkpt lat="42.88" lon="0.2022">
        <ele>2185</ele>
        <time>2018-04-14T08:53:00Z</time>
      </trkpt>
      <trkpt lat="42.88002" lon="0.20222">
        <ele>2186</ele>
        <time>2018-04-14T08:53:20Z</time>
      </trkpt>
      <trkpt lat="42.88004" lon="0.20222">
        <ele>2186</ele>
        <time>2018-04-14T08:53:35Z</time>
      </trkpt>
      <trkpt lat="42.88004" lon="0.20222">
        <ele>2186</ele>
        <time>2018-04-14T08:53:59Z</time>
      </trkpt>
      <trkpt lat="42.88004" lon="0.20224">
        <ele>2186</ele>
        <time>2018-04-14T08:54:20Z</time>
      </trkpt>
      <trkpt lat="42.88002" lon="0.20224">
        <ele>2186</ele>
        <time>2018-04-14T08:54:39Z</time>
      </trkpt>
      <trkpt lat="42.88" lon="0.20226">
        <ele>2187</ele>
        <time>2018-04-14T08:54:56Z</time>
      </trkpt>
      <trkpt lat="42.87998" lon="0.20228">
        <ele>2189</ele>
        <time>2018-04-14T08:55:08Z</time>
      </trkpt>
      <trkpt lat="42.87997" lon="0.20234">
        <ele>2190</ele>
        <time>2018-04-14T08:55:23Z</time>
      </trkpt>
      <trkpt lat="42.87996" lon="0.2024">
        <ele>2192</ele>
        <time>2018-04-14T08:55:41Z</time>
      </trkpt>
      <trkpt lat="42.87995" lon="0.20245">
        <ele>2191</ele>
        <time>2018-04-14T08:56:08Z</time>
      </trkpt>
      <trkpt lat="42.87991" lon="0.20249">
        <ele>2194</ele>
        <time>2018-04-14T08:56:22Z</time>
      </trkpt>
      <trkpt lat="42.87991" lon="0.20261">
        <ele>2197</ele>
        <time>2018-04-14T08:56:38Z</time>
      </trkpt>
      <trkpt lat="42.87994" lon="0.20275">
        <ele>2200</ele>
        <time>2018-04-14T08:56:53Z</time>
      </trkpt>
      <trkpt lat="42.87991" lon="0.20278">
        <ele>2201</ele>
        <time>2018-04-14T08:57:09Z</time>
      </trkpt>
      <trkpt lat="42.87977" lon="0.20274">
        <ele>2203</ele>
        <time>2018-04-14T08:57:25Z</time>
      </trkpt>
      <trkpt lat="42.87967" lon="0.20269">
        <ele>2205</ele>
        <time>2018-04-14T08:57:38Z</time>
      </trkpt>
      <trkpt lat="42.87961" lon="0.20256">
        <ele>2207</ele>
        <time>2018-04-14T08:57:53Z</time>
      </trkpt>
      <trkpt lat="42.87955" lon="0.20248">
        <ele>2209</ele>
        <time>2018-04-14T08:58:07Z</time>
      </trkpt>
      <trkpt lat="42.87961" lon="0.20253">
        <ele>2211</ele>
        <time>2018-04-14T08:58:18Z</time>
      </trkpt>
      <trkpt lat="42.87962" lon="0.20264">
        <ele>2213</ele>
        <time>2018-04-14T08:58:32Z</time>
      </trkpt>
      <trkpt lat="42.8796" lon="0.20276">
        <ele>2214</ele>
        <time>2018-04-14T08:58:50Z</time>
      </trkpt>
      <trkpt lat="42.8796" lon="0.20288">
        <ele>2217</ele>
        <time>2018-04-14T08:59:06Z</time>
      </trkpt>
      <trkpt lat="42.87959" lon="0.20302">
        <ele>2219</ele>
        <time>2018-04-14T08:59:22Z</time>
      </trkpt>
      <trkpt lat="42.87953" lon="0.20299">
        <ele>2221</ele>
        <time>2018-04-14T08:59:35Z</time>
      </trkpt>
      <trkpt lat="42.87946" lon="0.20289">
        <ele>2224</ele>
        <time>2018-04-14T08:59:53Z</time>
      </trkpt>
      <trkpt lat="42.87937" lon="0.20278">
        <ele>2226</ele>
        <time>2018-04-14T09:00:08Z</time>
      </trkpt>
      <trkpt lat="42.87929" lon="0.20271">
        <ele>2227</ele>
        <time>2018-04-14T09:00:21Z</time>
      </trkpt>
      <trkpt lat="42.87924" lon="0.2027">
        <ele>2229</ele>
        <time>2018-04-14T09:00:35Z</time>
      </trkpt>
      <trkpt lat="42.87926" lon="0.20284">
        <ele>2232</ele>
        <time>2018-04-14T09:00:50Z</time>
      </trkpt>
      <trkpt lat="42.87925" lon="0.20293">
        <ele>2234</ele>
        <time>2018-04-14T09:01:08Z</time>
      </trkpt>
      <trkpt lat="42.87913" lon="0.20292">
        <ele>2236</ele>
        <time>2018-04-14T09:01:25Z</time>
      </trkpt>
      <trkpt lat="42.87905" lon="0.20287">
        <ele>2239</ele>
        <time>2018-04-14T09:01:44Z</time>
      </trkpt>
      <trkpt lat="42.87902" lon="0.20289">
        <ele>2240</ele>
        <time>2018-04-14T09:01:59Z</time>
      </trkpt>
      <trkpt lat="42.87898" lon="0.20299">
        <ele>2242</ele>
        <time>2018-04-14T09:02:17Z</time>
      </trkpt>
      <trkpt lat="42.87901" lon="0.20311">
        <ele>2244</ele>
        <time>2018-04-14T09:02:33Z</time>
      </trkpt>
      <trkpt lat="42.8791" lon="0.20322">
        <ele>2247</ele>
        <time>2018-04-14T09:02:51Z</time>
      </trkpt>
      <trkpt lat="42.87913" lon="0.2033">
        <ele>2249</ele>
        <time>2018-04-14T09:03:04Z</time>
      </trkpt>
      <trkpt lat="42.87905" lon="0.20334">
        <ele>2251</ele>
        <time>2018-04-14T09:03:17Z</time>
      </trkpt>
      <trkpt lat="42.87896" lon="0.20336">
        <ele>2253</ele>
        <time>2018-04-14T09:03:33Z</time>
      </trkpt>
      <trkpt lat="42.87889" lon="0.20342">
        <ele>2255</ele>
        <time>2018-04-14T09:03:46Z</time>
      </trkpt>
      <trkpt lat="42.87884" lon="0.20344">
        <ele>2256</ele>
        <time>2018-04-14T09:04:03Z</time>
      </trkpt>
      <trkpt lat="42.87872" lon="0.20343">
        <ele>2259</ele>
        <time>2018-04-14T09:04:25Z</time>
      </trkpt>
      <trkpt lat="42.87864" lon="0.2034">
        <ele>2261</ele>
        <time>2018-04-14T09:04:40Z</time>
      </trkpt>
      <trkpt lat="42.87863" lon="0.20344">
        <ele>2263</ele>
        <time>2018-04-14T09:04:53Z</time>
      </trkpt>
      <trkpt lat="42.87858" lon="0.20361">
        <ele>2265</ele>
        <time>2018-04-14T09:05:12Z</time>
      </trkpt>
      <trkpt lat="42.87854" lon="0.20372">
        <ele>2267</ele>
        <time>2018-04-14T09:05:28Z</time>
      </trkpt>
      <trkpt lat="42.87847" lon="0.20384">
        <ele>2268</ele>
        <time>2018-04-14T09:05:45Z</time>
      </trkpt>
      <trkpt lat="42.87837" lon="0.20393">
        <ele>2271</ele>
        <time>2018-04-14T09:06:03Z</time>
      </trkpt>
      <trkpt lat="42.8783" lon="0.20398">
        <ele>2273</ele>
        <time>2018-04-14T09:06:22Z</time>
      </trkpt>
      <trkpt lat="42.87831" lon="0.20398">
        <ele>2274</ele>
        <time>2018-04-14T09:06:31Z</time>
      </trkpt>
      <trkpt lat="42.87818" lon="0.20404">
        <ele>2276</ele>
        <time>2018-04-14T09:06:47Z</time>
      </trkpt>
      <trkpt lat="42.87807" lon="0.20415">
        <ele>2277</ele>
        <time>2018-04-14T09:07:04Z</time>
      </trkpt>
      <trkpt lat="42.87798" lon="0.20425">
        <ele>2279</ele>
        <time>2018-04-14T09:07:19Z</time>
      </trkpt>
      <trkpt lat="42.87792" lon="0.20433">
        <ele>2280</ele>
        <time>2018-04-14T09:07:31Z</time>
      </trkpt>
      <trkpt lat="42.87789" lon="0.20436">
        <ele>2281</ele>
        <time>2018-04-14T09:07:35Z</time>
      </trkpt>
      <trkpt lat="42.87779" lon="0.20445">
        <ele>2282</ele>
        <time>2018-04-14T09:07:50Z</time>
      </trkpt>
      <trkpt lat="42.87772" lon="0.20453">
        <ele>2284</ele>
        <time>2018-04-14T09:08:05Z</time>
      </trkpt>
      <trkpt lat="42.87772" lon="0.20451">
        <ele>2284</ele>
        <time>2018-04-14T09:08:26Z</time>
      </trkpt>
      <trkpt lat="42.87769" lon="0.20455">
        <ele>2285</ele>
        <time>2018-04-14T09:08:38Z</time>
      </trkpt>
      <trkpt lat="42.87767" lon="0.20456">
        <ele>2284</ele>
        <time>2018-04-14T09:08:40Z</time>
      </trkpt>
      <trkpt lat="42.87754" lon="0.20457">
        <ele>2287</ele>
        <time>2018-04-14T09:08:56Z</time>
      </trkpt>
      <trkpt lat="42.87741" lon="0.20454">
        <ele>2288</ele>
        <time>2018-04-14T09:09:11Z</time>
      </trkpt>
      <trkpt lat="42.87737" lon="0.2045">
        <ele>2288</ele>
        <time>2018-04-14T09:09:17Z</time>
      </trkpt>
      <trkpt lat="42.87734" lon="0.2045">
        <ele>2289</ele>
        <time>2018-04-14T09:09:21Z</time>
      </trkpt>
      <trkpt lat="42.87726" lon="0.20446">
        <ele>2290</ele>
        <time>2018-04-14T09:09:31Z</time>
      </trkpt>
      <trkpt lat="42.87718" lon="0.20449">
        <ele>2292</ele>
        <time>2018-04-14T09:09:46Z</time>
      </trkpt>
      <trkpt lat="42.87715" lon="0.20437">
        <ele>2294</ele>
        <time>2018-04-14T09:10:01Z</time>
      </trkpt>
      <trkpt lat="42.87714" lon="0.2043">
        <ele>2295</ele>
        <time>2018-04-14T09:10:19Z</time>
      </trkpt>
      <trkpt lat="42.87714" lon="0.20423">
        <ele>2297</ele>
        <time>2018-04-14T09:10:31Z</time>
      </trkpt>
      <trkpt lat="42.87721" lon="0.20416">
        <ele>2298</ele>
        <time>2018-04-14T09:10:44Z</time>
      </trkpt>
      <trkpt lat="42.87728" lon="0.20412">
        <ele>2302</ele>
        <time>2018-04-14T09:11:00Z</time>
      </trkpt>
      <trkpt lat="42.87734" lon="0.20405">
        <ele>2303</ele>
        <time>2018-04-14T09:11:16Z</time>
      </trkpt>
      <trkpt lat="42.87738" lon="0.20403">
        <ele>2304</ele>
        <time>2018-04-14T09:11:28Z</time>
      </trkpt>
      <trkpt lat="42.87737" lon="0.20403">
        <ele>2304</ele>
        <time>2018-04-14T09:11:42Z</time>
      </trkpt>
      <trkpt lat="42.87725" lon="0.20396">
        <ele>2306</ele>
        <time>2018-04-14T09:11:59Z</time>
      </trkpt>
      <trkpt lat="42.87718" lon="0.20389">
        <ele>2309</ele>
        <time>2018-04-14T09:12:13Z</time>
      </trkpt>
      <trkpt lat="42.87711" lon="0.20384">
        <ele>2311</ele>
        <time>2018-04-14T09:12:29Z</time>
      </trkpt>
      <trkpt lat="42.87709" lon="0.20381">
        <ele>2312</ele>
        <time>2018-04-14T09:12:41Z</time>
      </trkpt>
      <trkpt lat="42.87718" lon="0.20377">
        <ele>2314</ele>
        <time>2018-04-14T09:12:58Z</time>
      </trkpt>
      <trkpt lat="42.87723" lon="0.20373">
        <ele>2315</ele>
        <time>2018-04-14T09:13:10Z</time>
      </trkpt>
      <trkpt lat="42.87721" lon="0.20371">
        <ele>2315</ele>
        <time>2018-04-14T09:13:24Z</time>
      </trkpt>
      <trkpt lat="42.87714" lon="0.20364">
        <ele>2317</ele>
        <time>2018-04-14T09:13:39Z</time>
      </trkpt>
      <trkpt lat="42.87707" lon="0.20366">
        <ele>2320</ele>
        <time>2018-04-14T09:13:53Z</time>
      </trkpt>
      <trkpt lat="42.87702" lon="0.20365">
        <ele>2321</ele>
        <time>2018-04-14T09:14:09Z</time>
      </trkpt>
      <trkpt lat="42.877" lon="0.20355">
        <ele>2322</ele>
        <time>2018-04-14T09:14:24Z</time>
      </trkpt>
      <trkpt lat="42.87697" lon="0.20345">
        <ele>2326</ele>
        <time>2018-04-14T09:14:40Z</time>
      </trkpt>
      <trkpt lat="42.877" lon="0.20337">
        <ele>2327</ele>
        <time>2018-04-14T09:14:53Z</time>
      </trkpt>
      <trkpt lat="42.8771" lon="0.2033">
        <ele>2330</ele>
        <time>2018-04-14T09:15:09Z</time>
      </trkpt>
      <trkpt lat="42.87718" lon="0.20329">
        <ele>2333</ele>
        <time>2018-04-14T09:15:23Z</time>
      </trkpt>
      <trkpt lat="42.87718" lon="0.20321">
        <ele>2335</ele>
        <time>2018-04-14T09:15:38Z</time>
      </trkpt>
      <trkpt lat="42.87712" lon="0.20309">
        <ele>2338</ele>
        <time>2018-04-14T09:15:54Z</time>
      </trkpt>
      <trkpt lat="42.87708" lon="0.20295">
        <ele>2339</ele>
        <time>2018-04-14T09:16:11Z</time>
      </trkpt>
      <trkpt lat="42.87704" lon="0.2028">
        <ele>2340</ele>
        <time>2018-04-14T09:16:27Z</time>
      </trkpt>
      <trkpt lat="42.87706" lon="0.20263">
        <ele>2342</ele>
        <time>2018-04-14T09:16:45Z</time>
      </trkpt>
      <trkpt lat="42.87708" lon="0.20249">
        <ele>2344</ele>
        <time>2018-04-14T09:17:01Z</time>
      </trkpt>
      <trkpt lat="42.87715" lon="0.20233">
        <ele>2345</ele>
        <time>2018-04-14T09:17:18Z</time>
      </trkpt>
      <trkpt lat="42.8772" lon="0.20228">
        <ele>2346</ele>
        <time>2018-04-14T09:17:26Z</time>
      </trkpt>
      <trkpt lat="42.87723" lon="0.20222">
        <ele>2346</ele>
        <time>2018-04-14T09:17:39Z</time>
      </trkpt>
      <trkpt lat="42.87723" lon="0.20219">
        <ele>2347</ele>
        <time>2018-04-14T09:17:55Z</time>
      </trkpt>
      <trkpt lat="42.87725" lon="0.20219">
        <ele>2348</ele>
        <time>2018-04-14T09:18:07Z</time>
      </trkpt>
      <trkpt lat="42.87729" lon="0.20214">
        <ele>2349</ele>
        <time>2018-04-14T09:18:21Z</time>
      </trkpt>
      <trkpt lat="42.87734" lon="0.20205">
        <ele>2350</ele>
        <time>2018-04-14T09:18:34Z</time>
      </trkpt>
      <trkpt lat="42.87727" lon="0.20207">
        <ele>2352</ele>
        <time>2018-04-14T09:18:48Z</time>
      </trkpt>
      <trkpt lat="42.87721" lon="0.20209">
        <ele>2353</ele>
        <time>2018-04-14T09:18:58Z</time>
      </trkpt>
      <trkpt lat="42.8771" lon="0.20209">
        <ele>2357</ele>
        <time>2018-04-14T09:19:19Z</time>
      </trkpt>
      <trkpt lat="42.87704" lon="0.20211">
        <ele>2358</ele>
        <time>2018-04-14T09:19:44Z</time>
      </trkpt>
      <trkpt lat="42.87695" lon="0.2021">
        <ele>2360</ele>
        <time>2018-04-14T09:20:01Z</time>
      </trkpt>
      <trkpt lat="42.87694" lon="0.20204">
        <ele>2361</ele>
        <time>2018-04-14T09:20:20Z</time>
      </trkpt>
      <trkpt lat="42.87688" lon="0.20197">
        <ele>2363</ele>
        <time>2018-04-14T09:20:36Z</time>
      </trkpt>
      <trkpt lat="42.8768" lon="0.20189">
        <ele>2365</ele>
        <time>2018-04-14T09:20:53Z</time>
      </trkpt>
      <trkpt lat="42.87671" lon="0.20187">
        <ele>2367</ele>
        <time>2018-04-14T09:21:07Z</time>
      </trkpt>
      <trkpt lat="42.87664" lon="0.20184">
        <ele>2368</ele>
        <time>2018-04-14T09:21:22Z</time>
      </trkpt>
      <trkpt lat="42.87655" lon="0.2018">
        <ele>2370</ele>
        <time>2018-04-14T09:21:37Z</time>
      </trkpt>
      <trkpt lat="42.87652" lon="0.20167">
        <ele>2372</ele>
        <time>2018-04-14T09:21:53Z</time>
      </trkpt>
      <trkpt lat="42.8765" lon="0.20152">
        <ele>2375</ele>
        <time>2018-04-14T09:22:11Z</time>
      </trkpt>
      <trkpt lat="42.87649" lon="0.20142">
        <ele>2376</ele>
        <time>2018-04-14T09:22:25Z</time>
      </trkpt>
      <trkpt lat="42.87651" lon="0.20142">
        <ele>2377</ele>
        <time>2018-04-14T09:22:38Z</time>
      </trkpt>
      <trkpt lat="42.87646" lon="0.20148">
        <ele>2379</ele>
        <time>2018-04-14T09:22:56Z</time>
      </trkpt>
      <trkpt lat="42.8764" lon="0.20154">
        <ele>2381</ele>
        <time>2018-04-14T09:23:18Z</time>
      </trkpt>
      <trkpt lat="42.87634" lon="0.20154">
        <ele>2383</ele>
        <time>2018-04-14T09:23:31Z</time>
      </trkpt>
      <trkpt lat="42.87632" lon="0.20144">
        <ele>2384</ele>
        <time>2018-04-14T09:23:44Z</time>
      </trkpt>
      <trkpt lat="42.87635" lon="0.20136">
        <ele>2386</ele>
        <time>2018-04-14T09:23:55Z</time>
      </trkpt>
      <trkpt lat="42.87637" lon="0.20126">
        <ele>2387</ele>
        <time>2018-04-14T09:24:10Z</time>
      </trkpt>
      <trkpt lat="42.87643" lon="0.20117">
        <ele>2389</ele>
        <time>2018-04-14T09:24:29Z</time>
      </trkpt>
      <trkpt lat="42.87652" lon="0.20108">
        <ele>2392</ele>
        <time>2018-04-14T09:24:50Z</time>
      </trkpt>
      <trkpt lat="42.87658" lon="0.20103">
        <ele>2393</ele>
        <time>2018-04-14T09:25:07Z</time>
      </trkpt>
      <trkpt lat="42.87647" lon="0.20101">
        <ele>2395</ele>
        <time>2018-04-14T09:25:26Z</time>
      </trkpt>
      <trkpt lat="42.87634" lon="0.20099">
        <ele>2397</ele>
        <time>2018-04-14T09:25:45Z</time>
      </trkpt>
      <trkpt lat="42.87623" lon="0.20103">
        <ele>2399</ele>
        <time>2018-04-14T09:26:02Z</time>
      </trkpt>
      <trkpt lat="42.87615" lon="0.20111">
        <ele>2401</ele>
        <time>2018-04-14T09:26:20Z</time>
      </trkpt>
      <trkpt lat="42.87612" lon="0.20113">
        <ele>2401</ele>
        <time>2018-04-14T09:26:43Z</time>
      </trkpt>
      <trkpt lat="42.87604" lon="0.20114">
        <ele>2403</ele>
        <time>2018-04-14T09:26:55Z</time>
      </trkpt>
      <trkpt lat="42.87598" lon="0.20112">
        <ele>2405</ele>
        <time>2018-04-14T09:27:07Z</time>
      </trkpt>
      <trkpt lat="42.87589" lon="0.20112">
        <ele>2407</ele>
        <time>2018-04-14T09:27:22Z</time>
      </trkpt>
      <trkpt lat="42.87575" lon="0.20104">
        <ele>2410</ele>
        <time>2018-04-14T09:27:44Z</time>
      </trkpt>
      <trkpt lat="42.87569" lon="0.20097">
        <ele>2412</ele>
        <time>2018-04-14T09:28:02Z</time>
      </trkpt>
      <trkpt lat="42.87564" lon="0.20084">
        <ele>2414</ele>
        <time>2018-04-14T09:28:19Z</time>
      </trkpt>
      <trkpt lat="42.87559" lon="0.20074">
        <ele>2416</ele>
        <time>2018-04-14T09:28:30Z</time>
      </trkpt>
      <trkpt lat="42.87555" lon="0.20056">
        <ele>2417</ele>
        <time>2018-04-14T09:28:46Z</time>
      </trkpt>
      <trkpt lat="42.87552" lon="0.20047">
        <ele>2416</ele>
        <time>2018-04-14T09:28:54Z</time>
      </trkpt>
      <trkpt lat="42.8755" lon="0.20041">
        <ele>2418</ele>
        <time>2018-04-14T09:29:00Z</time>
      </trkpt>
      <trkpt lat="42.87548" lon="0.20035">
        <ele>2418</ele>
        <time>2018-04-14T09:29:14Z</time>
      </trkpt>
      <trkpt lat="42.87546" lon="0.20019">
        <ele>2420</ele>
        <time>2018-04-14T09:29:29Z</time>
      </trkpt>
      <trkpt lat="42.87547" lon="0.20005">
        <ele>2421</ele>
        <time>2018-04-14T09:29:45Z</time>
      </trkpt>
      <trkpt lat="42.87548" lon="0.20003">
        <ele>2421</ele>
        <time>2018-04-14T09:29:47Z</time>
      </trkpt>
      <trkpt lat="42.87555" lon="0.1999">
        <ele>2423</ele>
        <time>2018-04-14T09:30:03Z</time>
      </trkpt>
      <trkpt lat="42.87564" lon="0.19983">
        <ele>2425</ele>
        <time>2018-04-14T09:30:17Z</time>
      </trkpt>
      <trkpt lat="42.87565" lon="0.19979">
        <ele>2426</ele>
        <time>2018-04-14T09:30:29Z</time>
      </trkpt>
      <trkpt lat="42.87562" lon="0.19974">
        <ele>2427</ele>
        <time>2018-04-14T09:30:37Z</time>
      </trkpt>
      <trkpt lat="42.87553" lon="0.19971">
        <ele>2430</ele>
        <time>2018-04-14T09:30:53Z</time>
      </trkpt>
      <trkpt lat="42.87543" lon="0.19965">
        <ele>2433</ele>
        <time>2018-04-14T09:31:09Z</time>
      </trkpt>
      <trkpt lat="42.87543" lon="0.19948">
        <ele>2435</ele>
        <time>2018-04-14T09:31:27Z</time>
      </trkpt>
      <trkpt lat="42.87539" lon="0.19932">
        <ele>2437</ele>
        <time>2018-04-14T09:31:44Z</time>
      </trkpt>
      <trkpt lat="42.87537" lon="0.19913">
        <ele>2439</ele>
        <time>2018-04-14T09:32:01Z</time>
      </trkpt>
      <trkpt lat="42.87536" lon="0.19901">
        <ele>2441</ele>
        <time>2018-04-14T09:32:16Z</time>
      </trkpt>
      <trkpt lat="42.87528" lon="0.19886">
        <ele>2444</ele>
        <time>2018-04-14T09:32:35Z</time>
      </trkpt>
      <trkpt lat="42.87521" lon="0.19874">
        <ele>2447</ele>
        <time>2018-04-14T09:32:51Z</time>
      </trkpt>
      <trkpt lat="42.87513" lon="0.19866">
        <ele>2448</ele>
        <time>2018-04-14T09:33:04Z</time>
      </trkpt>
      <trkpt lat="42.8751" lon="0.19855">
        <ele>2450</ele>
        <time>2018-04-14T09:33:20Z</time>
      </trkpt>
      <trkpt lat="42.87508" lon="0.19841">
        <ele>2452</ele>
        <time>2018-04-14T09:33:37Z</time>
      </trkpt>
      <trkpt lat="42.87506" lon="0.19828">
        <ele>2455</ele>
        <time>2018-04-14T09:33:55Z</time>
      </trkpt>
      <trkpt lat="42.87511" lon="0.19827">
        <ele>2455</ele>
        <time>2018-04-14T09:34:17Z</time>
      </trkpt>
      <trkpt lat="42.87504" lon="0.19829">
        <ele>2457</ele>
        <time>2018-04-14T09:34:31Z</time>
      </trkpt>
      <trkpt lat="42.87499" lon="0.19817">
        <ele>2459</ele>
        <time>2018-04-14T09:34:45Z</time>
      </trkpt>
      <trkpt lat="42.87498" lon="0.19805">
        <ele>2461</ele>
        <time>2018-04-14T09:35:02Z</time>
      </trkpt>
      <trkpt lat="42.87496" lon="0.19795">
        <ele>2463</ele>
        <time>2018-04-14T09:35:17Z</time>
      </trkpt>
      <trkpt lat="42.87496" lon="0.19791">
        <ele>2464</ele>
        <time>2018-04-14T09:35:22Z</time>
      </trkpt>
      <trkpt lat="42.87497" lon="0.19789">
        <ele>2464</ele>
        <time>2018-04-14T09:35:24Z</time>
      </trkpt>
      <trkpt lat="42.87507" lon="0.19778">
        <ele>2466</ele>
        <time>2018-04-14T09:35:41Z</time>
      </trkpt>
      <trkpt lat="42.87516" lon="0.19777">
        <ele>2467</ele>
        <time>2018-04-14T09:35:55Z</time>
      </trkpt>
      <trkpt lat="42.87516" lon="0.19768">
        <ele>2470</ele>
        <time>2018-04-14T09:36:09Z</time>
      </trkpt>
      <trkpt lat="42.87509" lon="0.19762">
        <ele>2473</ele>
        <time>2018-04-14T09:36:25Z</time>
      </trkpt>
      <trkpt lat="42.875" lon="0.1976">
        <ele>2475</ele>
        <time>2018-04-14T09:36:40Z</time>
      </trkpt>
      <trkpt lat="42.87493" lon="0.1976">
        <ele>2476</ele>
        <time>2018-04-14T09:37:05Z</time>
      </trkpt>
      <trkpt lat="42.87487" lon="0.19758">
        <ele>2478</ele>
        <time>2018-04-14T09:37:22Z</time>
      </trkpt>
      <trkpt lat="42.87493" lon="0.19747">
        <ele>2479</ele>
        <time>2018-04-14T09:37:39Z</time>
      </trkpt>
      <trkpt lat="42.87492" lon="0.19741">
        <ele>2480</ele>
        <time>2018-04-14T09:37:56Z</time>
      </trkpt>
      <trkpt lat="42.87491" lon="0.19742">
        <ele>2480</ele>
        <time>2018-04-14T09:38:15Z</time>
      </trkpt>
      <trkpt lat="42.87489" lon="0.19742">
        <ele>2481</ele>
        <time>2018-04-14T09:38:37Z</time>
      </trkpt>
      <trkpt lat="42.87488" lon="0.19739">
        <ele>2481</ele>
        <time>2018-04-14T09:38:56Z</time>
      </trkpt>
      <trkpt lat="42.87485" lon="0.19739">
        <ele>2481</ele>
        <time>2018-04-14T09:39:21Z</time>
      </trkpt>
      <trkpt lat="42.87488" lon="0.19738">
        <ele>2480</ele>
        <time>2018-04-14T09:39:32Z</time>
      </trkpt>
      <trkpt lat="42.87491" lon="0.19739">
        <ele>2480</ele>
        <time>2018-04-14T09:39:55Z</time>
      </trkpt>
      <trkpt lat="42.87489" lon="0.1974">
        <ele>2479</ele>
        <time>2018-04-14T09:40:21Z</time>
      </trkpt>
      <trkpt lat="42.87492" lon="0.19739">
        <ele>2480</ele>
        <time>2018-04-14T09:41:02Z</time>
      </trkpt>
      <trkpt lat="42.87491" lon="0.1974">
        <ele>2480</ele>
        <time>2018-04-14T09:41:38Z</time>
      </trkpt>
      <trkpt lat="42.8749" lon="0.19741">
        <ele>2479</ele>
        <time>2018-04-14T09:42:07Z</time>
      </trkpt>
      <trkpt lat="42.87489" lon="0.1974">
        <ele>2480</ele>
        <time>2018-04-14T09:42:36Z</time>
      </trkpt>
      <trkpt lat="42.87488" lon="0.19741">
        <ele>2480</ele>
        <time>2018-04-14T09:43:10Z</time>
      </trkpt>
      <trkpt lat="42.87492" lon="0.19743">
        <ele>2481</ele>
        <time>2018-04-14T09:43:46Z</time>
      </trkpt>
      <trkpt lat="42.87491" lon="0.19742">
        <ele>2481</ele>
        <time>2018-04-14T09:44:21Z</time>
      </trkpt>
      <trkpt lat="42.8749" lon="0.19742">
        <ele>2480</ele>
        <time>2018-04-14T09:45:03Z</time>
      </trkpt>
      <trkpt lat="42.87492" lon="0.19743">
        <ele>2481</ele>
        <time>2018-04-14T09:45:33Z</time>
      </trkpt>
      <trkpt lat="42.87491" lon="0.19742">
        <ele>2481</ele>
        <time>2018-04-14T09:45:58Z</time>
      </trkpt>
      <trkpt lat="42.87493" lon="0.1974">
        <ele>2481</ele>
        <time>2018-04-14T09:46:42Z</time>
      </trkpt>
      <trkpt lat="42.87491" lon="0.19742">
        <ele>2481</ele>
        <time>2018-04-14T09:47:18Z</time>
      </trkpt>
      <trkpt lat="42.87491" lon="0.19746">
        <ele>2482</ele>
        <time>2018-04-14T09:47:55Z</time>
      </trkpt>
      <trkpt lat="42.87492" lon="0.19744">
        <ele>2483</ele>
        <time>2018-04-14T09:48:32Z</time>
      </trkpt>
      <trkpt lat="42.87491" lon="0.19743">
        <ele>2483</ele>
        <time>2018-04-14T09:49:04Z</time>
      </trkpt>
      <trkpt lat="42.87494" lon="0.1974">
        <ele>2482</ele>
        <time>2018-04-14T09:49:42Z</time>
      </trkpt>
      <trkpt lat="42.87494" lon="0.19741">
        <ele>2482</ele>
        <time>2018-04-14T09:50:14Z</time>
      </trkpt>
      <trkpt lat="42.87493" lon="0.19741">
        <ele>2482</ele>
        <time>2018-04-14T09:50:48Z</time>
      </trkpt>
      <trkpt lat="42.87493" lon="0.19741">
        <ele>2482</ele>
        <time>2018-04-14T09:51:29Z</time>
      </trkpt>
      <trkpt lat="42.87493" lon="0.19741">
        <ele>2482</ele>
        <time>2018-04-14T09:52:00Z</time>
      </trkpt>
      <trkpt lat="42.87493" lon="0.19741">
        <ele>2482</ele>
        <time>2018-04-14T09:52:34Z</time>
      </trkpt>
      <trkpt lat="42.87492" lon="0.19741">
        <ele>2482</ele>
        <time>2018-04-14T09:53:06Z</time>
      </trkpt>
      <trkpt lat="42.87494" lon="0.19739">
        <ele>2482</ele>
        <time>2018-04-14T09:53:43Z</time>
      </trkpt>
      <trkpt lat="42.87493" lon="0.19741">
        <ele>2482</ele>
        <time>2018-04-14T09:54:27Z</time>
      </trkpt>
      <trkpt lat="42.87493" lon="0.1974">
        <ele>2482</ele>
        <time>2018-04-14T09:55:04Z</time>
      </trkpt>
      <trkpt lat="42.87492" lon="0.19739">
        <ele>2482</ele>
        <time>2018-04-14T09:55:44Z</time>
      </trkpt>
      <trkpt lat="42.87493" lon="0.1974">
        <ele>2482</ele>
        <time>2018-04-14T09:56:24Z</time>
      </trkpt>
      <trkpt lat="42.87492" lon="0.19739">
        <ele>2481</ele>
        <time>2018-04-14T09:57:11Z</time>
      </trkpt>
      <trkpt lat="42.87493" lon="0.19739">
        <ele>2482</ele>
        <time>2018-04-14T09:57:55Z</time>
      </trkpt>
      <trkpt lat="42.87491" lon="0.19739">
        <ele>2482</ele>
        <time>2018-04-14T09:58:32Z</time>
      </trkpt>
      <trkpt lat="42.87491" lon="0.1974">
        <ele>2482</ele>
        <time>2018-04-14T09:59:03Z</time>
      </trkpt>
      <trkpt lat="42.8749" lon="0.1974">
        <ele>2482</ele>
        <time>2018-04-14T09:59:37Z</time>
      </trkpt>
      <trkpt lat="42.87492" lon="0.1974">
        <ele>2483</ele>
        <time>2018-04-14T10:00:17Z</time>
      </trkpt>
      <trkpt lat="42.87491" lon="0.19741">
        <ele>2482</ele>
        <time>2018-04-14T10:01:00Z</time>
      </trkpt>
      <trkpt lat="42.87492" lon="0.19741">
        <ele>2483</ele>
        <time>2018-04-14T10:01:36Z</time>
      </trkpt>
      <trkpt lat="42.87491" lon="0.19741">
        <ele>2482</ele>
        <time>2018-04-14T10:02:12Z</time>
      </trkpt>
      <trkpt lat="42.87492" lon="0.19741">
        <ele>2483</ele>
        <time>2018-04-14T10:02:55Z</time>
      </trkpt>
      <trkpt lat="42.8749" lon="0.1974">
        <ele>2482</ele>
        <time>2018-04-14T10:03:40Z</time>
      </trkpt>
      <trkpt lat="42.87492" lon="0.19741">
        <ele>2482</ele>
        <time>2018-04-14T10:04:21Z</time>
      </trkpt>
      <trkpt lat="42.87491" lon="0.19742">
        <ele>2482</ele>
        <time>2018-04-14T10:04:56Z</time>
      </trkpt>
      <trkpt lat="42.87492" lon="0.1974">
        <ele>2482</ele>
        <time>2018-04-14T10:05:30Z</time>
      </trkpt>
      <trkpt lat="42.87492" lon="0.19742">
        <ele>2482</ele>
        <time>2018-04-14T10:06:09Z</time>
      </trkpt>
      <trkpt lat="42.87493" lon="0.19738">
        <ele>2482</ele>
        <time>2018-04-14T10:06:35Z</time>
      </trkpt>
      <trkpt lat="42.87491" lon="0.19741">
        <ele>2483</ele>
        <time>2018-04-14T10:06:47Z</time>
      </trkpt>
      <trkpt lat="42.87491" lon="0.19741">
        <ele>2483</ele>
        <time>2018-04-14T10:07:06Z</time>
      </trkpt>
      <trkpt lat="42.87491" lon="0.19741">
        <ele>2483</ele>
        <time>2018-04-14T10:07:25Z</time>
      </trkpt>
      <trkpt lat="42.87492" lon="0.19741">
        <ele>2483</ele>
        <time>2018-04-14T10:07:43Z</time>
      </trkpt>
      <trkpt lat="42.87491" lon="0.1974">
        <ele>2484</ele>
        <time>2018-04-14T10:07:59Z</time>
      </trkpt>
      <trkpt lat="42.87492" lon="0.19739">
        <ele>2483</ele>
        <time>2018-04-14T10:08:17Z</time>
      </trkpt>
      <trkpt lat="42.8749" lon="0.19737">
        <ele>2483</ele>
        <time>2018-04-14T10:08:32Z</time>
      </trkpt>
      <trkpt lat="42.8749" lon="0.19733">
        <ele>2483</ele>
        <time>2018-04-14T10:08:41Z</time>
      </trkpt>
      <trkpt lat="42.87493" lon="0.1972">
        <ele>2481</ele>
        <time>2018-04-14T10:08:50Z</time>
      </trkpt>
      <trkpt lat="42.87498" lon="0.19705">
        <ele>2477</ele>
        <time>2018-04-14T10:08:54Z</time>
      </trkpt>
      <trkpt lat="42.87491" lon="0.19699">
        <ele>2474</ele>
        <time>2018-04-14T10:08:59Z</time>
      </trkpt>
      <trkpt lat="42.87489" lon="0.19695">
        <ele>2470</ele>
        <time>2018-04-14T10:09:00Z</time>
      </trkpt>
      <trkpt lat="42.8748" lon="0.19684">
        <ele>2465</ele>
        <time>2018-04-14T10:09:03Z</time>
      </trkpt>
      <trkpt lat="42.87479" lon="0.19678">
        <ele>2463</ele>
        <time>2018-04-14T10:09:04Z</time>
      </trkpt>
      <trkpt lat="42.87473" lon="0.19653">
        <ele>2456</ele>
        <time>2018-04-14T10:09:09Z</time>
      </trkpt>
      <trkpt lat="42.8747" lon="0.19647">
        <ele>2453</ele>
        <time>2018-04-14T10:09:10Z</time>
      </trkpt>
      <trkpt lat="42.87463" lon="0.1964">
        <ele>2449</ele>
        <time>2018-04-14T10:09:12Z</time>
      </trkpt>
      <trkpt lat="42.87458" lon="0.19635">
        <ele>2444</ele>
        <time>2018-04-14T10:09:13Z</time>
      </trkpt>
      <trkpt lat="42.87454" lon="0.19628">
        <ele>2441</ele>
        <time>2018-04-14T10:09:14Z</time>
      </trkpt>
      <trkpt lat="42.87448" lon="0.19619">
        <ele>2441</ele>
        <time>2018-04-14T10:09:16Z</time>
      </trkpt>
      <trkpt lat="42.87445" lon="0.19622">
        <ele>2437</ele>
        <time>2018-04-14T10:09:19Z</time>
      </trkpt>
      <trkpt lat="42.87443" lon="0.19631">
        <ele>2437</ele>
        <time>2018-04-14T10:09:35Z</time>
      </trkpt>
      <trkpt lat="42.87441" lon="0.19632">
        <ele>2437</ele>
        <time>2018-04-14T10:09:44Z</time>
      </trkpt>
      <trkpt lat="42.87425" lon="0.19626">
        <ele>2434</ele>
        <time>2018-04-14T10:09:49Z</time>
      </trkpt>
      <trkpt lat="42.87421" lon="0.19612">
        <ele>2430</ele>
        <time>2018-04-14T10:09:51Z</time>
      </trkpt>
      <trkpt lat="42.87414" lon="0.19602">
        <ele>2426</ele>
        <time>2018-04-14T10:09:53Z</time>
      </trkpt>
      <trkpt lat="42.8741" lon="0.19595">
        <ele>2423</ele>
        <time>2018-04-14T10:09:54Z</time>
      </trkpt>
      <trkpt lat="42.87398" lon="0.19584">
        <ele>2418</ele>
        <time>2018-04-14T10:09:56Z</time>
      </trkpt>
      <trkpt lat="42.87389" lon="0.19582">
        <ele>2416</ele>
        <time>2018-04-14T10:09:57Z</time>
      </trkpt>
      <trkpt lat="42.87352" lon="0.19565">
        <ele>2409</ele>
        <time>2018-04-14T10:10:01Z</time>
      </trkpt>
      <trkpt lat="42.87333" lon="0.1955">
        <ele>2405</ele>
        <time>2018-04-14T10:10:03Z</time>
      </trkpt>
      <trkpt lat="42.87325" lon="0.19542">
        <ele>2404</ele>
        <time>2018-04-14T10:10:04Z</time>
      </trkpt>
      <trkpt lat="42.87303" lon="0.19532">
        <ele>2399</ele>
        <time>2018-04-14T10:10:07Z</time>
      </trkpt>
      <trkpt lat="42.87293" lon="0.19518">
        <ele>2396</ele>
        <time>2018-04-14T10:10:09Z</time>
      </trkpt>
      <trkpt lat="42.87281" lon="0.19503">
        <ele>2391</ele>
        <time>2018-04-14T10:10:12Z</time>
      </trkpt>
      <trkpt lat="42.87283" lon="0.19497">
        <ele>2388</ele>
        <time>2018-04-14T10:10:14Z</time>
      </trkpt>
      <trkpt lat="42.87288" lon="0.1949">
        <ele>2387</ele>
        <time>2018-04-14T10:10:16Z</time>
      </trkpt>
      <trkpt lat="42.87289" lon="0.1948">
        <ele>2387</ele>
        <time>2018-04-14T10:10:18Z</time>
      </trkpt>
      <trkpt lat="42.87286" lon="0.19475">
        <ele>2383</ele>
        <time>2018-04-14T10:10:19Z</time>
      </trkpt>
      <trkpt lat="42.87282" lon="0.19464">
        <ele>2377</ele>
        <time>2018-04-14T10:10:21Z</time>
      </trkpt>
      <trkpt lat="42.87281" lon="0.19459">
        <ele>2374</ele>
        <time>2018-04-14T10:10:22Z</time>
      </trkpt>
      <trkpt lat="42.87277" lon="0.19437">
        <ele>2366</ele>
        <time>2018-04-14T10:10:25Z</time>
      </trkpt>
      <trkpt lat="42.87279" lon="0.19428">
        <ele>2364</ele>
        <time>2018-04-14T10:10:26Z</time>
      </trkpt>
      <trkpt lat="42.87268" lon="0.19403">
        <ele>2362</ele>
        <time>2018-04-14T10:10:32Z</time>
      </trkpt>
      <trkpt lat="42.87267" lon="0.19405">
        <ele>2361</ele>
        <time>2018-04-14T10:10:33Z</time>
      </trkpt>
      <trkpt lat="42.87271" lon="0.19409">
        <ele>2361</ele>
        <time>2018-04-14T10:10:48Z</time>
      </trkpt>
      <trkpt lat="42.87273" lon="0.19408">
        <ele>2361</ele>
        <time>2018-04-14T10:11:08Z</time>
      </trkpt>
      <trkpt lat="42.87272" lon="0.19413">
        <ele>2361</ele>
        <time>2018-04-14T10:11:40Z</time>
      </trkpt>
      <trkpt lat="42.8727" lon="0.19411">
        <ele>2361</ele>
        <time>2018-04-14T10:12:04Z</time>
      </trkpt>
      <trkpt lat="42.87271" lon="0.19412">
        <ele>2360</ele>
        <time>2018-04-14T10:12:26Z</time>
      </trkpt>
      <trkpt lat="42.87268" lon="0.19401">
        <ele>2359</ele>
        <time>2018-04-14T10:12:31Z</time>
      </trkpt>
      <trkpt lat="42.87274" lon="0.19377">
        <ele>2356</ele>
        <time>2018-04-14T10:12:41Z</time>
      </trkpt>
      <trkpt lat="42.87262" lon="0.19362">
        <ele>2352</ele>
        <time>2018-04-14T10:12:45Z</time>
      </trkpt>
      <trkpt lat="42.87261" lon="0.1935">
        <ele>2347</ele>
        <time>2018-04-14T10:12:47Z</time>
      </trkpt>
      <trkpt lat="42.87257" lon="0.19339">
        <ele>2344</ele>
        <time>2018-04-14T10:12:49Z</time>
      </trkpt>
      <trkpt lat="42.87256" lon="0.19333">
        <ele>2340</ele>
        <time>2018-04-14T10:12:50Z</time>
      </trkpt>
      <trkpt lat="42.87249" lon="0.19316">
        <ele>2335</ele>
        <time>2018-04-14T10:12:53Z</time>
      </trkpt>
      <trkpt lat="42.87248" lon="0.1931">
        <ele>2332</ele>
        <time>2018-04-14T10:12:54Z</time>
      </trkpt>
      <trkpt lat="42.87245" lon="0.19306">
        <ele>2332</ele>
        <time>2018-04-14T10:12:55Z</time>
      </trkpt>
      <trkpt lat="42.87238" lon="0.19309">
        <ele>2328</ele>
        <time>2018-04-14T10:12:57Z</time>
      </trkpt>
      <trkpt lat="42.87229" lon="0.19317">
        <ele>2325</ele>
        <time>2018-04-14T10:12:59Z</time>
      </trkpt>
      <trkpt lat="42.87219" lon="0.19319">
        <ele>2320</ele>
        <time>2018-04-14T10:13:01Z</time>
      </trkpt>
      <trkpt lat="42.87209" lon="0.193">
        <ele>2317</ele>
        <time>2018-04-14T10:13:04Z</time>
      </trkpt>
      <trkpt lat="42.87196" lon="0.19293">
        <ele>2313</ele>
        <time>2018-04-14T10:13:06Z</time>
      </trkpt>
      <trkpt lat="42.87165" lon="0.19272">
        <ele>2309</ele>
        <time>2018-04-14T10:13:10Z</time>
      </trkpt>
      <trkpt lat="42.87146" lon="0.19258">
        <ele>2306</ele>
        <time>2018-04-14T10:13:13Z</time>
      </trkpt>
      <trkpt lat="42.87131" lon="0.19248">
        <ele>2307</ele>
        <time>2018-04-14T10:13:17Z</time>
      </trkpt>
      <trkpt lat="42.87116" lon="0.19236">
        <ele>2306</ele>
        <time>2018-04-14T10:13:21Z</time>
      </trkpt>
      <trkpt lat="42.87091" lon="0.19217">
        <ele>2304</ele>
        <time>2018-04-14T10:13:27Z</time>
      </trkpt>
      <trkpt lat="42.87068" lon="0.19181">
        <ele>2302</ele>
        <time>2018-04-14T10:13:35Z</time>
      </trkpt>
      <trkpt lat="42.87064" lon="0.19163">
        <ele>2300</ele>
        <time>2018-04-14T10:13:38Z</time>
      </trkpt>
      <trkpt lat="42.8706" lon="0.19132">
        <ele>2297</ele>
        <time>2018-04-14T10:13:41Z</time>
      </trkpt>
      <trkpt lat="42.87064" lon="0.19081">
        <ele>2294</ele>
        <time>2018-04-14T10:13:48Z</time>
      </trkpt>
      <trkpt lat="42.8707" lon="0.19073">
        <ele>2294</ele>
        <time>2018-04-14T10:14:00Z</time>
      </trkpt>
      <trkpt lat="42.87075" lon="0.19061">
        <ele>2295</ele>
        <time>2018-04-14T10:14:16Z</time>
      </trkpt>
      <trkpt lat="42.87079" lon="0.19049">
        <ele>2296</ele>
        <time>2018-04-14T10:14:31Z</time>
      </trkpt>
      <trkpt lat="42.87082" lon="0.19042">
        <ele>2296</ele>
        <time>2018-04-14T10:14:45Z</time>
      </trkpt>
      <trkpt lat="42.87082" lon="0.1904">
        <ele>2296</ele>
        <time>2018-04-14T10:14:58Z</time>
      </trkpt>
      <trkpt lat="42.87084" lon="0.19038">
        <ele>2296</ele>
        <time>2018-04-14T10:15:10Z</time>
      </trkpt>
      <trkpt lat="42.87083" lon="0.19037">
        <ele>2296</ele>
        <time>2018-04-14T10:15:23Z</time>
      </trkpt>
      <trkpt lat="42.8708" lon="0.19033">
        <ele>2296</ele>
        <time>2018-04-14T10:15:39Z</time>
      </trkpt>
      <trkpt lat="42.87084" lon="0.19014">
        <ele>2297</ele>
        <time>2018-04-14T10:15:55Z</time>
      </trkpt>
      <trkpt lat="42.87086" lon="0.18999">
        <ele>2298</ele>
        <time>2018-04-14T10:16:09Z</time>
      </trkpt>
      <trkpt lat="42.87087" lon="0.18988">
        <ele>2299</ele>
        <time>2018-04-14T10:16:23Z</time>
      </trkpt>
      <trkpt lat="42.87085" lon="0.18975">
        <ele>2301</ele>
        <time>2018-04-14T10:16:37Z</time>
      </trkpt>
      <trkpt lat="42.87083" lon="0.18961">
        <ele>2301</ele>
        <time>2018-04-14T10:16:52Z</time>
      </trkpt>
      <trkpt lat="42.87079" lon="0.18939">
        <ele>2301</ele>
        <time>2018-04-14T10:17:07Z</time>
      </trkpt>
      <trkpt lat="42.87077" lon="0.18926">
        <ele>2300</ele>
        <time>2018-04-14T10:17:22Z</time>
      </trkpt>
      <trkpt lat="42.87073" lon="0.18898">
        <ele>2299</ele>
        <time>2018-04-14T10:17:34Z</time>
      </trkpt>
      <trkpt lat="42.87079" lon="0.18866">
        <ele>2298</ele>
        <time>2018-04-14T10:17:42Z</time>
      </trkpt>
      <trkpt lat="42.87079" lon="0.18857">
        <ele>2299</ele>
        <time>2018-04-14T10:17:56Z</time>
      </trkpt>
      <trkpt lat="42.87078" lon="0.18847">
        <ele>2300</ele>
        <time>2018-04-14T10:18:10Z</time>
      </trkpt>
      <trkpt lat="42.87078" lon="0.18838">
        <ele>2302</ele>
        <time>2018-04-14T10:18:23Z</time>
      </trkpt>
      <trkpt lat="42.87069" lon="0.18828">
        <ele>2301</ele>
        <time>2018-04-14T10:18:37Z</time>
      </trkpt>
      <trkpt lat="42.87068" lon="0.18828">
        <ele>2301</ele>
        <time>2018-04-14T10:18:38Z</time>
      </trkpt>
      <trkpt lat="42.87068" lon="0.18814">
        <ele>2299</ele>
        <time>2018-04-14T10:18:43Z</time>
      </trkpt>
      <trkpt lat="42.87071" lon="0.1881">
        <ele>2297</ele>
        <time>2018-04-14T10:18:44Z</time>
      </trkpt>
      <trkpt lat="42.87076" lon="0.18804">
        <ele>2295</ele>
        <time>2018-04-14T10:18:46Z</time>
      </trkpt>
      <trkpt lat="42.87079" lon="0.18777">
        <ele>2290</ele>
        <time>2018-04-14T10:18:49Z</time>
      </trkpt>
      <trkpt lat="42.87079" lon="0.18764">
        <ele>2287</ele>
        <time>2018-04-14T10:18:50Z</time>
      </trkpt>
      <trkpt lat="42.87079" lon="0.18741">
        <ele>2286</ele>
        <time>2018-04-14T10:18:52Z</time>
      </trkpt>
      <trkpt lat="42.87079" lon="0.1873">
        <ele>2288</ele>
        <time>2018-04-14T10:18:54Z</time>
      </trkpt>
      <trkpt lat="42.87079" lon="0.18716">
        <ele>2288</ele>
        <time>2018-04-14T10:19:02Z</time>
      </trkpt>
      <trkpt lat="42.87083" lon="0.18703">
        <ele>2289</ele>
        <time>2018-04-14T10:19:17Z</time>
      </trkpt>
      <trkpt lat="42.87086" lon="0.1869">
        <ele>2290</ele>
        <time>2018-04-14T10:19:31Z</time>
      </trkpt>
      <trkpt lat="42.87089" lon="0.18682">
        <ele>2291</ele>
        <time>2018-04-14T10:19:43Z</time>
      </trkpt>
      <trkpt lat="42.87095" lon="0.18665">
        <ele>2290</ele>
        <time>2018-04-14T10:19:55Z</time>
      </trkpt>
      <trkpt lat="42.87101" lon="0.18641">
        <ele>2290</ele>
        <time>2018-04-14T10:19:59Z</time>
      </trkpt>
      <trkpt lat="42.87105" lon="0.18619">
        <ele>2288</ele>
        <time>2018-04-14T10:20:02Z</time>
      </trkpt>
      <trkpt lat="42.87104" lon="0.1862">
        <ele>2288</ele>
        <time>2018-04-14T10:20:09Z</time>
      </trkpt>
      <trkpt lat="42.87105" lon="0.18621">
        <ele>2288</ele>
        <time>2018-04-14T10:20:25Z</time>
      </trkpt>
      <trkpt lat="42.87105" lon="0.1862">
        <ele>2287</ele>
        <time>2018-04-14T10:20:49Z</time>
      </trkpt>
      <trkpt lat="42.87106" lon="0.18619">
        <ele>2287</ele>
        <time>2018-04-14T10:21:09Z</time>
      </trkpt>
      <trkpt lat="42.87108" lon="0.18619">
        <ele>2286</ele>
        <time>2018-04-14T10:21:22Z</time>
      </trkpt>
      <trkpt lat="42.87107" lon="0.1862">
        <ele>2287</ele>
        <time>2018-04-14T10:22:00Z</time>
      </trkpt>
      <trkpt lat="42.87107" lon="0.18618">
        <ele>2286</ele>
        <time>2018-04-14T10:22:31Z</time>
      </trkpt>
      <trkpt lat="42.87106" lon="0.18619">
        <ele>2286</ele>
        <time>2018-04-14T10:23:05Z</time>
      </trkpt>
      <trkpt lat="42.87106" lon="0.18619">
        <ele>2286</ele>
        <time>2018-04-14T10:23:36Z</time>
      </trkpt>
      <trkpt lat="42.87106" lon="0.1862">
        <ele>2287</ele>
        <time>2018-04-14T10:24:06Z</time>
      </trkpt>
      <trkpt lat="42.87107" lon="0.18618">
        <ele>2286</ele>
        <time>2018-04-14T10:24:35Z</time>
      </trkpt>
      <trkpt lat="42.87106" lon="0.18619">
        <ele>2286</ele>
        <time>2018-04-14T10:25:04Z</time>
      </trkpt>
      <trkpt lat="42.87105" lon="0.18622">
        <ele>2286</ele>
        <time>2018-04-14T10:25:30Z</time>
      </trkpt>
      <trkpt lat="42.87105" lon="0.18622">
        <ele>2285</ele>
        <time>2018-04-14T10:25:59Z</time>
      </trkpt>
      <trkpt lat="42.87105" lon="0.18622">
        <ele>2285</ele>
        <time>2018-04-14T10:26:35Z</time>
      </trkpt>
      <trkpt lat="42.87105" lon="0.18622">
        <ele>2286</ele>
        <time>2018-04-14T10:27:08Z</time>
      </trkpt>
      <trkpt lat="42.87106" lon="0.18622">
        <ele>2285</ele>
        <time>2018-04-14T10:27:40Z</time>
      </trkpt>
      <trkpt lat="42.87107" lon="0.18622">
        <ele>2285</ele>
        <time>2018-04-14T10:27:59Z</time>
      </trkpt>
      <trkpt lat="42.87106" lon="0.18623">
        <ele>2286</ele>
        <time>2018-04-14T10:28:29Z</time>
      </trkpt>
      <trkpt lat="42.87107" lon="0.18621">
        <ele>2286</ele>
        <time>2018-04-14T10:28:55Z</time>
      </trkpt>
      <trkpt lat="42.87106" lon="0.18622">
        <ele>2285</ele>
        <time>2018-04-14T10:29:16Z</time>
      </trkpt>
      <trkpt lat="42.87106" lon="0.18623">
        <ele>2285</ele>
        <time>2018-04-14T10:29:51Z</time>
      </trkpt>
      <trkpt lat="42.87108" lon="0.18624">
        <ele>2285</ele>
        <time>2018-04-14T10:30:26Z</time>
      </trkpt>
      <trkpt lat="42.87107" lon="0.18621">
        <ele>2286</ele>
        <time>2018-04-14T10:30:54Z</time>
      </trkpt>
      <trkpt lat="42.87106" lon="0.1862">
        <ele>2286</ele>
        <time>2018-04-14T10:31:08Z</time>
      </trkpt>
      <trkpt lat="42.87105" lon="0.18618">
        <ele>2287</ele>
        <time>2018-04-14T10:31:25Z</time>
      </trkpt>
      <trkpt lat="42.87105" lon="0.18618">
        <ele>2287</ele>
        <time>2018-04-14T10:31:40Z</time>
      </trkpt>
      <trkpt lat="42.87105" lon="0.18617">
        <ele>2287</ele>
        <time>2018-04-14T10:31:57Z</time>
      </trkpt>
      <trkpt lat="42.87105" lon="0.18613">
        <ele>2288</ele>
        <time>2018-04-14T10:32:23Z</time>
      </trkpt>
      <trkpt lat="42.87104" lon="0.18597">
        <ele>2290</ele>
        <time>2018-04-14T10:32:37Z</time>
      </trkpt>
      <trkpt lat="42.87104" lon="0.18581">
        <ele>2290</ele>
        <time>2018-04-14T10:32:50Z</time>
      </trkpt>
      <trkpt lat="42.87105" lon="0.18564">
        <ele>2293</ele>
        <time>2018-04-14T10:33:06Z</time>
      </trkpt>
      <trkpt lat="42.87109" lon="0.18554">
        <ele>2294</ele>
        <time>2018-04-14T10:33:19Z</time>
      </trkpt>
      <trkpt lat="42.87113" lon="0.18551">
        <ele>2294</ele>
        <time>2018-04-14T10:33:23Z</time>
      </trkpt>
      <trkpt lat="42.87116" lon="0.18544">
        <ele>2294</ele>
        <time>2018-04-14T10:33:31Z</time>
      </trkpt>
      <trkpt lat="42.87121" lon="0.18539">
        <ele>2294</ele>
        <time>2018-04-14T10:33:37Z</time>
      </trkpt>
      <trkpt lat="42.87127" lon="0.18523">
        <ele>2293</ele>
        <time>2018-04-14T10:33:51Z</time>
      </trkpt>
      <trkpt lat="42.87131" lon="0.18511">
        <ele>2295</ele>
        <time>2018-04-14T10:34:06Z</time>
      </trkpt>
      <trkpt lat="42.87134" lon="0.18499">
        <ele>2297</ele>
        <time>2018-04-14T10:34:19Z</time>
      </trkpt>
      <trkpt lat="42.87139" lon="0.18487">
        <ele>2297</ele>
        <time>2018-04-14T10:34:33Z</time>
      </trkpt>
      <trkpt lat="42.87144" lon="0.18476">
        <ele>2298</ele>
        <time>2018-04-14T10:34:44Z</time>
      </trkpt>
      <trkpt lat="42.87149" lon="0.18449">
        <ele>2295</ele>
        <time>2018-04-14T10:34:55Z</time>
      </trkpt>
      <trkpt lat="42.8715" lon="0.18442">
        <ele>2294</ele>
        <time>2018-04-14T10:34:57Z</time>
      </trkpt>
      <trkpt lat="42.87157" lon="0.18416">
        <ele>2290</ele>
        <time>2018-04-14T10:35:08Z</time>
      </trkpt>
      <trkpt lat="42.87159" lon="0.18412">
        <ele>2291</ele>
        <time>2018-04-14T10:35:11Z</time>
      </trkpt>
      <trkpt lat="42.87165" lon="0.1839">
        <ele>2291</ele>
        <time>2018-04-14T10:35:26Z</time>
      </trkpt>
      <trkpt lat="42.8717" lon="0.18371">
        <ele>2290</ele>
        <time>2018-04-14T10:35:38Z</time>
      </trkpt>
      <trkpt lat="42.8717" lon="0.18371">
        <ele>2290</ele>
        <time>2018-04-14T10:35:43Z</time>
      </trkpt>
      <trkpt lat="42.87177" lon="0.18347">
        <ele>2289</ele>
        <time>2018-04-14T10:35:54Z</time>
      </trkpt>
      <trkpt lat="42.87178" lon="0.18338">
        <ele>2288</ele>
        <time>2018-04-14T10:35:59Z</time>
      </trkpt>
      <trkpt lat="42.8718" lon="0.18326">
        <ele>2288</ele>
        <time>2018-04-14T10:36:13Z</time>
      </trkpt>
      <trkpt lat="42.87185" lon="0.18308">
        <ele>2287</ele>
        <time>2018-04-14T10:36:22Z</time>
      </trkpt>
      <trkpt lat="42.8718" lon="0.1829">
        <ele>2288</ele>
        <time>2018-04-14T10:36:37Z</time>
      </trkpt>
      <trkpt lat="42.87177" lon="0.18285">
        <ele>2288</ele>
        <time>2018-04-14T10:36:42Z</time>
      </trkpt>
      <trkpt lat="42.87169" lon="0.18271">
        <ele>2290</ele>
        <time>2018-04-14T10:36:59Z</time>
      </trkpt>
      <trkpt lat="42.87168" lon="0.18268">
        <ele>2291</ele>
        <time>2018-04-14T10:37:03Z</time>
      </trkpt>
      <trkpt lat="42.87168" lon="0.18255">
        <ele>2294</ele>
        <time>2018-04-14T10:37:18Z</time>
      </trkpt>
      <trkpt lat="42.87173" lon="0.18243">
        <ele>2296</ele>
        <time>2018-04-14T10:37:33Z</time>
      </trkpt>
      <trkpt lat="42.87179" lon="0.18235">
        <ele>2299</ele>
        <time>2018-04-14T10:37:49Z</time>
      </trkpt>
      <trkpt lat="42.87183" lon="0.18223">
        <ele>2301</ele>
        <time>2018-04-14T10:38:03Z</time>
      </trkpt>
      <trkpt lat="42.87185" lon="0.18215">
        <ele>2302</ele>
        <time>2018-04-14T10:38:16Z</time>
      </trkpt>
      <trkpt lat="42.87185" lon="0.18204">
        <ele>2304</ele>
        <time>2018-04-14T10:38:32Z</time>
      </trkpt>
      <trkpt lat="42.87185" lon="0.18195">
        <ele>2305</ele>
        <time>2018-04-14T10:38:39Z</time>
      </trkpt>
      <trkpt lat="42.87188" lon="0.18181">
        <ele>2308</ele>
        <time>2018-04-14T10:38:57Z</time>
      </trkpt>
      <trkpt lat="42.8719" lon="0.1818">
        <ele>2309</ele>
        <time>2018-04-14T10:39:12Z</time>
      </trkpt>
      <trkpt lat="42.87196" lon="0.1818">
        <ele>2310</ele>
        <time>2018-04-14T10:39:28Z</time>
      </trkpt>
      <trkpt lat="42.87205" lon="0.1818">
        <ele>2313</ele>
        <time>2018-04-14T10:39:40Z</time>
      </trkpt>
      <trkpt lat="42.87213" lon="0.18179">
        <ele>2314</ele>
        <time>2018-04-14T10:39:55Z</time>
      </trkpt>
      <trkpt lat="42.87225" lon="0.18172">
        <ele>2317</ele>
        <time>2018-04-14T10:40:16Z</time>
      </trkpt>
      <trkpt lat="42.87224" lon="0.18167">
        <ele>2319</ele>
        <time>2018-04-14T10:40:29Z</time>
      </trkpt>
      <trkpt lat="42.87216" lon="0.18156">
        <ele>2320</ele>
        <time>2018-04-14T10:40:43Z</time>
      </trkpt>
      <trkpt lat="42.87213" lon="0.18145">
        <ele>2321</ele>
        <time>2018-04-14T10:40:56Z</time>
      </trkpt>
      <trkpt lat="42.87221" lon="0.18131">
        <ele>2324</ele>
        <time>2018-04-14T10:41:15Z</time>
      </trkpt>
      <trkpt lat="42.87231" lon="0.18126">
        <ele>2326</ele>
        <time>2018-04-14T10:41:29Z</time>
      </trkpt>
      <trkpt lat="42.87237" lon="0.18127">
        <ele>2327</ele>
        <time>2018-04-14T10:41:39Z</time>
      </trkpt>
      <trkpt lat="42.87242" lon="0.18125">
        <ele>2327</ele>
        <time>2018-04-14T10:41:45Z</time>
      </trkpt>
      <trkpt lat="42.8725" lon="0.18115">
        <ele>2327</ele>
        <time>2018-04-14T10:41:57Z</time>
      </trkpt>
      <trkpt lat="42.87253" lon="0.18104">
        <ele>2329</ele>
        <time>2018-04-14T10:42:11Z</time>
      </trkpt>
      <trkpt lat="42.87254" lon="0.181">
        <ele>2330</ele>
        <time>2018-04-14T10:42:26Z</time>
      </trkpt>
      <trkpt lat="42.87253" lon="0.1809">
        <ele>2332</ele>
        <time>2018-04-14T10:42:39Z</time>
      </trkpt>
      <trkpt lat="42.87252" lon="0.18085">
        <ele>2332</ele>
        <time>2018-04-14T10:42:44Z</time>
      </trkpt>
      <trkpt lat="42.87251" lon="0.1807">
        <ele>2334</ele>
        <time>2018-04-14T10:42:59Z</time>
      </trkpt>
      <trkpt lat="42.87253" lon="0.18056">
        <ele>2336</ele>
        <time>2018-04-14T10:43:14Z</time>
      </trkpt>
      <trkpt lat="42.87257" lon="0.18047">
        <ele>2338</ele>
        <time>2018-04-14T10:43:25Z</time>
      </trkpt>
      <trkpt lat="42.87264" lon="0.18037">
        <ele>2339</ele>
        <time>2018-04-14T10:43:40Z</time>
      </trkpt>
      <trkpt lat="42.8727" lon="0.18024">
        <ele>2341</ele>
        <time>2018-04-14T10:43:55Z</time>
      </trkpt>
      <trkpt lat="42.8727" lon="0.18014">
        <ele>2343</ele>
        <time>2018-04-14T10:44:08Z</time>
      </trkpt>
      <trkpt lat="42.87271" lon="0.18">
        <ele>2345</ele>
        <time>2018-04-14T10:44:24Z</time>
      </trkpt>
      <trkpt lat="42.87276" lon="0.17984">
        <ele>2348</ele>
        <time>2018-04-14T10:44:40Z</time>
      </trkpt>
      <trkpt lat="42.87282" lon="0.17973">
        <ele>2350</ele>
        <time>2018-04-14T10:44:54Z</time>
      </trkpt>
      <trkpt lat="42.87294" lon="0.17966">
        <ele>2352</ele>
        <time>2018-04-14T10:45:09Z</time>
      </trkpt>
      <trkpt lat="42.87296" lon="0.17968">
        <ele>2352</ele>
        <time>2018-04-14T10:45:23Z</time>
      </trkpt>
      <trkpt lat="42.87297" lon="0.17968">
        <ele>2352</ele>
        <time>2018-04-14T10:45:35Z</time>
      </trkpt>
      <trkpt lat="42.87297" lon="0.1797">
        <ele>2352</ele>
        <time>2018-04-14T10:45:59Z</time>
      </trkpt>
      <trkpt lat="42.87296" lon="0.17969">
        <ele>2352</ele>
        <time>2018-04-14T10:46:22Z</time>
      </trkpt>
      <trkpt lat="42.87296" lon="0.17968">
        <ele>2352</ele>
        <time>2018-04-14T10:46:25Z</time>
      </trkpt>
      <trkpt lat="42.8731" lon="0.17959">
        <ele>2355</ele>
        <time>2018-04-14T10:46:42Z</time>
      </trkpt>
      <trkpt lat="42.87321" lon="0.17953">
        <ele>2357</ele>
        <time>2018-04-14T10:46:58Z</time>
      </trkpt>
      <trkpt lat="42.87329" lon="0.17945">
        <ele>2358</ele>
        <time>2018-04-14T10:47:08Z</time>
      </trkpt>
      <trkpt lat="42.8733" lon="0.17939">
        <ele>2358</ele>
        <time>2018-04-14T10:47:15Z</time>
      </trkpt>
      <trkpt lat="42.87332" lon="0.1792">
        <ele>2359</ele>
        <time>2018-04-14T10:47:29Z</time>
      </trkpt>
      <trkpt lat="42.87334" lon="0.17912">
        <ele>2359</ele>
        <time>2018-04-14T10:47:35Z</time>
      </trkpt>
      <trkpt lat="42.87337" lon="0.17899">
        <ele>2360</ele>
        <time>2018-04-14T10:47:50Z</time>
      </trkpt>
      <trkpt lat="42.87341" lon="0.17888">
        <ele>2362</ele>
        <time>2018-04-14T10:48:04Z</time>
      </trkpt>
      <trkpt lat="42.87344" lon="0.17879">
        <ele>2364</ele>
        <time>2018-04-14T10:48:15Z</time>
      </trkpt>
      <trkpt lat="42.87344" lon="0.17876">
        <ele>2364</ele>
        <time>2018-04-14T10:48:18Z</time>
      </trkpt>
      <trkpt lat="42.87342" lon="0.17853">
        <ele>2361</ele>
        <time>2018-04-14T10:48:28Z</time>
      </trkpt>
      <trkpt lat="42.87345" lon="0.17827">
        <ele>2358</ele>
        <time>2018-04-14T10:48:33Z</time>
      </trkpt>
      <trkpt lat="42.87346" lon="0.17823">
        <ele>2357</ele>
        <time>2018-04-14T10:48:34Z</time>
      </trkpt>
      <trkpt lat="42.87345" lon="0.17816">
        <ele>2357</ele>
        <time>2018-04-14T10:48:39Z</time>
      </trkpt>
      <trkpt lat="42.87345" lon="0.17811">
        <ele>2357</ele>
        <time>2018-04-14T10:48:43Z</time>
      </trkpt>
      <trkpt lat="42.87351" lon="0.17797">
        <ele>2360</ele>
        <time>2018-04-14T10:49:00Z</time>
      </trkpt>
      <trkpt lat="42.8736" lon="0.17787">
        <ele>2362</ele>
        <time>2018-04-14T10:49:15Z</time>
      </trkpt>
      <trkpt lat="42.87367" lon="0.17774">
        <ele>2364</ele>
        <time>2018-04-14T10:49:32Z</time>
      </trkpt>
      <trkpt lat="42.87374" lon="0.17762">
        <ele>2365</ele>
        <time>2018-04-14T10:49:45Z</time>
      </trkpt>
      <trkpt lat="42.87381" lon="0.17744">
        <ele>2367</ele>
        <time>2018-04-14T10:50:01Z</time>
      </trkpt>
      <trkpt lat="42.87387" lon="0.17729">
        <ele>2368</ele>
        <time>2018-04-14T10:50:15Z</time>
      </trkpt>
      <trkpt lat="42.87387" lon="0.17722">
        <ele>2368</ele>
        <time>2018-04-14T10:50:20Z</time>
      </trkpt>
      <trkpt lat="42.8739" lon="0.17706">
        <ele>2369</ele>
        <time>2018-04-14T10:50:35Z</time>
      </trkpt>
      <trkpt lat="42.87392" lon="0.17688">
        <ele>2371</ele>
        <time>2018-04-14T10:50:50Z</time>
      </trkpt>
      <trkpt lat="42.87391" lon="0.1767">
        <ele>2372</ele>
        <time>2018-04-14T10:51:06Z</time>
      </trkpt>
      <trkpt lat="42.87386" lon="0.17656">
        <ele>2374</ele>
        <time>2018-04-14T10:51:20Z</time>
      </trkpt>
      <trkpt lat="42.87381" lon="0.17644">
        <ele>2375</ele>
        <time>2018-04-14T10:51:35Z</time>
      </trkpt>
      <trkpt lat="42.87379" lon="0.17629">
        <ele>2378</ele>
        <time>2018-04-14T10:51:51Z</time>
      </trkpt>
      <trkpt lat="42.87379" lon="0.17617">
        <ele>2380</ele>
        <time>2018-04-14T10:52:07Z</time>
      </trkpt>
      <trkpt lat="42.87379" lon="0.17605">
        <ele>2382</ele>
        <time>2018-04-14T10:52:22Z</time>
      </trkpt>
      <trkpt lat="42.87378" lon="0.17598">
        <ele>2384</ele>
        <time>2018-04-14T10:52:41Z</time>
      </trkpt>
      <trkpt lat="42.8738" lon="0.17591">
        <ele>2384</ele>
        <time>2018-04-14T10:53:06Z</time>
      </trkpt>
      <trkpt lat="42.87381" lon="0.1758">
        <ele>2387</ele>
        <time>2018-04-14T10:53:24Z</time>
      </trkpt>
      <trkpt lat="42.87385" lon="0.17571">
        <ele>2390</ele>
        <time>2018-04-14T10:53:39Z</time>
      </trkpt>
      <trkpt lat="42.87389" lon="0.17571">
        <ele>2390</ele>
        <time>2018-04-14T10:53:55Z</time>
      </trkpt>
      <trkpt lat="42.87395" lon="0.17566">
        <ele>2392</ele>
        <time>2018-04-14T10:54:10Z</time>
      </trkpt>
      <trkpt lat="42.87389" lon="0.17555">
        <ele>2394</ele>
        <time>2018-04-14T10:54:25Z</time>
      </trkpt>
      <trkpt lat="42.87384" lon="0.17545">
        <ele>2397</ele>
        <time>2018-04-14T10:54:40Z</time>
      </trkpt>
      <trkpt lat="42.87381" lon="0.17534">
        <ele>2399</ele>
        <time>2018-04-14T10:54:54Z</time>
      </trkpt>
      <trkpt lat="42.8739" lon="0.17529">
        <ele>2402</ele>
        <time>2018-04-14T10:55:09Z</time>
      </trkpt>
      <trkpt lat="42.87395" lon="0.17525">
        <ele>2404</ele>
        <time>2018-04-14T10:55:24Z</time>
      </trkpt>
      <trkpt lat="42.87397" lon="0.17526">
        <ele>2404</ele>
        <time>2018-04-14T10:55:47Z</time>
      </trkpt>
      <trkpt lat="42.87398" lon="0.17529">
        <ele>2403</ele>
        <time>2018-04-14T10:56:06Z</time>
      </trkpt>
      <trkpt lat="42.87398" lon="0.1753">
        <ele>2404</ele>
        <time>2018-04-14T10:56:27Z</time>
      </trkpt>
      <trkpt lat="42.87398" lon="0.17524">
        <ele>2405</ele>
        <time>2018-04-14T10:56:42Z</time>
      </trkpt>
      <trkpt lat="42.87404" lon="0.17516">
        <ele>2406</ele>
        <time>2018-04-14T10:56:54Z</time>
      </trkpt>
      <trkpt lat="42.87413" lon="0.17496">
        <ele>2406</ele>
        <time>2018-04-14T10:57:13Z</time>
      </trkpt>
      <trkpt lat="42.87413" lon="0.17495">
        <ele>2406</ele>
        <time>2018-04-14T10:57:14Z</time>
      </trkpt>
      <trkpt lat="42.87414" lon="0.1748">
        <ele>2407</ele>
        <time>2018-04-14T10:57:29Z</time>
      </trkpt>
      <trkpt lat="42.87413" lon="0.17467">
        <ele>2408</ele>
        <time>2018-04-14T10:57:44Z</time>
      </trkpt>
      <trkpt lat="42.8741" lon="0.17452">
        <ele>2410</ele>
        <time>2018-04-14T10:58:00Z</time>
      </trkpt>
      <trkpt lat="42.87405" lon="0.17436">
        <ele>2413</ele>
        <time>2018-04-14T10:58:18Z</time>
      </trkpt>
      <trkpt lat="42.87404" lon="0.17421">
        <ele>2415</ele>
        <time>2018-04-14T10:58:34Z</time>
      </trkpt>
      <trkpt lat="42.87402" lon="0.17407">
        <ele>2416</ele>
        <time>2018-04-14T10:58:48Z</time>
      </trkpt>
      <trkpt lat="42.87402" lon="0.17406">
        <ele>2416</ele>
        <time>2018-04-14T10:58:49Z</time>
      </trkpt>
      <trkpt lat="42.87394" lon="0.17385">
        <ele>2418</ele>
        <time>2018-04-14T10:59:08Z</time>
      </trkpt>
      <trkpt lat="42.87389" lon="0.17371">
        <ele>2419</ele>
        <time>2018-04-14T10:59:21Z</time>
      </trkpt>
      <trkpt lat="42.87384" lon="0.17353">
        <ele>2420</ele>
        <time>2018-04-14T10:59:36Z</time>
      </trkpt>
      <trkpt lat="42.87375" lon="0.17338">
        <ele>2422</ele>
        <time>2018-04-14T10:59:52Z</time>
      </trkpt>
      <trkpt lat="42.8737" lon="0.17322">
        <ele>2424</ele>
        <time>2018-04-14T11:00:07Z</time>
      </trkpt>
      <trkpt lat="42.87363" lon="0.1731">
        <ele>2426</ele>
        <time>2018-04-14T11:00:23Z</time>
      </trkpt>
      <trkpt lat="42.87355" lon="0.17303">
        <ele>2428</ele>
        <time>2018-04-14T11:00:39Z</time>
      </trkpt>
      <trkpt lat="42.87351" lon="0.17295">
        <ele>2430</ele>
        <time>2018-04-14T11:00:54Z</time>
      </trkpt>
      <trkpt lat="42.87353" lon="0.17293">
        <ele>2430</ele>
        <time>2018-04-14T11:01:15Z</time>
      </trkpt>
      <trkpt lat="42.87351" lon="0.17287">
        <ele>2431</ele>
        <time>2018-04-14T11:01:35Z</time>
      </trkpt>
      <trkpt lat="42.87347" lon="0.17276">
        <ele>2435</ele>
        <time>2018-04-14T11:01:50Z</time>
      </trkpt>
      <trkpt lat="42.87345" lon="0.17272">
        <ele>2436</ele>
        <time>2018-04-14T11:01:58Z</time>
      </trkpt>
      <trkpt lat="42.87342" lon="0.17258">
        <ele>2437</ele>
        <time>2018-04-14T11:02:12Z</time>
      </trkpt>
      <trkpt lat="42.87339" lon="0.17245">
        <ele>2439</ele>
        <time>2018-04-14T11:02:25Z</time>
      </trkpt>
      <trkpt lat="42.87335" lon="0.1723">
        <ele>2440</ele>
        <time>2018-04-14T11:02:40Z</time>
      </trkpt>
      <trkpt lat="42.87333" lon="0.17218">
        <ele>2442</ele>
        <time>2018-04-14T11:02:56Z</time>
      </trkpt>
      <trkpt lat="42.87334" lon="0.17222">
        <ele>2442</ele>
        <time>2018-04-14T11:03:21Z</time>
      </trkpt>
      <trkpt lat="42.87332" lon="0.17209">
        <ele>2445</ele>
        <time>2018-04-14T11:03:35Z</time>
      </trkpt>
      <trkpt lat="42.87329" lon="0.17197">
        <ele>2447</ele>
        <time>2018-04-14T11:03:50Z</time>
      </trkpt>
      <trkpt lat="42.87337" lon="0.17202">
        <ele>2448</ele>
        <time>2018-04-14T11:04:07Z</time>
      </trkpt>
      <trkpt lat="42.87336" lon="0.17204">
        <ele>2449</ele>
        <time>2018-04-14T11:04:31Z</time>
      </trkpt>
      <trkpt lat="42.87341" lon="0.17206">
        <ele>2451</ele>
        <time>2018-04-14T11:04:44Z</time>
      </trkpt>
      <trkpt lat="42.8735" lon="0.17208">
        <ele>2453</ele>
        <time>2018-04-14T11:04:56Z</time>
      </trkpt>
      <trkpt lat="42.87359" lon="0.17211">
        <ele>2455</ele>
        <time>2018-04-14T11:05:10Z</time>
      </trkpt>
      <trkpt lat="42.87356" lon="0.1722">
        <ele>2456</ele>
        <time>2018-04-14T11:05:23Z</time>
      </trkpt>
      <trkpt lat="42.87354" lon="0.17225">
        <ele>2456</ele>
        <time>2018-04-14T11:05:48Z</time>
      </trkpt>
      <trkpt lat="42.87361" lon="0.17228">
        <ele>2460</ele>
        <time>2018-04-14T11:06:03Z</time>
      </trkpt>
      <trkpt lat="42.87361" lon="0.17229">
        <ele>2459</ele>
        <time>2018-04-14T11:06:21Z</time>
      </trkpt>
      <trkpt lat="42.87361" lon="0.17229">
        <ele>2459</ele>
        <time>2018-04-14T11:06:39Z</time>
      </trkpt>
      <trkpt lat="42.87361" lon="0.1723">
        <ele>2459</ele>
        <time>2018-04-14T11:06:54Z</time>
      </trkpt>
      <trkpt lat="42.87367" lon="0.17227">
        <ele>2462</ele>
        <time>2018-04-14T11:07:08Z</time>
      </trkpt>
      <trkpt lat="42.87373" lon="0.17225">
        <ele>2463</ele>
        <time>2018-04-14T11:07:21Z</time>
      </trkpt>
      <trkpt lat="42.87372" lon="0.17226">
        <ele>2463</ele>
        <time>2018-04-14T11:07:34Z</time>
      </trkpt>
      <trkpt lat="42.87373" lon="0.17227">
        <ele>2464</ele>
        <time>2018-04-14T11:07:55Z</time>
      </trkpt>
      <trkpt lat="42.87376" lon="0.17225">
        <ele>2463</ele>
        <time>2018-04-14T11:08:08Z</time>
      </trkpt>
      <trkpt lat="42.87377" lon="0.17224">
        <ele>2464</ele>
        <time>2018-04-14T11:08:28Z</time>
      </trkpt>
      <trkpt lat="42.87376" lon="0.17227">
        <ele>2463</ele>
        <time>2018-04-14T11:08:47Z</time>
      </trkpt>
      <trkpt lat="42.87372" lon="0.17233">
        <ele>2463</ele>
        <time>2018-04-14T11:09:03Z</time>
      </trkpt>
      <trkpt lat="42.87371" lon="0.1723">
        <ele>2463</ele>
        <time>2018-04-14T11:09:12Z</time>
      </trkpt>
      <trkpt lat="42.87373" lon="0.17231">
        <ele>2462</ele>
        <time>2018-04-14T11:09:24Z</time>
      </trkpt>
      <trkpt lat="42.87374" lon="0.17227">
        <ele>2461</ele>
        <time>2018-04-14T11:10:12Z</time>
      </trkpt>
      <trkpt lat="42.87374" lon="0.17227">
        <ele>2462</ele>
        <time>2018-04-14T11:10:35Z</time>
      </trkpt>
      <trkpt lat="42.87373" lon="0.17228">
        <ele>2462</ele>
        <time>2018-04-14T11:11:14Z</time>
      </trkpt>
      <trkpt lat="42.87371" lon="0.17229">
        <ele>2462</ele>
        <time>2018-04-14T11:11:59Z</time>
      </trkpt>
      <trkpt lat="42.87372" lon="0.17227">
        <ele>2461</ele>
        <time>2018-04-14T11:12:42Z</time>
      </trkpt>
      <trkpt lat="42.87373" lon="0.17229">
        <ele>2461</ele>
        <time>2018-04-14T11:13:18Z</time>
      </trkpt>
      <trkpt lat="42.87372" lon="0.17229">
        <ele>2461</ele>
        <time>2018-04-14T11:14:02Z</time>
      </trkpt>
      <trkpt lat="42.87372" lon="0.17229">
        <ele>2461</ele>
        <time>2018-04-14T11:14:46Z</time>
      </trkpt>
      <trkpt lat="42.87371" lon="0.17225">
        <ele>2461</ele>
        <time>2018-04-14T11:15:28Z</time>
      </trkpt>
      <trkpt lat="42.8737" lon="0.17225">
        <ele>2461</ele>
        <time>2018-04-14T11:16:17Z</time>
      </trkpt>
      <trkpt lat="42.8737" lon="0.17224">
        <ele>2460</ele>
        <time>2018-04-14T11:16:55Z</time>
      </trkpt>
      <trkpt lat="42.87371" lon="0.17226">
        <ele>2461</ele>
        <time>2018-04-14T11:17:41Z</time>
      </trkpt>
      <trkpt lat="42.87371" lon="0.17226">
        <ele>2461</ele>
        <time>2018-04-14T11:18:18Z</time>
      </trkpt>
      <trkpt lat="42.8737" lon="0.17225">
        <ele>2461</ele>
        <time>2018-04-14T11:19:03Z</time>
      </trkpt>
      <trkpt lat="42.87373" lon="0.17227">
        <ele>2461</ele>
        <time>2018-04-14T11:19:42Z</time>
      </trkpt>
      <trkpt lat="42.87372" lon="0.17228">
        <ele>2461</ele>
        <time>2018-04-14T11:20:23Z</time>
      </trkpt>
      <trkpt lat="42.87373" lon="0.17229">
        <ele>2461</ele>
        <time>2018-04-14T11:21:11Z</time>
      </trkpt>
      <trkpt lat="42.87373" lon="0.17228">
        <ele>2461</ele>
        <time>2018-04-14T11:21:58Z</time>
      </trkpt>
      <trkpt lat="42.87374" lon="0.17229">
        <ele>2461</ele>
        <time>2018-04-14T11:22:41Z</time>
      </trkpt>
      <trkpt lat="42.87374" lon="0.17228">
        <ele>2460</ele>
        <time>2018-04-14T11:23:12Z</time>
      </trkpt>
      <trkpt lat="42.87374" lon="0.17229">
        <ele>2461</ele>
        <time>2018-04-14T11:23:37Z</time>
      </trkpt>
      <trkpt lat="42.87374" lon="0.17226">
        <ele>2460</ele>
        <time>2018-04-14T11:24:14Z</time>
      </trkpt>
      <trkpt lat="42.87375" lon="0.17229">
        <ele>2461</ele>
        <time>2018-04-14T11:24:38Z</time>
      </trkpt>
      <trkpt lat="42.87374" lon="0.17225">
        <ele>2462</ele>
        <time>2018-04-14T11:24:53Z</time>
      </trkpt>
      <trkpt lat="42.87373" lon="0.17226">
        <ele>2462</ele>
        <time>2018-04-14T11:25:10Z</time>
      </trkpt>
      <trkpt lat="42.87374" lon="0.17226">
        <ele>2462</ele>
        <time>2018-04-14T11:25:27Z</time>
      </trkpt>
      <trkpt lat="42.87374" lon="0.17224">
        <ele>2461</ele>
        <time>2018-04-14T11:25:51Z</time>
      </trkpt>
      <trkpt lat="42.87375" lon="0.17225">
        <ele>2462</ele>
        <time>2018-04-14T11:26:09Z</time>
      </trkpt>
      <trkpt lat="42.87376" lon="0.17224">
        <ele>2462</ele>
        <time>2018-04-14T11:26:26Z</time>
      </trkpt>
      <trkpt lat="42.87394" lon="0.17223">
        <ele>2458</ele>
        <time>2018-04-14T11:26:32Z</time>
      </trkpt>
      <trkpt lat="42.87399" lon="0.17226">
        <ele>2458</ele>
        <time>2018-04-14T11:26:33Z</time>
      </trkpt>
      <trkpt lat="42.87414" lon="0.17234">
        <ele>2456</ele>
        <time>2018-04-14T11:26:36Z</time>
      </trkpt>
      <trkpt lat="42.87424" lon="0.17226">
        <ele>2451</ele>
        <time>2018-04-14T11:26:41Z</time>
      </trkpt>
      <trkpt lat="42.87426" lon="0.17213">
        <ele>2446</ele>
        <time>2018-04-14T11:26:43Z</time>
      </trkpt>
      <trkpt lat="42.87435" lon="0.17209">
        <ele>2444</ele>
        <time>2018-04-14T11:26:45Z</time>
      </trkpt>
      <trkpt lat="42.87443" lon="0.17209">
        <ele>2443</ele>
        <time>2018-04-14T11:26:47Z</time>
      </trkpt>
      <trkpt lat="42.87448" lon="0.17193">
        <ele>2438</ele>
        <time>2018-04-14T11:26:51Z</time>
      </trkpt>
      <trkpt lat="42.87449" lon="0.17181">
        <ele>2434</ele>
        <time>2018-04-14T11:26:53Z</time>
      </trkpt>
      <trkpt lat="42.87456" lon="0.17176">
        <ele>2431</ele>
        <time>2018-04-14T11:26:55Z</time>
      </trkpt>
      <trkpt lat="42.87458" lon="0.17168">
        <ele>2429</ele>
        <time>2018-04-14T11:26:57Z</time>
      </trkpt>
      <trkpt lat="42.87455" lon="0.17151">
        <ele>2426</ele>
        <time>2018-04-14T11:27:00Z</time>
      </trkpt>
      <trkpt lat="42.87457" lon="0.17144">
        <ele>2422</ele>
        <time>2018-04-14T11:27:03Z</time>
      </trkpt>
      <trkpt lat="42.87456" lon="0.1715">
        <ele>2421</ele>
        <time>2018-04-14T11:27:10Z</time>
      </trkpt>
      <trkpt lat="42.87451" lon="0.17154">
        <ele>2420</ele>
        <time>2018-04-14T11:27:38Z</time>
      </trkpt>
      <trkpt lat="42.87456" lon="0.17155">
        <ele>2419</ele>
        <time>2018-04-14T11:27:40Z</time>
      </trkpt>
      <trkpt lat="42.8746" lon="0.17137">
        <ele>2413</ele>
        <time>2018-04-14T11:27:44Z</time>
      </trkpt>
      <trkpt lat="42.87462" lon="0.17119">
        <ele>2409</ele>
        <time>2018-04-14T11:27:47Z</time>
      </trkpt>
      <trkpt lat="42.87472" lon="0.17121">
        <ele>2403</ele>
        <time>2018-04-14T11:27:49Z</time>
      </trkpt>
      <trkpt lat="42.87483" lon="0.17117">
        <ele>2398</ele>
        <time>2018-04-14T11:27:52Z</time>
      </trkpt>
      <trkpt lat="42.87481" lon="0.17098">
        <ele>2391</ele>
        <time>2018-04-14T11:27:55Z</time>
      </trkpt>
      <trkpt lat="42.87489" lon="0.1709">
        <ele>2387</ele>
        <time>2018-04-14T11:27:58Z</time>
      </trkpt>
      <trkpt lat="42.87498" lon="0.17091">
        <ele>2385</ele>
        <time>2018-04-14T11:28:00Z</time>
      </trkpt>
      <trkpt lat="42.875" lon="0.17079">
        <ele>2381</ele>
        <time>2018-04-14T11:28:02Z</time>
      </trkpt>
      <trkpt lat="42.87498" lon="0.17065">
        <ele>2379</ele>
        <time>2018-04-14T11:28:04Z</time>
      </trkpt>
      <trkpt lat="42.87494" lon="0.17059">
        <ele>2379</ele>
        <time>2018-04-14T11:28:11Z</time>
      </trkpt>
      <trkpt lat="42.87508" lon="0.17069">
        <ele>2375</ele>
        <time>2018-04-14T11:28:17Z</time>
      </trkpt>
      <trkpt lat="42.87518" lon="0.17072">
        <ele>2372</ele>
        <time>2018-04-14T11:28:21Z</time>
      </trkpt>
      <trkpt lat="42.87519" lon="0.17066">
        <ele>2370</ele>
        <time>2018-04-14T11:28:22Z</time>
      </trkpt>
      <trkpt lat="42.87518" lon="0.17052">
        <ele>2367</ele>
        <time>2018-04-14T11:28:25Z</time>
      </trkpt>
      <trkpt lat="42.87513" lon="0.17049">
        <ele>2367</ele>
        <time>2018-04-14T11:28:34Z</time>
      </trkpt>
      <trkpt lat="42.87527" lon="0.17046">
        <ele>2364</ele>
        <time>2018-04-14T11:28:38Z</time>
      </trkpt>
      <trkpt lat="42.87536" lon="0.17049">
        <ele>2362</ele>
        <time>2018-04-14T11:28:40Z</time>
      </trkpt>
      <trkpt lat="42.87545" lon="0.17038">
        <ele>2358</ele>
        <time>2018-04-14T11:28:44Z</time>
      </trkpt>
      <trkpt lat="42.87545" lon="0.17031">
        <ele>2357</ele>
        <time>2018-04-14T11:28:45Z</time>
      </trkpt>
      <trkpt lat="42.87562" lon="0.17014">
        <ele>2353</ele>
        <time>2018-04-14T11:28:48Z</time>
      </trkpt>
      <trkpt lat="42.87574" lon="0.17009">
        <ele>2352</ele>
        <time>2018-04-14T11:28:50Z</time>
      </trkpt>
      <trkpt lat="42.87584" lon="0.17004">
        <ele>2352</ele>
        <time>2018-04-14T11:28:52Z</time>
      </trkpt>
      <trkpt lat="42.87601" lon="0.17">
        <ele>2349</ele>
        <time>2018-04-14T11:28:59Z</time>
      </trkpt>
      <trkpt lat="42.87603" lon="0.16998">
        <ele>2349</ele>
        <time>2018-04-14T11:29:16Z</time>
      </trkpt>
      <trkpt lat="42.8761" lon="0.16999">
        <ele>2346</ele>
        <time>2018-04-14T11:29:21Z</time>
      </trkpt>
      <trkpt lat="42.87616" lon="0.16988">
        <ele>2342</ele>
        <time>2018-04-14T11:29:24Z</time>
      </trkpt>
      <trkpt lat="42.87621" lon="0.16978">
        <ele>2339</ele>
        <time>2018-04-14T11:29:26Z</time>
      </trkpt>
      <trkpt lat="42.87626" lon="0.16976">
        <ele>2339</ele>
        <time>2018-04-14T11:29:27Z</time>
      </trkpt>
      <trkpt lat="42.87641" lon="0.16967">
        <ele>2338</ele>
        <time>2018-04-14T11:29:31Z</time>
      </trkpt>
      <trkpt lat="42.87648" lon="0.16962">
        <ele>2337</ele>
        <time>2018-04-14T11:29:33Z</time>
      </trkpt>
      <trkpt lat="42.87676" lon="0.16948">
        <ele>2333</ele>
        <time>2018-04-14T11:29:38Z</time>
      </trkpt>
      <trkpt lat="42.87693" lon="0.16937">
        <ele>2331</ele>
        <time>2018-04-14T11:29:41Z</time>
      </trkpt>
      <trkpt lat="42.87708" lon="0.16919">
        <ele>2326</ele>
        <time>2018-04-14T11:29:44Z</time>
      </trkpt>
      <trkpt lat="42.87711" lon="0.16912">
        <ele>2327</ele>
        <time>2018-04-14T11:29:45Z</time>
      </trkpt>
      <trkpt lat="42.87715" lon="0.16897">
        <ele>2329</ele>
        <time>2018-04-14T11:29:49Z</time>
      </trkpt>
      <trkpt lat="42.87719" lon="0.16887">
        <ele>2330</ele>
        <time>2018-04-14T11:30:03Z</time>
      </trkpt>
      <trkpt lat="42.87724" lon="0.16882">
        <ele>2331</ele>
        <time>2018-04-14T11:30:15Z</time>
      </trkpt>
      <trkpt lat="42.87731" lon="0.16879">
        <ele>2332</ele>
        <time>2018-04-14T11:30:29Z</time>
      </trkpt>
      <trkpt lat="42.87734" lon="0.16877">
        <ele>2332</ele>
        <time>2018-04-14T11:30:35Z</time>
      </trkpt>
      <trkpt lat="42.87739" lon="0.16873">
        <ele>2331</ele>
        <time>2018-04-14T11:30:40Z</time>
      </trkpt>
      <trkpt lat="42.8777" lon="0.16853">
        <ele>2329</ele>
        <time>2018-04-14T11:30:55Z</time>
      </trkpt>
      <trkpt lat="42.87802" lon="0.16839">
        <ele>2327</ele>
        <time>2018-04-14T11:31:11Z</time>
      </trkpt>
      <trkpt lat="42.87807" lon="0.1683">
        <ele>2328</ele>
        <time>2018-04-14T11:31:25Z</time>
      </trkpt>
      <trkpt lat="42.87807" lon="0.1683">
        <ele>2328</ele>
        <time>2018-04-14T11:31:26Z</time>
      </trkpt>
      <trkpt lat="42.8781" lon="0.16825">
        <ele>2329</ele>
        <time>2018-04-14T11:31:39Z</time>
      </trkpt>
      <trkpt lat="42.87815" lon="0.16825">
        <ele>2329</ele>
        <time>2018-04-14T11:31:47Z</time>
      </trkpt>
      <trkpt lat="42.87845" lon="0.1682">
        <ele>2327</ele>
        <time>2018-04-14T11:32:03Z</time>
      </trkpt>
      <trkpt lat="42.87869" lon="0.16826">
        <ele>2326</ele>
        <time>2018-04-14T11:32:15Z</time>
      </trkpt>
      <trkpt lat="42.87887" lon="0.16822">
        <ele>2324</ele>
        <time>2018-04-14T11:32:19Z</time>
      </trkpt>
      <trkpt lat="42.87904" lon="0.16798">
        <ele>2323</ele>
        <time>2018-04-14T11:32:27Z</time>
      </trkpt>
      <trkpt lat="42.87905" lon="0.16796">
        <ele>2323</ele>
        <time>2018-04-14T11:32:40Z</time>
      </trkpt>
      <trkpt lat="42.87905" lon="0.16795">
        <ele>2323</ele>
        <time>2018-04-14T11:32:58Z</time>
      </trkpt>
      <trkpt lat="42.87905" lon="0.16797">
        <ele>2323</ele>
        <time>2018-04-14T11:33:16Z</time>
      </trkpt>
      <trkpt lat="42.87906" lon="0.16799">
        <ele>2322</ele>
        <time>2018-04-14T11:33:40Z</time>
      </trkpt>
      <trkpt lat="42.87904" lon="0.16796">
        <ele>2322</ele>
        <time>2018-04-14T11:34:13Z</time>
      </trkpt>
      <trkpt lat="42.87903" lon="0.16794">
        <ele>2322</ele>
        <time>2018-04-14T11:34:52Z</time>
      </trkpt>
      <trkpt lat="42.87902" lon="0.16794">
        <ele>2322</ele>
        <time>2018-04-14T11:35:31Z</time>
      </trkpt>
      <trkpt lat="42.87902" lon="0.16794">
        <ele>2323</ele>
        <time>2018-04-14T11:36:07Z</time>
      </trkpt>
      <trkpt lat="42.87903" lon="0.16795">
        <ele>2322</ele>
        <time>2018-04-14T11:36:42Z</time>
      </trkpt>
      <trkpt lat="42.87901" lon="0.16796">
        <ele>2323</ele>
        <time>2018-04-14T11:37:15Z</time>
      </trkpt>
      <trkpt lat="42.87902" lon="0.16795">
        <ele>2324</ele>
        <time>2018-04-14T11:37:56Z</time>
      </trkpt>
      <trkpt lat="42.87903" lon="0.16794">
        <ele>2323</ele>
        <time>2018-04-14T11:38:36Z</time>
      </trkpt>
      <trkpt lat="42.87903" lon="0.16792">
        <ele>2322</ele>
        <time>2018-04-14T11:39:07Z</time>
      </trkpt>
      <trkpt lat="42.87905" lon="0.16793">
        <ele>2324</ele>
        <time>2018-04-14T11:39:40Z</time>
      </trkpt>
      <trkpt lat="42.87906" lon="0.16795">
        <ele>2323</ele>
        <time>2018-04-14T11:40:11Z</time>
      </trkpt>
      <trkpt lat="42.87906" lon="0.16795">
        <ele>2323</ele>
        <time>2018-04-14T11:40:26Z</time>
      </trkpt>
      <trkpt lat="42.87906" lon="0.16796">
        <ele>2324</ele>
        <time>2018-04-14T11:40:37Z</time>
      </trkpt>
      <trkpt lat="42.87905" lon="0.16795">
        <ele>2324</ele>
        <time>2018-04-14T11:40:55Z</time>
      </trkpt>
      <trkpt lat="42.87906" lon="0.16796">
        <ele>2324</ele>
        <time>2018-04-14T11:41:12Z</time>
      </trkpt>
      <trkpt lat="42.87907" lon="0.16795">
        <ele>2324</ele>
        <time>2018-04-14T11:41:28Z</time>
      </trkpt>
      <trkpt lat="42.87908" lon="0.16791">
        <ele>2325</ele>
        <time>2018-04-14T11:41:42Z</time>
      </trkpt>
      <trkpt lat="42.87914" lon="0.16786">
        <ele>2326</ele>
        <time>2018-04-14T11:41:58Z</time>
      </trkpt>
      <trkpt lat="42.87923" lon="0.16779">
        <ele>2328</ele>
        <time>2018-04-14T11:42:14Z</time>
      </trkpt>
      <trkpt lat="42.87929" lon="0.16775">
        <ele>2330</ele>
        <time>2018-04-14T11:42:29Z</time>
      </trkpt>
      <trkpt lat="42.87937" lon="0.16769">
        <ele>2332</ele>
        <time>2018-04-14T11:42:44Z</time>
      </trkpt>
      <trkpt lat="42.87938" lon="0.16768">
        <ele>2332</ele>
        <time>2018-04-14T11:42:47Z</time>
      </trkpt>
      <trkpt lat="42.87944" lon="0.16756">
        <ele>2334</ele>
        <time>2018-04-14T11:43:02Z</time>
      </trkpt>
      <trkpt lat="42.8795" lon="0.16755">
        <ele>2335</ele>
        <time>2018-04-14T11:43:11Z</time>
      </trkpt>
      <trkpt lat="42.87954" lon="0.16752">
        <ele>2336</ele>
        <time>2018-04-14T11:43:25Z</time>
      </trkpt>
      <trkpt lat="42.87966" lon="0.16754">
        <ele>2337</ele>
        <time>2018-04-14T11:43:39Z</time>
      </trkpt>
      <trkpt lat="42.87979" lon="0.16753">
        <ele>2338</ele>
        <time>2018-04-14T11:43:54Z</time>
      </trkpt>
      <trkpt lat="42.87984" lon="0.16751">
        <ele>2338</ele>
        <time>2018-04-14T11:43:59Z</time>
      </trkpt>
      <trkpt lat="42.87991" lon="0.16742">
        <ele>2338</ele>
        <time>2018-04-14T11:44:12Z</time>
      </trkpt>
      <trkpt lat="42.87998" lon="0.16731">
        <ele>2339</ele>
        <time>2018-04-14T11:44:25Z</time>
      </trkpt>
      <trkpt lat="42.88" lon="0.16725">
        <ele>2338</ele>
        <time>2018-04-14T11:44:28Z</time>
      </trkpt>
      <trkpt lat="42.88003" lon="0.16721">
        <ele>2339</ele>
        <time>2018-04-14T11:44:32Z</time>
      </trkpt>
      <trkpt lat="42.88014" lon="0.16709">
        <ele>2338</ele>
        <time>2018-04-14T11:44:45Z</time>
      </trkpt>
      <trkpt lat="42.88022" lon="0.16696">
        <ele>2340</ele>
        <time>2018-04-14T11:45:00Z</time>
      </trkpt>
      <trkpt lat="42.88026" lon="0.16692">
        <ele>2340</ele>
        <time>2018-04-14T11:45:05Z</time>
      </trkpt>
      <trkpt lat="42.8803" lon="0.16681">
        <ele>2340</ele>
        <time>2018-04-14T11:45:16Z</time>
      </trkpt>
      <trkpt lat="42.88027" lon="0.16676">
        <ele>2343</ele>
        <time>2018-04-14T11:45:31Z</time>
      </trkpt>
      <trkpt lat="42.88027" lon="0.1667">
        <ele>2344</ele>
        <time>2018-04-14T11:45:45Z</time>
      </trkpt>
      <trkpt lat="42.88031" lon="0.16665">
        <ele>2345</ele>
        <time>2018-04-14T11:46:04Z</time>
      </trkpt>
      <trkpt lat="42.88034" lon="0.16656">
        <ele>2347</ele>
        <time>2018-04-14T11:46:18Z</time>
      </trkpt>
      <trkpt lat="42.8804" lon="0.16645">
        <ele>2349</ele>
        <time>2018-04-14T11:46:32Z</time>
      </trkpt>
      <trkpt lat="42.88045" lon="0.16647">
        <ele>2351</ele>
        <time>2018-04-14T11:46:44Z</time>
      </trkpt>
      <trkpt lat="42.88049" lon="0.16653">
        <ele>2354</ele>
        <time>2018-04-14T11:47:02Z</time>
      </trkpt>
      <trkpt lat="42.88055" lon="0.16652">
        <ele>2355</ele>
        <time>2018-04-14T11:47:18Z</time>
      </trkpt>
      <trkpt lat="42.88059" lon="0.16647">
        <ele>2358</ele>
        <time>2018-04-14T11:47:32Z</time>
      </trkpt>
      <trkpt lat="42.88061" lon="0.16642">
        <ele>2358</ele>
        <time>2018-04-14T11:47:46Z</time>
      </trkpt>
      <trkpt lat="42.88064" lon="0.16638">
        <ele>2360</ele>
        <time>2018-04-14T11:48:00Z</time>
      </trkpt>
      <trkpt lat="42.88069" lon="0.16633">
        <ele>2361</ele>
        <time>2018-04-14T11:48:14Z</time>
      </trkpt>
      <trkpt lat="42.88073" lon="0.16625">
        <ele>2361</ele>
        <time>2018-04-14T11:48:30Z</time>
      </trkpt>
      <trkpt lat="42.88077" lon="0.16618">
        <ele>2363</ele>
        <time>2018-04-14T11:48:45Z</time>
      </trkpt>
      <trkpt lat="42.88082" lon="0.16609">
        <ele>2365</ele>
        <time>2018-04-14T11:49:02Z</time>
      </trkpt>
      <trkpt lat="42.88087" lon="0.16599">
        <ele>2365</ele>
        <time>2018-04-14T11:49:16Z</time>
      </trkpt>
      <trkpt lat="42.88093" lon="0.16587">
        <ele>2366</ele>
        <time>2018-04-14T11:49:34Z</time>
      </trkpt>
      <trkpt lat="42.88096" lon="0.16576">
        <ele>2369</ele>
        <time>2018-04-14T11:49:51Z</time>
      </trkpt>
      <trkpt lat="42.88097" lon="0.16573">
        <ele>2368</ele>
        <time>2018-04-14T11:49:59Z</time>
      </trkpt>
      <trkpt lat="42.88102" lon="0.16566">
        <ele>2370</ele>
        <time>2018-04-14T11:50:12Z</time>
      </trkpt>
      <trkpt lat="42.88105" lon="0.16564">
        <ele>2370</ele>
        <time>2018-04-14T11:50:25Z</time>
      </trkpt>
      <trkpt lat="42.88106" lon="0.16554">
        <ele>2373</ele>
        <time>2018-04-14T11:50:40Z</time>
      </trkpt>
      <trkpt lat="42.8811" lon="0.16545">
        <ele>2375</ele>
        <time>2018-04-14T11:50:57Z</time>
      </trkpt>
      <trkpt lat="42.88115" lon="0.16539">
        <ele>2377</ele>
        <time>2018-04-14T11:51:12Z</time>
      </trkpt>
      <trkpt lat="42.88119" lon="0.16532">
        <ele>2378</ele>
        <time>2018-04-14T11:51:31Z</time>
      </trkpt>
      <trkpt lat="42.88124" lon="0.16528">
        <ele>2379</ele>
        <time>2018-04-14T11:51:47Z</time>
      </trkpt>
      <trkpt lat="42.88131" lon="0.16517">
        <ele>2381</ele>
        <time>2018-04-14T11:52:02Z</time>
      </trkpt>
      <trkpt lat="42.88138" lon="0.16511">
        <ele>2382</ele>
        <time>2018-04-14T11:52:17Z</time>
      </trkpt>
      <trkpt lat="42.88143" lon="0.16507">
        <ele>2383</ele>
        <time>2018-04-14T11:52:34Z</time>
      </trkpt>
      <trkpt lat="42.8815" lon="0.165">
        <ele>2384</ele>
        <time>2018-04-14T11:52:51Z</time>
      </trkpt>
      <trkpt lat="42.88157" lon="0.16495">
        <ele>2385</ele>
        <time>2018-04-14T11:53:05Z</time>
      </trkpt>
      <trkpt lat="42.88165" lon="0.16492">
        <ele>2386</ele>
        <time>2018-04-14T11:53:22Z</time>
      </trkpt>
      <trkpt lat="42.88176" lon="0.16486">
        <ele>2388</ele>
        <time>2018-04-14T11:53:43Z</time>
      </trkpt>
      <trkpt lat="42.88188" lon="0.16477">
        <ele>2388</ele>
        <time>2018-04-14T11:54:01Z</time>
      </trkpt>
      <trkpt lat="42.88197" lon="0.16466">
        <ele>2389</ele>
        <time>2018-04-14T11:54:19Z</time>
      </trkpt>
      <trkpt lat="42.88201" lon="0.1646">
        <ele>2389</ele>
        <time>2018-04-14T11:54:33Z</time>
      </trkpt>
      <trkpt lat="42.88205" lon="0.16452">
        <ele>2390</ele>
        <time>2018-04-14T11:54:49Z</time>
      </trkpt>
      <trkpt lat="42.8821" lon="0.16443">
        <ele>2391</ele>
        <time>2018-04-14T11:55:04Z</time>
      </trkpt>
      <trkpt lat="42.88218" lon="0.16437">
        <ele>2392</ele>
        <time>2018-04-14T11:55:21Z</time>
      </trkpt>
      <trkpt lat="42.88224" lon="0.16428">
        <ele>2394</ele>
        <time>2018-04-14T11:55:39Z</time>
      </trkpt>
      <trkpt lat="42.8823" lon="0.16419">
        <ele>2395</ele>
        <time>2018-04-14T11:55:59Z</time>
      </trkpt>
      <trkpt lat="42.88237" lon="0.16414">
        <ele>2397</ele>
        <time>2018-04-14T11:56:15Z</time>
      </trkpt>
      <trkpt lat="42.88244" lon="0.16407">
        <ele>2398</ele>
        <time>2018-04-14T11:56:33Z</time>
      </trkpt>
      <trkpt lat="42.88245" lon="0.16402">
        <ele>2399</ele>
        <time>2018-04-14T11:56:56Z</time>
      </trkpt>
      <trkpt lat="42.88249" lon="0.16394">
        <ele>2401</ele>
        <time>2018-04-14T11:57:13Z</time>
      </trkpt>
      <trkpt lat="42.88255" lon="0.16388">
        <ele>2402</ele>
        <time>2018-04-14T11:57:29Z</time>
      </trkpt>
      <trkpt lat="42.8826" lon="0.16385">
        <ele>2404</ele>
        <time>2018-04-14T11:57:46Z</time>
      </trkpt>
      <trkpt lat="42.88262" lon="0.16384">
        <ele>2403</ele>
        <time>2018-04-14T11:58:14Z</time>
      </trkpt>
      <trkpt lat="42.88271" lon="0.16374">
        <ele>2405</ele>
        <time>2018-04-14T11:58:31Z</time>
      </trkpt>
      <trkpt lat="42.8828" lon="0.16368">
        <ele>2407</ele>
        <time>2018-04-14T11:58:48Z</time>
      </trkpt>
      <trkpt lat="42.88287" lon="0.1636">
        <ele>2408</ele>
        <time>2018-04-14T11:59:05Z</time>
      </trkpt>
      <trkpt lat="42.8829" lon="0.16355">
        <ele>2410</ele>
        <time>2018-04-14T11:59:19Z</time>
      </trkpt>
      <trkpt lat="42.88293" lon="0.16349">
        <ele>2411</ele>
        <time>2018-04-14T11:59:34Z</time>
      </trkpt>
      <trkpt lat="42.88297" lon="0.16346">
        <ele>2412</ele>
        <time>2018-04-14T11:59:48Z</time>
      </trkpt>
      <trkpt lat="42.88303" lon="0.16345">
        <ele>2414</ele>
        <time>2018-04-14T12:00:03Z</time>
      </trkpt>
      <trkpt lat="42.88308" lon="0.16343">
        <ele>2415</ele>
        <time>2018-04-14T12:00:18Z</time>
      </trkpt>
      <trkpt lat="42.88312" lon="0.16342">
        <ele>2416</ele>
        <time>2018-04-14T12:00:33Z</time>
      </trkpt>
      <trkpt lat="42.88311" lon="0.16351">
        <ele>2418</ele>
        <time>2018-04-14T12:00:46Z</time>
      </trkpt>
      <trkpt lat="42.88308" lon="0.1636">
        <ele>2420</ele>
        <time>2018-04-14T12:01:03Z</time>
      </trkpt>
      <trkpt lat="42.88307" lon="0.1637">
        <ele>2422</ele>
        <time>2018-04-14T12:01:20Z</time>
      </trkpt>
      <trkpt lat="42.88307" lon="0.16374">
        <ele>2423</ele>
        <time>2018-04-14T12:01:35Z</time>
      </trkpt>
      <trkpt lat="42.8831" lon="0.16371">
        <ele>2425</ele>
        <time>2018-04-14T12:01:49Z</time>
      </trkpt>
      <trkpt lat="42.88321" lon="0.16368">
        <ele>2426</ele>
        <time>2018-04-14T12:02:07Z</time>
      </trkpt>
      <trkpt lat="42.88331" lon="0.16372">
        <ele>2429</ele>
        <time>2018-04-14T12:02:26Z</time>
      </trkpt>
      <trkpt lat="42.88337" lon="0.16368">
        <ele>2432</ele>
        <time>2018-04-14T12:02:42Z</time>
      </trkpt>
      <trkpt lat="42.88346" lon="0.16369">
        <ele>2434</ele>
        <time>2018-04-14T12:02:59Z</time>
      </trkpt>
      <trkpt lat="42.88354" lon="0.16368">
        <ele>2436</ele>
        <time>2018-04-14T12:03:13Z</time>
      </trkpt>
      <trkpt lat="42.88361" lon="0.1637">
        <ele>2438</ele>
        <time>2018-04-14T12:03:27Z</time>
      </trkpt>
      <trkpt lat="42.88367" lon="0.16371">
        <ele>2439</ele>
        <time>2018-04-14T12:03:41Z</time>
      </trkpt>
      <trkpt lat="42.88373" lon="0.16368">
        <ele>2441</ele>
        <time>2018-04-14T12:03:57Z</time>
      </trkpt>
      <trkpt lat="42.8838" lon="0.16367">
        <ele>2444</ele>
        <time>2018-04-14T12:04:14Z</time>
      </trkpt>
      <trkpt lat="42.88388" lon="0.16362">
        <ele>2446</ele>
        <time>2018-04-14T12:04:29Z</time>
      </trkpt>
      <trkpt lat="42.88398" lon="0.1636">
        <ele>2449</ele>
        <time>2018-04-14T12:04:45Z</time>
      </trkpt>
      <trkpt lat="42.88403" lon="0.16357">
        <ele>2451</ele>
        <time>2018-04-14T12:05:02Z</time>
      </trkpt>
      <trkpt lat="42.88401" lon="0.16359">
        <ele>2451</ele>
        <time>2018-04-14T12:05:23Z</time>
      </trkpt>
      <trkpt lat="42.88404" lon="0.16355">
        <ele>2451</ele>
        <time>2018-04-14T12:05:40Z</time>
      </trkpt>
      <trkpt lat="42.88409" lon="0.16351">
        <ele>2454</ele>
        <time>2018-04-14T12:05:54Z</time>
      </trkpt>
      <trkpt lat="42.88418" lon="0.1635">
        <ele>2457</ele>
        <time>2018-04-14T12:06:12Z</time>
      </trkpt>
      <trkpt lat="42.88427" lon="0.16345">
        <ele>2460</ele>
        <time>2018-04-14T12:06:32Z</time>
      </trkpt>
      <trkpt lat="42.88429" lon="0.16345">
        <ele>2461</ele>
        <time>2018-04-14T12:06:49Z</time>
      </trkpt>
      <trkpt lat="42.88427" lon="0.16351">
        <ele>2462</ele>
        <time>2018-04-14T12:07:07Z</time>
      </trkpt>
      <trkpt lat="42.88426" lon="0.16353">
        <ele>2463</ele>
        <time>2018-04-14T12:07:22Z</time>
      </trkpt>
      <trkpt lat="42.88434" lon="0.16346">
        <ele>2466</ele>
        <time>2018-04-14T12:07:42Z</time>
      </trkpt>
      <trkpt lat="42.8844" lon="0.16341">
        <ele>2470</ele>
        <time>2018-04-14T12:07:59Z</time>
      </trkpt>
      <trkpt lat="42.88446" lon="0.16337">
        <ele>2472</ele>
        <time>2018-04-14T12:08:17Z</time>
      </trkpt>
      <trkpt lat="42.88455" lon="0.16338">
        <ele>2475</ele>
        <time>2018-04-14T12:08:32Z</time>
      </trkpt>
      <trkpt lat="42.88458" lon="0.16338">
        <ele>2475</ele>
        <time>2018-04-14T12:08:48Z</time>
      </trkpt>
      <trkpt lat="42.88458" lon="0.16339">
        <ele>2476</ele>
        <time>2018-04-14T12:09:05Z</time>
      </trkpt>
      <trkpt lat="42.88456" lon="0.16337">
        <ele>2476</ele>
        <time>2018-04-14T12:09:22Z</time>
      </trkpt>
      <trkpt lat="42.88457" lon="0.16335">
        <ele>2476</ele>
        <time>2018-04-14T12:09:47Z</time>
      </trkpt>
      <trkpt lat="42.88458" lon="0.16332">
        <ele>2477</ele>
        <time>2018-04-14T12:09:59Z</time>
      </trkpt>
      <trkpt lat="42.88459" lon="0.16333">
        <ele>2477</ele>
        <time>2018-04-14T12:10:15Z</time>
      </trkpt>
      <trkpt lat="42.88459" lon="0.16333">
        <ele>2477</ele>
        <time>2018-04-14T12:10:21Z</time>
      </trkpt>
      <trkpt lat="42.88461" lon="0.16332">
        <ele>2476</ele>
        <time>2018-04-14T12:10:39Z</time>
      </trkpt>
      <trkpt lat="42.8846" lon="0.16333">
        <ele>2476</ele>
        <time>2018-04-14T12:11:18Z</time>
      </trkpt>
      <trkpt lat="42.88459" lon="0.16331">
        <ele>2476</ele>
        <time>2018-04-14T12:11:49Z</time>
      </trkpt>
      <trkpt lat="42.88459" lon="0.1633">
        <ele>2476</ele>
        <time>2018-04-14T12:12:23Z</time>
      </trkpt>
      <trkpt lat="42.88459" lon="0.1633">
        <ele>2476</ele>
        <time>2018-04-14T12:12:59Z</time>
      </trkpt>
      <trkpt lat="42.8846" lon="0.16331">
        <ele>2476</ele>
        <time>2018-04-14T12:13:35Z</time>
      </trkpt>
      <trkpt lat="42.88462" lon="0.16332">
        <ele>2476</ele>
        <time>2018-04-14T12:14:05Z</time>
      </trkpt>
      <trkpt lat="42.88462" lon="0.16333">
        <ele>2476</ele>
        <time>2018-04-14T12:14:44Z</time>
      </trkpt>
      <trkpt lat="42.88461" lon="0.16332">
        <ele>2476</ele>
        <time>2018-04-14T12:15:22Z</time>
      </trkpt>
      <trkpt lat="42.8846" lon="0.16331">
        <ele>2476</ele>
        <time>2018-04-14T12:16:01Z</time>
      </trkpt>
      <trkpt lat="42.88459" lon="0.16331">
        <ele>2476</ele>
        <time>2018-04-14T12:16:38Z</time>
      </trkpt>
      <trkpt lat="42.88459" lon="0.16331">
        <ele>2476</ele>
        <time>2018-04-14T12:17:20Z</time>
      </trkpt>
      <trkpt lat="42.88459" lon="0.16332">
        <ele>2477</ele>
        <time>2018-04-14T12:17:54Z</time>
      </trkpt>
      <trkpt lat="42.88459" lon="0.16334">
        <ele>2476</ele>
        <time>2018-04-14T12:18:03Z</time>
      </trkpt>
      <trkpt lat="42.8846" lon="0.16334">
        <ele>2477</ele>
        <time>2018-04-14T12:18:32Z</time>
      </trkpt>
      <trkpt lat="42.88461" lon="0.16334">
        <ele>2476</ele>
        <time>2018-04-14T12:18:51Z</time>
      </trkpt>
      <trkpt lat="42.8846" lon="0.16333">
        <ele>2477</ele>
        <time>2018-04-14T12:19:13Z</time>
      </trkpt>
      <trkpt lat="42.88461" lon="0.16333">
        <ele>2476</ele>
        <time>2018-04-14T12:19:31Z</time>
      </trkpt>
      <trkpt lat="42.88461" lon="0.16332">
        <ele>2476</ele>
        <time>2018-04-14T12:19:54Z</time>
      </trkpt>
      <trkpt lat="42.88461" lon="0.16333">
        <ele>2477</ele>
        <time>2018-04-14T12:20:12Z</time>
      </trkpt>
      <trkpt lat="42.88461" lon="0.16331">
        <ele>2477</ele>
        <time>2018-04-14T12:20:34Z</time>
      </trkpt>
      <trkpt lat="42.88459" lon="0.16332">
        <ele>2477</ele>
        <time>2018-04-14T12:20:49Z</time>
      </trkpt>
      <trkpt lat="42.88461" lon="0.16332">
        <ele>2477</ele>
        <time>2018-04-14T12:21:10Z</time>
      </trkpt>
      <trkpt lat="42.88462" lon="0.1633">
        <ele>2477</ele>
        <time>2018-04-14T12:21:33Z</time>
      </trkpt>
      <trkpt lat="42.88469" lon="0.16329">
        <ele>2475</ele>
        <time>2018-04-14T12:21:46Z</time>
      </trkpt>
      <trkpt lat="42.88472" lon="0.16338">
        <ele>2471</ele>
        <time>2018-04-14T12:21:50Z</time>
      </trkpt>
      <trkpt lat="42.88472" lon="0.16344">
        <ele>2469</ele>
        <time>2018-04-14T12:21:55Z</time>
      </trkpt>
      <trkpt lat="42.88482" lon="0.16342">
        <ele>2465</ele>
        <time>2018-04-14T12:21:59Z</time>
      </trkpt>
      <trkpt lat="42.88488" lon="0.16337">
        <ele>2463</ele>
        <time>2018-04-14T12:22:01Z</time>
      </trkpt>
      <trkpt lat="42.88491" lon="0.16332">
        <ele>2462</ele>
        <time>2018-04-14T12:22:03Z</time>
      </trkpt>
      <trkpt lat="42.88501" lon="0.16317">
        <ele>2458</ele>
        <time>2018-04-14T12:22:08Z</time>
      </trkpt>
      <trkpt lat="42.88504" lon="0.16306">
        <ele>2456</ele>
        <time>2018-04-14T12:22:11Z</time>
      </trkpt>
      <trkpt lat="42.8851" lon="0.16289">
        <ele>2453</ele>
        <time>2018-04-14T12:22:16Z</time>
      </trkpt>
      <trkpt lat="42.8851" lon="0.16284">
        <ele>2453</ele>
        <time>2018-04-14T12:22:17Z</time>
      </trkpt>
      <trkpt lat="42.88512" lon="0.16272">
        <ele>2450</ele>
        <time>2018-04-14T12:22:20Z</time>
      </trkpt>
      <trkpt lat="42.88518" lon="0.1627">
        <ele>2445</ele>
        <time>2018-04-14T12:22:22Z</time>
      </trkpt>
      <trkpt lat="42.88523" lon="0.16268">
        <ele>2442</ele>
        <time>2018-04-14T12:22:23Z</time>
      </trkpt>
      <trkpt lat="42.88534" lon="0.16269">
        <ele>2437</ele>
        <time>2018-04-14T12:22:25Z</time>
      </trkpt>
      <trkpt lat="42.88547" lon="0.16275">
        <ele>2429</ele>
        <time>2018-04-14T12:22:28Z</time>
      </trkpt>
      <trkpt lat="42.8856" lon="0.16295">
        <ele>2420</ele>
        <time>2018-04-14T12:22:32Z</time>
      </trkpt>
      <trkpt lat="42.8856" lon="0.16301">
        <ele>2418</ele>
        <time>2018-04-14T12:22:33Z</time>
      </trkpt>
      <trkpt lat="42.88559" lon="0.16317">
        <ele>2417</ele>
        <time>2018-04-14T12:22:42Z</time>
      </trkpt>
      <trkpt lat="42.8856" lon="0.16317">
        <ele>2418</ele>
        <time>2018-04-14T12:22:52Z</time>
      </trkpt>
      <trkpt lat="42.88564" lon="0.16332">
        <ele>2413</ele>
        <time>2018-04-14T12:22:57Z</time>
      </trkpt>
      <trkpt lat="42.8857" lon="0.1634">
        <ele>2407</ele>
        <time>2018-04-14T12:22:59Z</time>
      </trkpt>
      <trkpt lat="42.88577" lon="0.16349">
        <ele>2402</ele>
        <time>2018-04-14T12:23:01Z</time>
      </trkpt>
      <trkpt lat="42.8858" lon="0.16359">
        <ele>2398</ele>
        <time>2018-04-14T12:23:03Z</time>
      </trkpt>
      <trkpt lat="42.88579" lon="0.16362">
        <ele>2398</ele>
        <time>2018-04-14T12:23:04Z</time>
      </trkpt>
      <trkpt lat="42.88577" lon="0.1637">
        <ele>2397</ele>
        <time>2018-04-14T12:23:06Z</time>
      </trkpt>
      <trkpt lat="42.88574" lon="0.16369">
        <ele>2397</ele>
        <time>2018-04-14T12:23:15Z</time>
      </trkpt>
      <trkpt lat="42.88573" lon="0.1637">
        <ele>2397</ele>
        <time>2018-04-14T12:23:21Z</time>
      </trkpt>
      <trkpt lat="42.88575" lon="0.16379">
        <ele>2395</ele>
        <time>2018-04-14T12:23:25Z</time>
      </trkpt>
      <trkpt lat="42.88579" lon="0.16381">
        <ele>2390</ele>
        <time>2018-04-14T12:23:28Z</time>
      </trkpt>
      <trkpt lat="42.88582" lon="0.16386">
        <ele>2387</ele>
        <time>2018-04-14T12:23:30Z</time>
      </trkpt>
      <trkpt lat="42.8859" lon="0.16383">
        <ele>2383</ele>
        <time>2018-04-14T12:23:33Z</time>
      </trkpt>
      <trkpt lat="42.88593" lon="0.16384">
        <ele>2380</ele>
        <time>2018-04-14T12:23:36Z</time>
      </trkpt>
      <trkpt lat="42.88592" lon="0.16391">
        <ele>2377</ele>
        <time>2018-04-14T12:23:39Z</time>
      </trkpt>
      <trkpt lat="42.88594" lon="0.16393">
        <ele>2378</ele>
        <time>2018-04-14T12:23:46Z</time>
      </trkpt>
      <trkpt lat="42.8859" lon="0.16417">
        <ele>2375</ele>
        <time>2018-04-14T12:23:52Z</time>
      </trkpt>
      <trkpt lat="42.88587" lon="0.16432">
        <ele>2373</ele>
        <time>2018-04-14T12:23:56Z</time>
      </trkpt>
      <trkpt lat="42.88584" lon="0.16445">
        <ele>2372</ele>
        <time>2018-04-14T12:24:00Z</time>
      </trkpt>
      <trkpt lat="42.88592" lon="0.16463">
        <ele>2365</ele>
        <time>2018-04-14T12:24:04Z</time>
      </trkpt>
      <trkpt lat="42.88598" lon="0.1647">
        <ele>2359</ele>
        <time>2018-04-14T12:24:06Z</time>
      </trkpt>
      <trkpt lat="42.88603" lon="0.16474">
        <ele>2354</ele>
        <time>2018-04-14T12:24:07Z</time>
      </trkpt>
      <trkpt lat="42.88606" lon="0.16478">
        <ele>2352</ele>
        <time>2018-04-14T12:24:08Z</time>
      </trkpt>
      <trkpt lat="42.88624" lon="0.16492">
        <ele>2343</ele>
        <time>2018-04-14T12:24:12Z</time>
      </trkpt>
      <trkpt lat="42.88636" lon="0.16477">
        <ele>2341</ele>
        <time>2018-04-14T12:24:14Z</time>
      </trkpt>
      <trkpt lat="42.88631" lon="0.16469">
        <ele>2340</ele>
        <time>2018-04-14T12:24:16Z</time>
      </trkpt>
      <trkpt lat="42.88623" lon="0.16462">
        <ele>2340</ele>
        <time>2018-04-14T12:24:27Z</time>
      </trkpt>
      <trkpt lat="42.88621" lon="0.16458">
        <ele>2341</ele>
        <time>2018-04-14T12:24:45Z</time>
      </trkpt>
      <trkpt lat="42.88621" lon="0.16456">
        <ele>2341</ele>
        <time>2018-04-14T12:25:07Z</time>
      </trkpt>
      <trkpt lat="42.88621" lon="0.16454">
        <ele>2341</ele>
        <time>2018-04-14T12:25:32Z</time>
      </trkpt>
      <trkpt lat="42.88625" lon="0.16453">
        <ele>2340</ele>
        <time>2018-04-14T12:25:55Z</time>
      </trkpt>
      <trkpt lat="42.88623" lon="0.16452">
        <ele>2341</ele>
        <time>2018-04-14T12:26:23Z</time>
      </trkpt>
      <trkpt lat="42.88623" lon="0.16454">
        <ele>2340</ele>
        <time>2018-04-14T12:26:40Z</time>
      </trkpt>
      <trkpt lat="42.88626" lon="0.16455">
        <ele>2340</ele>
        <time>2018-04-14T12:27:07Z</time>
      </trkpt>
      <trkpt lat="42.88622" lon="0.1645">
        <ele>2340</ele>
        <time>2018-04-14T12:27:25Z</time>
      </trkpt>
      <trkpt lat="42.88621" lon="0.16445">
        <ele>2340</ele>
        <time>2018-04-14T12:27:28Z</time>
      </trkpt>
      <trkpt lat="42.88624" lon="0.16417">
        <ele>2337</ele>
        <time>2018-04-14T12:27:34Z</time>
      </trkpt>
      <trkpt lat="42.88631" lon="0.16408">
        <ele>2336</ele>
        <time>2018-04-14T12:27:36Z</time>
      </trkpt>
      <trkpt lat="42.88646" lon="0.1639">
        <ele>2331</ele>
        <time>2018-04-14T12:27:40Z</time>
      </trkpt>
      <trkpt lat="42.88667" lon="0.16365">
        <ele>2327</ele>
        <time>2018-04-14T12:27:46Z</time>
      </trkpt>
      <trkpt lat="42.88679" lon="0.16354">
        <ele>2325</ele>
        <time>2018-04-14T12:27:49Z</time>
      </trkpt>
      <trkpt lat="42.88698" lon="0.16344">
        <ele>2322</ele>
        <time>2018-04-14T12:27:53Z</time>
      </trkpt>
      <trkpt lat="42.88715" lon="0.16332">
        <ele>2318</ele>
        <time>2018-04-14T12:27:57Z</time>
      </trkpt>
      <trkpt lat="42.88732" lon="0.16325">
        <ele>2314</ele>
        <time>2018-04-14T12:28:00Z</time>
      </trkpt>
      <trkpt lat="42.88744" lon="0.16329">
        <ele>2307</ele>
        <time>2018-04-14T12:28:02Z</time>
      </trkpt>
      <trkpt lat="42.88755" lon="0.16332">
        <ele>2304</ele>
        <time>2018-04-14T12:28:04Z</time>
      </trkpt>
      <trkpt lat="42.88772" lon="0.16324">
        <ele>2300</ele>
        <time>2018-04-14T12:28:07Z</time>
      </trkpt>
      <trkpt lat="42.88794" lon="0.16314">
        <ele>2296</ele>
        <time>2018-04-14T12:28:10Z</time>
      </trkpt>
      <trkpt lat="42.88817" lon="0.16302">
        <ele>2293</ele>
        <time>2018-04-14T12:28:13Z</time>
      </trkpt>
      <trkpt lat="42.88833" lon="0.16294">
        <ele>2290</ele>
        <time>2018-04-14T12:28:15Z</time>
      </trkpt>
      <trkpt lat="42.88855" lon="0.16283">
        <ele>2286</ele>
        <time>2018-04-14T12:28:18Z</time>
      </trkpt>
      <trkpt lat="42.88882" lon="0.16279">
        <ele>2284</ele>
        <time>2018-04-14T12:28:22Z</time>
      </trkpt>
      <trkpt lat="42.88897" lon="0.16277">
        <ele>2281</ele>
        <time>2018-04-14T12:28:25Z</time>
      </trkpt>
      <trkpt lat="42.88932" lon="0.16269">
        <ele>2277</ele>
        <time>2018-04-14T12:28:31Z</time>
      </trkpt>
      <trkpt lat="42.88963" lon="0.16257">
        <ele>2273</ele>
        <time>2018-04-14T12:28:36Z</time>
      </trkpt>
      <trkpt lat="42.88988" lon="0.16247">
        <ele>2270</ele>
        <time>2018-04-14T12:28:40Z</time>
      </trkpt>
      <trkpt lat="42.89006" lon="0.16241">
        <ele>2267</ele>
        <time>2018-04-14T12:28:43Z</time>
      </trkpt>
      <trkpt lat="42.89055" lon="0.16241">
        <ele>2262</ele>
        <time>2018-04-14T12:28:51Z</time>
      </trkpt>
      <trkpt lat="42.8906" lon="0.16242">
        <ele>2262</ele>
        <time>2018-04-14T12:28:52Z</time>
      </trkpt>
      <trkpt lat="42.8907" lon="0.16241">
        <ele>2261</ele>
        <time>2018-04-14T12:28:54Z</time>
      </trkpt>
      <trkpt lat="42.89086" lon="0.16236">
        <ele>2259</ele>
        <time>2018-04-14T12:28:58Z</time>
      </trkpt>
      <trkpt lat="42.89114" lon="0.16224">
        <ele>2256</ele>
        <time>2018-04-14T12:29:03Z</time>
      </trkpt>
      <trkpt lat="42.8913" lon="0.16217">
        <ele>2253</ele>
        <time>2018-04-14T12:29:06Z</time>
      </trkpt>
      <trkpt lat="42.89143" lon="0.16218">
        <ele>2252</ele>
        <time>2018-04-14T12:29:09Z</time>
      </trkpt>
      <trkpt lat="42.89162" lon="0.16241">
        <ele>2248</ele>
        <time>2018-04-14T12:29:14Z</time>
      </trkpt>
      <trkpt lat="42.89172" lon="0.16256">
        <ele>2244</ele>
        <time>2018-04-14T12:29:17Z</time>
      </trkpt>
      <trkpt lat="42.89199" lon="0.1628">
        <ele>2235</ele>
        <time>2018-04-14T12:29:22Z</time>
      </trkpt>
      <trkpt lat="42.89202" lon="0.16286">
        <ele>2234</ele>
        <time>2018-04-14T12:29:23Z</time>
      </trkpt>
      <trkpt lat="42.89211" lon="0.16316">
        <ele>2229</ele>
        <time>2018-04-14T12:29:28Z</time>
      </trkpt>
      <trkpt lat="42.89214" lon="0.16321">
        <ele>2225</ele>
        <time>2018-04-14T12:29:33Z</time>
      </trkpt>
      <trkpt lat="42.89222" lon="0.16316">
        <ele>2219</ele>
        <time>2018-04-14T12:29:36Z</time>
      </trkpt>
      <trkpt lat="42.89226" lon="0.1632">
        <ele>2216</ele>
        <time>2018-04-14T12:29:39Z</time>
      </trkpt>
      <trkpt lat="42.89231" lon="0.1631">
        <ele>2211</ele>
        <time>2018-04-14T12:29:41Z</time>
      </trkpt>
      <trkpt lat="42.89236" lon="0.16299">
        <ele>2208</ele>
        <time>2018-04-14T12:29:43Z</time>
      </trkpt>
      <trkpt lat="42.89242" lon="0.16296">
        <ele>2203</ele>
        <time>2018-04-14T12:29:45Z</time>
      </trkpt>
      <trkpt lat="42.8925" lon="0.16309">
        <ele>2200</ele>
        <time>2018-04-14T12:29:48Z</time>
      </trkpt>
      <trkpt lat="42.89255" lon="0.16318">
        <ele>2199</ele>
        <time>2018-04-14T12:29:50Z</time>
      </trkpt>
      <trkpt lat="42.8927" lon="0.16321">
        <ele>2197</ele>
        <time>2018-04-14T12:29:53Z</time>
      </trkpt>
      <trkpt lat="42.89279" lon="0.16322">
        <ele>2195</ele>
        <time>2018-04-14T12:29:55Z</time>
      </trkpt>
      <trkpt lat="42.89291" lon="0.16317">
        <ele>2193</ele>
        <time>2018-04-14T12:29:57Z</time>
      </trkpt>
      <trkpt lat="42.89303" lon="0.16305">
        <ele>2190</ele>
        <time>2018-04-14T12:30:00Z</time>
      </trkpt>
      <trkpt lat="42.89315" lon="0.16293">
        <ele>2186</ele>
        <time>2018-04-14T12:30:02Z</time>
      </trkpt>
      <trkpt lat="42.89332" lon="0.16275">
        <ele>2180</ele>
        <time>2018-04-14T12:30:05Z</time>
      </trkpt>
      <trkpt lat="42.89337" lon="0.16269">
        <ele>2178</ele>
        <time>2018-04-14T12:30:06Z</time>
      </trkpt>
      <trkpt lat="42.89347" lon="0.1626">
        <ele>2177</ele>
        <time>2018-04-14T12:30:08Z</time>
      </trkpt>
      <trkpt lat="42.89355" lon="0.16256">
        <ele>2174</ele>
        <time>2018-04-14T12:30:10Z</time>
      </trkpt>
      <trkpt lat="42.89358" lon="0.16254">
        <ele>2174</ele>
        <time>2018-04-14T12:30:11Z</time>
      </trkpt>
      <trkpt lat="42.89343" lon="0.16245">
        <ele>2172</ele>
        <time>2018-04-14T12:30:23Z</time>
      </trkpt>
      <trkpt lat="42.89329" lon="0.16247">
        <ele>2173</ele>
        <time>2018-04-14T12:30:51Z</time>
      </trkpt>
      <trkpt lat="42.89332" lon="0.16247">
        <ele>2173</ele>
        <time>2018-04-14T12:31:11Z</time>
      </trkpt>
      <trkpt lat="42.89336" lon="0.16245">
        <ele>2174</ele>
        <time>2018-04-14T12:31:32Z</time>
      </trkpt>
      <trkpt lat="42.89336" lon="0.16243">
        <ele>2173</ele>
        <time>2018-04-14T12:31:46Z</time>
      </trkpt>
      <trkpt lat="42.89338" lon="0.16243">
        <ele>2173</ele>
        <time>2018-04-14T12:32:07Z</time>
      </trkpt>
      <trkpt lat="42.89334" lon="0.16235">
        <ele>2173</ele>
        <time>2018-04-14T12:32:30Z</time>
      </trkpt>
      <trkpt lat="42.89333" lon="0.1624">
        <ele>2173</ele>
        <time>2018-04-14T12:32:54Z</time>
      </trkpt>
      <trkpt lat="42.89343" lon="0.16246">
        <ele>2173</ele>
        <time>2018-04-14T12:33:18Z</time>
      </trkpt>
      <trkpt lat="42.89337" lon="0.16237">
        <ele>2172</ele>
        <time>2018-04-14T12:33:39Z</time>
      </trkpt>
      <trkpt lat="42.89336" lon="0.16234">
        <ele>2173</ele>
        <time>2018-04-14T12:33:51Z</time>
      </trkpt>
      <trkpt lat="42.89342" lon="0.16238">
        <ele>2171</ele>
        <time>2018-04-14T12:34:01Z</time>
      </trkpt>
      <trkpt lat="42.89344" lon="0.16237">
        <ele>2171</ele>
        <time>2018-04-14T12:34:21Z</time>
      </trkpt>
      <trkpt lat="42.89343" lon="0.16235">
        <ele>2171</ele>
        <time>2018-04-14T12:34:37Z</time>
      </trkpt>
      <trkpt lat="42.89344" lon="0.16235">
        <ele>2171</ele>
        <time>2018-04-14T12:34:39Z</time>
      </trkpt>
      <trkpt lat="42.89351" lon="0.16238">
        <ele>2170</ele>
        <time>2018-04-14T12:34:42Z</time>
      </trkpt>
      <trkpt lat="42.89379" lon="0.1623">
        <ele>2165</ele>
        <time>2018-04-14T12:34:47Z</time>
      </trkpt>
      <trkpt lat="42.89395" lon="0.16221">
        <ele>2162</ele>
        <time>2018-04-14T12:34:50Z</time>
      </trkpt>
      <trkpt lat="42.89421" lon="0.162">
        <ele>2156</ele>
        <time>2018-04-14T12:34:55Z</time>
      </trkpt>
      <trkpt lat="42.89432" lon="0.16194">
        <ele>2154</ele>
        <time>2018-04-14T12:34:57Z</time>
      </trkpt>
      <trkpt lat="42.89449" lon="0.16184">
        <ele>2150</ele>
        <time>2018-04-14T12:35:00Z</time>
      </trkpt>
      <trkpt lat="42.89462" lon="0.16177">
        <ele>2146</ele>
        <time>2018-04-14T12:35:02Z</time>
      </trkpt>
      <trkpt lat="42.89474" lon="0.1617">
        <ele>2143</ele>
        <time>2018-04-14T12:35:04Z</time>
      </trkpt>
      <trkpt lat="42.89487" lon="0.16166">
        <ele>2139</ele>
        <time>2018-04-14T12:35:06Z</time>
      </trkpt>
      <trkpt lat="42.89506" lon="0.16159">
        <ele>2133</ele>
        <time>2018-04-14T12:35:09Z</time>
      </trkpt>
      <trkpt lat="42.89515" lon="0.16154">
        <ele>2128</ele>
        <time>2018-04-14T12:35:10Z</time>
      </trkpt>
      <trkpt lat="42.89535" lon="0.16138">
        <ele>2119</ele>
        <time>2018-04-14T12:35:12Z</time>
      </trkpt>
      <trkpt lat="42.89546" lon="0.1613">
        <ele>2115</ele>
        <time>2018-04-14T12:35:13Z</time>
      </trkpt>
      <trkpt lat="42.89569" lon="0.16112">
        <ele>2110</ele>
        <time>2018-04-14T12:35:15Z</time>
      </trkpt>
      <trkpt lat="42.89591" lon="0.16092">
        <ele>2106</ele>
        <time>2018-04-14T12:35:17Z</time>
      </trkpt>
      <trkpt lat="42.89626" lon="0.16055">
        <ele>2108</ele>
        <time>2018-04-14T12:35:21Z</time>
      </trkpt>
      <trkpt lat="42.89647" lon="0.16041">
        <ele>2113</ele>
        <time>2018-04-14T12:35:24Z</time>
      </trkpt>
      <trkpt lat="42.8968" lon="0.16021">
        <ele>2115</ele>
        <time>2018-04-14T12:35:31Z</time>
      </trkpt>
      <trkpt lat="42.89689" lon="0.16017">
        <ele>2114</ele>
        <time>2018-04-14T12:35:33Z</time>
      </trkpt>
      <trkpt lat="42.89706" lon="0.15999">
        <ele>2109</ele>
        <time>2018-04-14T12:35:37Z</time>
      </trkpt>
      <trkpt lat="42.89712" lon="0.15993">
        <ele>2106</ele>
        <time>2018-04-14T12:35:38Z</time>
      </trkpt>
      <trkpt lat="42.89729" lon="0.15976">
        <ele>2101</ele>
        <time>2018-04-14T12:35:41Z</time>
      </trkpt>
      <trkpt lat="42.89747" lon="0.1596">
        <ele>2097</ele>
        <time>2018-04-14T12:35:44Z</time>
      </trkpt>
      <trkpt lat="42.8977" lon="0.15941">
        <ele>2090</ele>
        <time>2018-04-14T12:35:49Z</time>
      </trkpt>
      <trkpt lat="42.89773" lon="0.15937">
        <ele>2090</ele>
        <time>2018-04-14T12:35:50Z</time>
      </trkpt>
      <trkpt lat="42.89779" lon="0.15931">
        <ele>2086</ele>
        <time>2018-04-14T12:35:52Z</time>
      </trkpt>
      <trkpt lat="42.89787" lon="0.15941">
        <ele>2085</ele>
        <time>2018-04-14T12:35:56Z</time>
      </trkpt>
      <trkpt lat="42.89788" lon="0.1594">
        <ele>2085</ele>
        <time>2018-04-14T12:36:03Z</time>
      </trkpt>
      <trkpt lat="42.8979" lon="0.15916">
        <ele>2082</ele>
        <time>2018-04-14T12:36:09Z</time>
      </trkpt>
      <trkpt lat="42.89785" lon="0.15908">
        <ele>2082</ele>
        <time>2018-04-14T12:36:21Z</time>
      </trkpt>
      <trkpt lat="42.89784" lon="0.15907">
        <ele>2082</ele>
        <time>2018-04-14T12:36:25Z</time>
      </trkpt>
      <trkpt lat="42.89785" lon="0.15896">
        <ele>2081</ele>
        <time>2018-04-14T12:36:30Z</time>
      </trkpt>
      <trkpt lat="42.898" lon="0.15871">
        <ele>2078</ele>
        <time>2018-04-14T12:36:36Z</time>
      </trkpt>
      <trkpt lat="42.89805" lon="0.15863">
        <ele>2076</ele>
        <time>2018-04-14T12:36:38Z</time>
      </trkpt>
      <trkpt lat="42.89811" lon="0.15853">
        <ele>2075</ele>
        <time>2018-04-14T12:36:40Z</time>
      </trkpt>
      <trkpt lat="42.89837" lon="0.15856">
        <ele>2071</ele>
        <time>2018-04-14T12:36:47Z</time>
      </trkpt>
      <trkpt lat="42.89848" lon="0.1585">
        <ele>2069</ele>
        <time>2018-04-14T12:36:50Z</time>
      </trkpt>
      <trkpt lat="42.89851" lon="0.15847">
        <ele>2068</ele>
        <time>2018-04-14T12:36:51Z</time>
      </trkpt>
      <trkpt lat="42.8986" lon="0.15836">
        <ele>2065</ele>
        <time>2018-04-14T12:36:54Z</time>
      </trkpt>
      <trkpt lat="42.8987" lon="0.15813">
        <ele>2061</ele>
        <time>2018-04-14T12:36:58Z</time>
      </trkpt>
      <trkpt lat="42.89876" lon="0.15799">
        <ele>2058</ele>
        <time>2018-04-14T12:37:01Z</time>
      </trkpt>
      <trkpt lat="42.89881" lon="0.15789">
        <ele>2058</ele>
        <time>2018-04-14T12:37:09Z</time>
      </trkpt>
      <trkpt lat="42.89881" lon="0.15789">
        <ele>2057</ele>
        <time>2018-04-14T12:37:10Z</time>
      </trkpt>
      <trkpt lat="42.89891" lon="0.15805">
        <ele>2052</ele>
        <time>2018-04-14T12:37:14Z</time>
      </trkpt>
      <trkpt lat="42.89897" lon="0.15803">
        <ele>2048</ele>
        <time>2018-04-14T12:37:16Z</time>
      </trkpt>
      <trkpt lat="42.89905" lon="0.15798">
        <ele>2044</ele>
        <time>2018-04-14T12:37:18Z</time>
      </trkpt>
      <trkpt lat="42.89914" lon="0.15805">
        <ele>2041</ele>
        <time>2018-04-14T12:37:20Z</time>
      </trkpt>
      <trkpt lat="42.89926" lon="0.1581">
        <ele>2037</ele>
        <time>2018-04-14T12:37:23Z</time>
      </trkpt>
      <trkpt lat="42.89933" lon="0.15805">
        <ele>2036</ele>
        <time>2018-04-14T12:37:24Z</time>
      </trkpt>
      <trkpt lat="42.89944" lon="0.15797">
        <ele>2034</ele>
        <time>2018-04-14T12:37:26Z</time>
      </trkpt>
      <trkpt lat="42.89949" lon="0.15795">
        <ele>2033</ele>
        <time>2018-04-14T12:37:28Z</time>
      </trkpt>
      <trkpt lat="42.89974" lon="0.158">
        <ele>2029</ele>
        <time>2018-04-14T12:37:34Z</time>
      </trkpt>
      <trkpt lat="42.89991" lon="0.15811">
        <ele>2026</ele>
        <time>2018-04-14T12:37:38Z</time>
      </trkpt>
      <trkpt lat="42.9" lon="0.1582">
        <ele>2025</ele>
        <time>2018-04-14T12:37:41Z</time>
      </trkpt>
      <trkpt lat="42.90018" lon="0.15823">
        <ele>2023</ele>
        <time>2018-04-14T12:37:47Z</time>
      </trkpt>
      <trkpt lat="42.9002" lon="0.15822">
        <ele>2023</ele>
        <time>2018-04-14T12:37:48Z</time>
      </trkpt>
      <trkpt lat="42.90044" lon="0.15804">
        <ele>2019</ele>
        <time>2018-04-14T12:37:56Z</time>
      </trkpt>
      <trkpt lat="42.90048" lon="0.158">
        <ele>2019</ele>
        <time>2018-04-14T12:37:57Z</time>
      </trkpt>
      <trkpt lat="42.90057" lon="0.15804">
        <ele>2016</ele>
        <time>2018-04-14T12:38:01Z</time>
      </trkpt>
      <trkpt lat="42.90056" lon="0.15807">
        <ele>2016</ele>
        <time>2018-04-14T12:38:11Z</time>
      </trkpt>
      <trkpt lat="42.90054" lon="0.15806">
        <ele>2016</ele>
        <time>2018-04-14T12:38:34Z</time>
      </trkpt>
      <trkpt lat="42.90054" lon="0.15804">
        <ele>2016</ele>
        <time>2018-04-14T12:39:03Z</time>
      </trkpt>
      <trkpt lat="42.90052" lon="0.15804">
        <ele>2016</ele>
        <time>2018-04-14T12:39:34Z</time>
      </trkpt>
      <trkpt lat="42.90051" lon="0.15805">
        <ele>2017</ele>
        <time>2018-04-14T12:39:56Z</time>
      </trkpt>
      <trkpt lat="42.90051" lon="0.15802">
        <ele>2017</ele>
        <time>2018-04-14T12:40:18Z</time>
      </trkpt>
      <trkpt lat="42.90054" lon="0.15804">
        <ele>2016</ele>
        <time>2018-04-14T12:40:47Z</time>
      </trkpt>
      <trkpt lat="42.90055" lon="0.15805">
        <ele>2016</ele>
        <time>2018-04-14T12:41:07Z</time>
      </trkpt>
      <trkpt lat="42.90055" lon="0.15806">
        <ele>2016</ele>
        <time>2018-04-14T12:41:18Z</time>
      </trkpt>
      <trkpt lat="42.9007" lon="0.1582">
        <ele>2013</ele>
        <time>2018-04-14T12:41:23Z</time>
      </trkpt>
      <trkpt lat="42.90075" lon="0.15826">
        <ele>2011</ele>
        <time>2018-04-14T12:41:24Z</time>
      </trkpt>
      <trkpt lat="42.90083" lon="0.15838">
        <ele>2008</ele>
        <time>2018-04-14T12:41:26Z</time>
      </trkpt>
      <trkpt lat="42.9009" lon="0.15858">
        <ele>2003</ele>
        <time>2018-04-14T12:41:29Z</time>
      </trkpt>
      <trkpt lat="42.90093" lon="0.15866">
        <ele>1999</ele>
        <time>2018-04-14T12:41:31Z</time>
      </trkpt>
      <trkpt lat="42.90107" lon="0.15858">
        <ele>1996</ele>
        <time>2018-04-14T12:41:35Z</time>
      </trkpt>
      <trkpt lat="42.90111" lon="0.15848">
        <ele>1992</ele>
        <time>2018-04-14T12:41:38Z</time>
      </trkpt>
      <trkpt lat="42.90105" lon="0.15844">
        <ele>1993</ele>
        <time>2018-04-14T12:41:47Z</time>
      </trkpt>
      <trkpt lat="42.9011" lon="0.1585">
        <ele>1991</ele>
        <time>2018-04-14T12:41:54Z</time>
      </trkpt>
      <trkpt lat="42.90112" lon="0.1585">
        <ele>1991</ele>
        <time>2018-04-14T12:42:11Z</time>
      </trkpt>
      <trkpt lat="42.90124" lon="0.15857">
        <ele>1988</ele>
        <time>2018-04-14T12:42:15Z</time>
      </trkpt>
      <trkpt lat="42.90135" lon="0.15863">
        <ele>1984</ele>
        <time>2018-04-14T12:42:17Z</time>
      </trkpt>
      <trkpt lat="42.90141" lon="0.15866">
        <ele>1982</ele>
        <time>2018-04-14T12:42:18Z</time>
      </trkpt>
      <trkpt lat="42.90154" lon="0.15875">
        <ele>1977</ele>
        <time>2018-04-14T12:42:20Z</time>
      </trkpt>
      <trkpt lat="42.9017" lon="0.15889">
        <ele>1969</ele>
        <time>2018-04-14T12:42:23Z</time>
      </trkpt>
      <trkpt lat="42.90173" lon="0.15896">
        <ele>1968</ele>
        <time>2018-04-14T12:42:24Z</time>
      </trkpt>
      <trkpt lat="42.90183" lon="0.15903">
        <ele>1962</ele>
        <time>2018-04-14T12:42:27Z</time>
      </trkpt>
      <trkpt lat="42.90183" lon="0.159">
        <ele>1961</ele>
        <time>2018-04-14T12:42:29Z</time>
      </trkpt>
      <trkpt lat="42.90182" lon="0.1589">
        <ele>1961</ele>
        <time>2018-04-14T12:42:37Z</time>
      </trkpt>
      <trkpt lat="42.90178" lon="0.15889">
        <ele>1961</ele>
        <time>2018-04-14T12:42:55Z</time>
      </trkpt>
      <trkpt lat="42.90179" lon="0.15891">
        <ele>1961</ele>
        <time>2018-04-14T12:43:08Z</time>
      </trkpt>
      <trkpt lat="42.90189" lon="0.15882">
        <ele>1960</ele>
        <time>2018-04-14T12:43:12Z</time>
      </trkpt>
      <trkpt lat="42.90199" lon="0.15884">
        <ele>1954</ele>
        <time>2018-04-14T12:43:15Z</time>
      </trkpt>
      <trkpt lat="42.90208" lon="0.15889">
        <ele>1950</ele>
        <time>2018-04-14T12:43:17Z</time>
      </trkpt>
      <trkpt lat="42.90213" lon="0.15894">
        <ele>1947</ele>
        <time>2018-04-14T12:43:18Z</time>
      </trkpt>
      <trkpt lat="42.90223" lon="0.15895">
        <ele>1942</ele>
        <time>2018-04-14T12:43:20Z</time>
      </trkpt>
      <trkpt lat="42.90229" lon="0.1589">
        <ele>1938</ele>
        <time>2018-04-14T12:43:21Z</time>
      </trkpt>
      <trkpt lat="42.90242" lon="0.1588">
        <ele>1930</ele>
        <time>2018-04-14T12:43:24Z</time>
      </trkpt>
      <trkpt lat="42.90247" lon="0.15885">
        <ele>1928</ele>
        <time>2018-04-14T12:43:27Z</time>
      </trkpt>
      <trkpt lat="42.90243" lon="0.15888">
        <ele>1929</ele>
        <time>2018-04-14T12:43:38Z</time>
      </trkpt>
      <trkpt lat="42.90238" lon="0.1589">
        <ele>1929</ele>
        <time>2018-04-14T12:43:46Z</time>
      </trkpt>
      <trkpt lat="42.90239" lon="0.15895">
        <ele>1929</ele>
        <time>2018-04-14T12:43:49Z</time>
      </trkpt>
      <trkpt lat="42.90247" lon="0.15905">
        <ele>1924</ele>
        <time>2018-04-14T12:43:52Z</time>
      </trkpt>
      <trkpt lat="42.90253" lon="0.15914">
        <ele>1919</ele>
        <time>2018-04-14T12:43:54Z</time>
      </trkpt>
      <trkpt lat="42.9026" lon="0.15923">
        <ele>1914</ele>
        <time>2018-04-14T12:43:56Z</time>
      </trkpt>
      <trkpt lat="42.90265" lon="0.15929">
        <ele>1910</ele>
        <time>2018-04-14T12:43:58Z</time>
      </trkpt>
      <trkpt lat="42.90269" lon="0.15937">
        <ele>1906</ele>
        <time>2018-04-14T12:44:00Z</time>
      </trkpt>
      <trkpt lat="42.90276" lon="0.15946">
        <ele>1901</ele>
        <time>2018-04-14T12:44:02Z</time>
      </trkpt>
      <trkpt lat="42.90282" lon="0.15955">
        <ele>1895</ele>
        <time>2018-04-14T12:44:04Z</time>
      </trkpt>
      <trkpt lat="42.90289" lon="0.1596">
        <ele>1891</ele>
        <time>2018-04-14T12:44:06Z</time>
      </trkpt>
      <trkpt lat="42.9029" lon="0.15954">
        <ele>1888</ele>
        <time>2018-04-14T12:44:09Z</time>
      </trkpt>
      <trkpt lat="42.90287" lon="0.15949">
        <ele>1890</ele>
        <time>2018-04-14T12:44:24Z</time>
      </trkpt>
      <trkpt lat="42.90287" lon="0.15948">
        <ele>1890</ele>
        <time>2018-04-14T12:44:29Z</time>
      </trkpt>
      <trkpt lat="42.90296" lon="0.15958">
        <ele>1886</ele>
        <time>2018-04-14T12:44:33Z</time>
      </trkpt>
      <trkpt lat="42.90304" lon="0.15968">
        <ele>1882</ele>
        <time>2018-04-14T12:44:35Z</time>
      </trkpt>
      <trkpt lat="42.90314" lon="0.1598">
        <ele>1878</ele>
        <time>2018-04-14T12:44:37Z</time>
      </trkpt>
      <trkpt lat="42.90323" lon="0.15989">
        <ele>1873</ele>
        <time>2018-04-14T12:44:39Z</time>
      </trkpt>
      <trkpt lat="42.90334" lon="0.15996">
        <ele>1869</ele>
        <time>2018-04-14T12:44:41Z</time>
      </trkpt>
      <trkpt lat="42.90343" lon="0.15996">
        <ele>1865</ele>
        <time>2018-04-14T12:44:43Z</time>
      </trkpt>
      <trkpt lat="42.90346" lon="0.15986">
        <ele>1863</ele>
        <time>2018-04-14T12:44:45Z</time>
      </trkpt>
      <trkpt lat="42.90352" lon="0.15978">
        <ele>1860</ele>
        <time>2018-04-14T12:44:47Z</time>
      </trkpt>
      <trkpt lat="42.90366" lon="0.1597">
        <ele>1857</ele>
        <time>2018-04-14T12:44:50Z</time>
      </trkpt>
      <trkpt lat="42.90383" lon="0.15966">
        <ele>1851</ele>
        <time>2018-04-14T12:44:54Z</time>
      </trkpt>
      <trkpt lat="42.90395" lon="0.15973">
        <ele>1846</ele>
        <time>2018-04-14T12:44:56Z</time>
      </trkpt>
      <trkpt lat="42.90406" lon="0.15984">
        <ele>1841</ele>
        <time>2018-04-14T12:44:58Z</time>
      </trkpt>
      <trkpt lat="42.90407" lon="0.15994">
        <ele>1840</ele>
        <time>2018-04-14T12:44:59Z</time>
      </trkpt>
      <trkpt lat="42.90402" lon="0.16018">
        <ele>1838</ele>
        <time>2018-04-14T12:45:09Z</time>
      </trkpt>
      <trkpt lat="42.90398" lon="0.16018">
        <ele>1839</ele>
        <time>2018-04-14T12:45:31Z</time>
      </trkpt>
      <trkpt lat="42.90398" lon="0.16018">
        <ele>1839</ele>
        <time>2018-04-14T12:45:37Z</time>
      </trkpt>
      <trkpt lat="42.90411" lon="0.16055">
        <ele>1836</ele>
        <time>2018-04-14T12:45:49Z</time>
      </trkpt>
      <trkpt lat="42.90412" lon="0.1606">
        <ele>1836</ele>
        <time>2018-04-14T12:45:50Z</time>
      </trkpt>
      <trkpt lat="42.90417" lon="0.16093">
        <ele>1832</ele>
        <time>2018-04-14T12:45:57Z</time>
      </trkpt>
      <trkpt lat="42.90417" lon="0.16096">
        <ele>1832</ele>
        <time>2018-04-14T12:45:58Z</time>
      </trkpt>
      <trkpt lat="42.90417" lon="0.16111">
        <ele>1831</ele>
        <time>2018-04-14T12:46:02Z</time>
      </trkpt>
      <trkpt lat="42.90429" lon="0.16118">
        <ele>1827</ele>
        <time>2018-04-14T12:46:07Z</time>
      </trkpt>
      <trkpt lat="42.90429" lon="0.16123">
        <ele>1827</ele>
        <time>2018-04-14T12:46:14Z</time>
      </trkpt>
      <trkpt lat="42.90429" lon="0.16123">
        <ele>1826</ele>
        <time>2018-04-14T12:46:15Z</time>
      </trkpt>
      <trkpt lat="42.90435" lon="0.16141">
        <ele>1825</ele>
        <time>2018-04-14T12:46:23Z</time>
      </trkpt>
      <trkpt lat="42.90448" lon="0.1616">
        <ele>1823</ele>
        <time>2018-04-14T12:46:35Z</time>
      </trkpt>
      <trkpt lat="42.90476" lon="0.16188">
        <ele>1819</ele>
        <time>2018-04-14T12:46:42Z</time>
      </trkpt>
      <trkpt lat="42.90487" lon="0.16201">
        <ele>1817</ele>
        <time>2018-04-14T12:46:44Z</time>
      </trkpt>
      <trkpt lat="42.90492" lon="0.16206">
        <ele>1817</ele>
        <time>2018-04-14T12:46:45Z</time>
      </trkpt>
      <trkpt lat="42.90516" lon="0.16229">
        <ele>1816</ele>
        <time>2018-04-14T12:46:56Z</time>
      </trkpt>
      <trkpt lat="42.90535" lon="0.16241">
        <ele>1815</ele>
        <time>2018-04-14T12:47:02Z</time>
      </trkpt>
      <trkpt lat="42.90551" lon="0.16259">
        <ele>1813</ele>
        <time>2018-04-14T12:47:07Z</time>
      </trkpt>
      <trkpt lat="42.9057" lon="0.16265">
        <ele>1809</ele>
        <time>2018-04-14T12:47:12Z</time>
      </trkpt>
      <trkpt lat="42.90586" lon="0.1626">
        <ele>1805</ele>
        <time>2018-04-14T12:47:16Z</time>
      </trkpt>
      <trkpt lat="42.90598" lon="0.16265">
        <ele>1801</ele>
        <time>2018-04-14T12:47:18Z</time>
      </trkpt>
      <trkpt lat="42.90609" lon="0.16289">
        <ele>1800</ele>
        <time>2018-04-14T12:47:22Z</time>
      </trkpt>
      <trkpt lat="42.90609" lon="0.16298">
        <ele>1801</ele>
        <time>2018-04-14T12:47:24Z</time>
      </trkpt>
      <trkpt lat="42.90604" lon="0.16302">
        <ele>1801</ele>
        <time>2018-04-14T12:47:35Z</time>
      </trkpt>
      <trkpt lat="42.9061" lon="0.16316">
        <ele>1800</ele>
        <time>2018-04-14T12:47:40Z</time>
      </trkpt>
      <trkpt lat="42.90614" lon="0.16324">
        <ele>1800</ele>
        <time>2018-04-14T12:47:42Z</time>
      </trkpt>
      <trkpt lat="42.90624" lon="0.16338">
        <ele>1798</ele>
        <time>2018-04-14T12:47:45Z</time>
      </trkpt>
      <trkpt lat="42.9064" lon="0.16361">
        <ele>1796</ele>
        <time>2018-04-14T12:47:54Z</time>
      </trkpt>
      <trkpt lat="42.90654" lon="0.1636">
        <ele>1795</ele>
        <time>2018-04-14T12:47:58Z</time>
      </trkpt>
      <trkpt lat="42.9067" lon="0.16354">
        <ele>1793</ele>
        <time>2018-04-14T12:48:00Z</time>
      </trkpt>
      <trkpt lat="42.90706" lon="0.16377">
        <ele>1790</ele>
        <time>2018-04-14T12:48:07Z</time>
      </trkpt>
      <trkpt lat="42.90706" lon="0.16388">
        <ele>1790</ele>
        <time>2018-04-14T12:48:09Z</time>
      </trkpt>
      <trkpt lat="42.90708" lon="0.16441">
        <ele>1788</ele>
        <time>2018-04-14T12:48:21Z</time>
      </trkpt>
      <trkpt lat="42.90713" lon="0.16478">
        <ele>1787</ele>
        <time>2018-04-14T12:48:31Z</time>
      </trkpt>
      <trkpt lat="42.90715" lon="0.1648">
        <ele>1787</ele>
        <time>2018-04-14T12:48:34Z</time>
      </trkpt>
      <trkpt lat="42.9072" lon="0.16478">
        <ele>1788</ele>
        <time>2018-04-14T12:48:42Z</time>
      </trkpt>
      <trkpt lat="42.9073" lon="0.16483">
        <ele>1787</ele>
        <time>2018-04-14T12:48:51Z</time>
      </trkpt>
      <trkpt lat="42.90734" lon="0.16489">
        <ele>1788</ele>
        <time>2018-04-14T12:48:57Z</time>
      </trkpt>
      <trkpt lat="42.90739" lon="0.16501">
        <ele>1788</ele>
        <time>2018-04-14T12:49:11Z</time>
      </trkpt>
      <trkpt lat="42.9074" lon="0.16504">
        <ele>1788</ele>
        <time>2018-04-14T12:49:13Z</time>
      </trkpt>
      <trkpt lat="42.90746" lon="0.16531">
        <ele>1787</ele>
        <time>2018-04-14T12:49:27Z</time>
      </trkpt>
      <trkpt lat="42.90751" lon="0.16538">
        <ele>1787</ele>
        <time>2018-04-14T12:49:38Z</time>
      </trkpt>
      <trkpt lat="42.9075" lon="0.16538">
        <ele>1787</ele>
        <time>2018-04-14T12:49:57Z</time>
      </trkpt>
      <trkpt lat="42.90748" lon="0.16534">
        <ele>1787</ele>
        <time>2018-04-14T12:50:17Z</time>
      </trkpt>
      <trkpt lat="42.90749" lon="0.16534">
        <ele>1787</ele>
        <time>2018-04-14T12:50:38Z</time>
      </trkpt>
      <trkpt lat="42.90751" lon="0.16535">
        <ele>1787</ele>
        <time>2018-04-14T12:50:56Z</time>
      </trkpt>
      <trkpt lat="42.90749" lon="0.16535">
        <ele>1786</ele>
        <time>2018-04-14T12:51:14Z</time>
      </trkpt>
      <trkpt lat="42.9075" lon="0.16536">
        <ele>1787</ele>
        <time>2018-04-14T12:51:33Z</time>
      </trkpt>
      <trkpt lat="42.90751" lon="0.16533">
        <ele>1787</ele>
        <time>2018-04-14T12:51:47Z</time>
      </trkpt>
      <trkpt lat="42.90748" lon="0.16532">
        <ele>1787</ele>
        <time>2018-04-14T12:52:09Z</time>
      </trkpt>
      <trkpt lat="42.90749" lon="0.16537">
        <ele>1787</ele>
        <time>2018-04-14T12:52:29Z</time>
      </trkpt>
      <trkpt lat="42.9075" lon="0.16535">
        <ele>1787</ele>
        <time>2018-04-14T12:52:49Z</time>
      </trkpt>
      <trkpt lat="42.90745" lon="0.16531">
        <ele>1787</ele>
        <time>2018-04-14T12:53:20Z</time>
      </trkpt>
      <trkpt lat="42.90752" lon="0.16536">
        <ele>1787</ele>
        <time>2018-04-14T12:53:41Z</time>
      </trkpt>
      <trkpt lat="42.90755" lon="0.16538">
        <ele>1788</ele>
        <time>2018-04-14T12:54:01Z</time>
      </trkpt>
      <trkpt lat="42.90758" lon="0.16544">
        <ele>1788</ele>
        <time>2018-04-14T12:54:17Z</time>
      </trkpt>
      <trkpt lat="42.90765" lon="0.16553">
        <ele>1789</ele>
        <time>2018-04-14T12:54:32Z</time>
      </trkpt>
      <trkpt lat="42.90776" lon="0.16569">
        <ele>1790</ele>
        <time>2018-04-14T12:54:51Z</time>
      </trkpt>
      <trkpt lat="42.90784" lon="0.16582">
        <ele>1791</ele>
        <time>2018-04-14T12:55:06Z</time>
      </trkpt>
      <trkpt lat="42.90789" lon="0.16597">
        <ele>1793</ele>
        <time>2018-04-14T12:55:21Z</time>
      </trkpt>
      <trkpt lat="42.90795" lon="0.1661">
        <ele>1793</ele>
        <time>2018-04-14T12:55:35Z</time>
      </trkpt>
      <trkpt lat="42.90805" lon="0.16623">
        <ele>1794</ele>
        <time>2018-04-14T12:55:51Z</time>
      </trkpt>
      <trkpt lat="42.90806" lon="0.16629">
        <ele>1795</ele>
        <time>2018-04-14T12:55:57Z</time>
      </trkpt>
      <trkpt lat="42.90807" lon="0.16633">
        <ele>1794</ele>
        <time>2018-04-14T12:56:00Z</time>
      </trkpt>
      <trkpt lat="42.90811" lon="0.1665">
        <ele>1795</ele>
        <time>2018-04-14T12:56:16Z</time>
      </trkpt>
      <trkpt lat="42.90818" lon="0.16666">
        <ele>1795</ele>
        <time>2018-04-14T12:56:30Z</time>
      </trkpt>
      <trkpt lat="42.9082" lon="0.16671">
        <ele>1795</ele>
        <time>2018-04-14T12:56:35Z</time>
      </trkpt>
      <trkpt lat="42.9083" lon="0.16686">
        <ele>1795</ele>
        <time>2018-04-14T12:56:50Z</time>
      </trkpt>
      <trkpt lat="42.90837" lon="0.16704">
        <ele>1796</ele>
        <time>2018-04-14T12:57:06Z</time>
      </trkpt>
      <trkpt lat="42.90838" lon="0.16707">
        <ele>1796</ele>
        <time>2018-04-14T12:57:09Z</time>
      </trkpt>
      <trkpt lat="42.90839" lon="0.16724">
        <ele>1798</ele>
        <time>2018-04-14T12:57:23Z</time>
      </trkpt>
      <trkpt lat="42.90842" lon="0.16744">
        <ele>1799</ele>
        <time>2018-04-14T12:57:42Z</time>
      </trkpt>
      <trkpt lat="42.90849" lon="0.1676">
        <ele>1801</ele>
        <time>2018-04-14T12:57:59Z</time>
      </trkpt>
      <trkpt lat="42.90858" lon="0.16774">
        <ele>1802</ele>
        <time>2018-04-14T12:58:16Z</time>
      </trkpt>
      <trkpt lat="42.90863" lon="0.16791">
        <ele>1803</ele>
        <time>2018-04-14T12:58:31Z</time>
      </trkpt>
      <trkpt lat="42.90866" lon="0.16804">
        <ele>1803</ele>
        <time>2018-04-14T12:58:42Z</time>
      </trkpt>
      <trkpt lat="42.90874" lon="0.16819">
        <ele>1804</ele>
        <time>2018-04-14T12:58:57Z</time>
      </trkpt>
      <trkpt lat="42.90885" lon="0.16827">
        <ele>1804</ele>
        <time>2018-04-14T12:59:12Z</time>
      </trkpt>
      <trkpt lat="42.90894" lon="0.16835">
        <ele>1805</ele>
        <time>2018-04-14T12:59:27Z</time>
      </trkpt>
      <trkpt lat="42.90906" lon="0.16841">
        <ele>1806</ele>
        <time>2018-04-14T12:59:44Z</time>
      </trkpt>
      <trkpt lat="42.90918" lon="0.16844">
        <ele>1808</ele>
        <time>2018-04-14T12:59:57Z</time>
      </trkpt>
      <trkpt lat="42.90926" lon="0.16854">
        <ele>1810</ele>
        <time>2018-04-14T13:00:14Z</time>
      </trkpt>
      <trkpt lat="42.90938" lon="0.1686">
        <ele>1811</ele>
        <time>2018-04-14T13:00:32Z</time>
      </trkpt>
      <trkpt lat="42.90947" lon="0.16874">
        <ele>1812</ele>
        <time>2018-04-14T13:00:50Z</time>
      </trkpt>
      <trkpt lat="42.90951" lon="0.16878">
        <ele>1812</ele>
        <time>2018-04-14T13:00:57Z</time>
      </trkpt>
      <trkpt lat="42.90961" lon="0.16894">
        <ele>1813</ele>
        <time>2018-04-14T13:01:11Z</time>
      </trkpt>
      <trkpt lat="42.90971" lon="0.1691">
        <ele>1814</ele>
        <time>2018-04-14T13:01:25Z</time>
      </trkpt>
      <trkpt lat="42.90981" lon="0.16923">
        <ele>1816</ele>
        <time>2018-04-14T13:01:36Z</time>
      </trkpt>
      <trkpt lat="42.90989" lon="0.16935">
        <ele>1817</ele>
        <time>2018-04-14T13:01:49Z</time>
      </trkpt>
      <trkpt lat="42.90991" lon="0.16937">
        <ele>1817</ele>
        <time>2018-04-14T13:01:52Z</time>
      </trkpt>
      <trkpt lat="42.90995" lon="0.16955">
        <ele>1817</ele>
        <time>2018-04-14T13:02:03Z</time>
      </trkpt>
      <trkpt lat="42.90995" lon="0.1696">
        <ele>1817</ele>
        <time>2018-04-14T13:02:06Z</time>
      </trkpt>
      <trkpt lat="42.90999" lon="0.16969">
        <ele>1817</ele>
        <time>2018-04-14T13:02:12Z</time>
      </trkpt>
      <trkpt lat="42.91004" lon="0.16977">
        <ele>1817</ele>
        <time>2018-04-14T13:02:17Z</time>
      </trkpt>
      <trkpt lat="42.91013" lon="0.17002">
        <ele>1817</ele>
        <time>2018-04-14T13:02:33Z</time>
      </trkpt>
      <trkpt lat="42.91011" lon="0.17025">
        <ele>1815</ele>
        <time>2018-04-14T13:02:46Z</time>
      </trkpt>
      <trkpt lat="42.91019" lon="0.17052">
        <ele>1813</ele>
        <time>2018-04-14T13:03:04Z</time>
      </trkpt>
      <trkpt lat="42.91018" lon="0.17053">
        <ele>1812</ele>
        <time>2018-04-14T13:03:20Z</time>
      </trkpt>
      <trkpt lat="42.91016" lon="0.17051">
        <ele>1811</ele>
        <time>2018-04-14T13:03:33Z</time>
      </trkpt>
      <trkpt lat="42.91017" lon="0.17057">
        <ele>1810</ele>
        <time>2018-04-14T13:03:50Z</time>
      </trkpt>
      <trkpt lat="42.91017" lon="0.17055">
        <ele>1810</ele>
        <time>2018-04-14T13:04:25Z</time>
      </trkpt>
      <trkpt lat="42.91015" lon="0.17057">
        <ele>1810</ele>
        <time>2018-04-14T13:05:00Z</time>
      </trkpt>
      <trkpt lat="42.91017" lon="0.17056">
        <ele>1811</ele>
        <time>2018-04-14T13:05:31Z</time>
      </trkpt>
      <trkpt lat="42.91016" lon="0.17056">
        <ele>1810</ele>
        <time>2018-04-14T13:06:11Z</time>
      </trkpt>
      <trkpt lat="42.91014" lon="0.17058">
        <ele>1810</ele>
        <time>2018-04-14T13:06:45Z</time>
      </trkpt>
      <trkpt lat="42.91017" lon="0.17056">
        <ele>1811</ele>
        <time>2018-04-14T13:07:19Z</time>
      </trkpt>
      <trkpt lat="42.91017" lon="0.17057">
        <ele>1811</ele>
        <time>2018-04-14T13:07:47Z</time>
      </trkpt>
      <trkpt lat="42.91015" lon="0.17058">
        <ele>1811</ele>
        <time>2018-04-14T13:08:15Z</time>
      </trkpt>
      <trkpt lat="42.91016" lon="0.17057">
        <ele>1810</ele>
        <time>2018-04-14T13:08:41Z</time>
      </trkpt>
      <trkpt lat="42.91016" lon="0.17056">
        <ele>1811</ele>
        <time>2018-04-14T13:09:08Z</time>
      </trkpt>
      <trkpt lat="42.91016" lon="0.17056">
        <ele>1811</ele>
        <time>2018-04-14T13:09:42Z</time>
      </trkpt>
      <trkpt lat="42.91015" lon="0.17056">
        <ele>1811</ele>
        <time>2018-04-14T13:10:17Z</time>
      </trkpt>
      <trkpt lat="42.91015" lon="0.17057">
        <ele>1811</ele>
        <time>2018-04-14T13:10:44Z</time>
      </trkpt>
      <trkpt lat="42.91014" lon="0.17058">
        <ele>1810</ele>
        <time>2018-04-14T13:11:29Z</time>
      </trkpt>
      <trkpt lat="42.91015" lon="0.17056">
        <ele>1810</ele>
        <time>2018-04-14T13:12:05Z</time>
      </trkpt>
      <trkpt lat="42.91013" lon="0.17059">
        <ele>1810</ele>
        <time>2018-04-14T13:12:40Z</time>
      </trkpt>
      <trkpt lat="42.91013" lon="0.17059">
        <ele>1810</ele>
        <time>2018-04-14T13:13:08Z</time>
      </trkpt>
      <trkpt lat="42.91016" lon="0.17056">
        <ele>1810</ele>
        <time>2018-04-14T13:13:39Z</time>
      </trkpt>
      <trkpt lat="42.91014" lon="0.17057">
        <ele>1810</ele>
        <time>2018-04-14T13:14:09Z</time>
      </trkpt>
      <trkpt lat="42.91016" lon="0.17056">
        <ele>1810</ele>
        <time>2018-04-14T13:14:39Z</time>
      </trkpt>
      <trkpt lat="42.91016" lon="0.17056">
        <ele>1811</ele>
        <time>2018-04-14T13:15:12Z</time>
      </trkpt>
      <trkpt lat="42.91017" lon="0.17054">
        <ele>1810</ele>
        <time>2018-04-14T13:15:42Z</time>
      </trkpt>
      <trkpt lat="42.91018" lon="0.17057">
        <ele>1810</ele>
        <time>2018-04-14T13:16:15Z</time>
      </trkpt>
      <trkpt lat="42.91015" lon="0.17058">
        <ele>1811</ele>
        <time>2018-04-14T13:16:43Z</time>
      </trkpt>
      <trkpt lat="42.91016" lon="0.17056">
        <ele>1811</ele>
        <time>2018-04-14T13:17:15Z</time>
      </trkpt>
      <trkpt lat="42.91014" lon="0.17055">
        <ele>1811</ele>
        <time>2018-04-14T13:17:50Z</time>
      </trkpt>
      <trkpt lat="42.91013" lon="0.17055">
        <ele>1811</ele>
        <time>2018-04-14T13:18:32Z</time>
      </trkpt>
      <trkpt lat="42.91013" lon="0.17055">
        <ele>1810</ele>
        <time>2018-04-14T13:19:01Z</time>
      </trkpt>
      <trkpt lat="42.91016" lon="0.17055">
        <ele>1810</ele>
        <time>2018-04-14T13:19:35Z</time>
      </trkpt>
      <trkpt lat="42.91015" lon="0.17057">
        <ele>1811</ele>
        <time>2018-04-14T13:20:13Z</time>
      </trkpt>
      <trkpt lat="42.91017" lon="0.17056">
        <ele>1811</ele>
        <time>2018-04-14T13:20:28Z</time>
      </trkpt>
      <trkpt lat="42.91018" lon="0.17052">
        <ele>1811</ele>
        <time>2018-04-14T13:20:52Z</time>
      </trkpt>
      <trkpt lat="42.91018" lon="0.17052">
        <ele>1810</ele>
        <time>2018-04-14T13:21:24Z</time>
      </trkpt>
      <trkpt lat="42.91019" lon="0.17053">
        <ele>1807</ele>
        <time>2018-04-14T13:21:42Z</time>
      </trkpt>
    </trkseg>
  </trk>
</gpx>